[[[{"header":{"parameterUnit":"kt","parameterCategory":2,"dx":1,"dy":1,"la1":29.587661999999998,"la2":31.0,"lo1":-88.76705300000003,"lo2":-86.6583820000003,"nx":115,"ny":88,"refTime":"2022-10-26T00:00:00:Z","depth":0,"parameterNumber":1,"parameterNumberName":"U-component_of_WINDS"},"data":[-2.5329,-2.5685,-2.5685,-2.579,-2.5909,-2.5725,-2.5777,-2.5962,-2.5698,-2.5698,-2.5883,-2.5936,-2.5804,-2.5527,-2.5527,-2.5659,-2.5856,-2.5909,-2.5949,-2.6041,-2.6041,-2.6041,-2.6041,-2.6041,-2.6041,-2.6041,-2.6041,-2.6041,-2.6041,-2.6041,-2.6041,-2.6041,-2.6041,-2.6041,-2.6041,-2.6041,-2.6041,-2.588,-2.5732,-2.5087,-2.3621,-2.2651,-2.1681,-2.0871,-2.0223,-1.9889,-1.8916,-1.6464,-1.5157,-1.4019,-1.2556,-1.2393,-1.1579,-1.0277,-0.751,-0.4412,-0.3433,-0.1963,0.0,0.0,0.0,0.0,0.0,0.0,-0.1145,-0.1962,-0.327,-0.4414,-0.507,-0.5234,-0.5234,-0.5234,-0.5234,-0.5234,-0.5234,-0.5234,-0.5234,-0.5234,-0.5234,-0.5234,-0.5394,-0.7351,-0.9793,-1.1417,-1.3362,-1.7906,-2.196,-2.454,-2.698,-2.8921,-3.0715,-3.1035,-3.1035,-3.1035,-3.0875,-3.0715,-3.1035,-3.1035,-3.1035,-3.1035,-3.1035,-3.1035,-3.1035,-3.1035,-3.1035,-3.1035,-3.1035,-3.1035,-3.1035,-3.1035,-3.1035,-3.1035,-3.0699,-3.0379,-2.9738,-2.5276,-2.5949,-2.5975,-2.587,-2.5672,-2.5606,-2.5764,-2.5922,-2.55,-2.5565,-2.5619,-2.5619,-2.5487,-2.5329,-2.525,-2.5448,-2.5606,-2.5711,-2.5856,-2.5962,-2.6028,-2.6041,-2.6041,-2.6041,-2.6041,-2.6041,-2.6041,-2.6041,-2.6041,-2.6041,-2.6041,-2.6041,-2.6041,-2.6041,-2.6041,-2.6041,-2.6041,-2.5893,-2.5235,-2.4428,-2.346,-2.2651,-2.1681,-2.0051,-1.8258,-1.6626,-1.5327,-1.3532,-1.1579,-1.0603,-1.044,-0.9299,-0.8159,-0.6695,-0.3922,0.0,0.0,0.0,0.0,0.0,0.0,0.0,0.0,0.0,0.0,-0.1472,-0.2779,-0.3924,-0.4743,-0.507,-0.5234,-0.5234,-0.5234,-0.5234,-0.5234,-0.5234,-0.5234,-0.5234,-0.5234,-0.5234,-0.6048,-0.7024,-0.8815,-1.0277,-1.3687,-1.8725,-2.2455,-2.5036,-2.6966,-2.7783,-2.9402,-3.0219,-3.0699,-3.0699,-3.0219,-3.0539,-3.1035,-3.1035,-3.1035,-3.1035,-3.1035,-3.1035,-3.1035,-3.1035,-3.1035,-3.1035,-3.1035,-3.1035,-3.1035,-3.1035,-3.1035,-3.1035,-3.0859,-3.0379,-2.9898,-2.5224,-2.558,-2.5738,-2.5725,-2.5593,-2.5434,-2.5645,-2.5896,-2.5448,-2.5171,-2.5118,-2.496,-2.4907,-2.496,-2.4947,-2.5105,-2.5369,-2.5514,-2.5672,-2.583,-2.5922,-2.6001,-2.6041,-2.6041,-2.6041,-2.6041,-2.6041,-2.6041,-2.6041,-2.6041,-2.6041,-2.6041,-2.6041,-2.6041,-2.6041,-2.6041,-2.6041,-2.6041,-2.5074,-2.3944,-2.2651,-2.2004,-2.1195,-2.0051,-1.8095,-1.6301,-1.4182,-1.0603,-0.8485,-0.751,-0.751,-0.6042,-0.5389,-0.3595,-0.1636,0.0,0.0,0.0,0.0,0.0,0.0,0.0,0.0,0.0,0.0,-0.1146,-0.229,-0.327,-0.4087,-0.507,-0.507,-0.5234,-0.5234,-0.5234,-0.5234,-0.5234,-0.5234,-0.5234,-0.5234,-0.5234,-0.5721,-0.6861,-0.8326,-0.9793,-1.2068,-1.6942,-1.8554,-2.0646,-2.3561,-2.5345,-2.7783,-2.9402,-3.0539,-3.0699,-3.0058,-3.0379,-3.1035,-3.1035,-3.1035,-3.1035,-3.1035,-3.1035,-3.1035,-3.1035,-3.1035,-3.1035,-3.1035,-3.1035,-3.1035,-3.1035,-3.1035,-3.1035,-3.0859,-3.0539,-3.0363,-2.5065,-2.5353,-2.5263,-2.5395,-2.5474,-2.5289,-2.5487,-2.587,-2.5342,-2.496,-2.4736,-2.4551,-2.4538,-2.4643,-2.4643,-2.4802,-2.5052,-2.521,-2.5421,-2.5566,-2.579,-2.587,-2.5922,-2.5988,-2.6041,-2.6041,-2.6041,-2.6041,-2.6041,-2.6041,-2.6041,-2.6041,-2.6041,-2.6041,-2.6041,-2.5558,-2.5558,-2.5396,-2.4428,-2.3136,-2.2328,-2.1519,-2.0051,-1.842,-1.6139,-1.4019,-1.0765,-0.7184,-0.4902,0.0,0.0,0.0,0.0,-0.1472,0.0,0.0,0.0,0.0,0.0,0.0,0.0,0.0,0.0,0.0,-0.0819,-0.1146,-0.18,-0.2617,-0.3433,-0.4251,-0.4907,-0.507,-0.5234,-0.5234,-0.5234,-0.5234,-0.5234,-0.5234,-0.5234,-0.5234,-0.5234,-0.6375,-0.8167,-0.963,-1.1254,-1.2875,-1.4654,-1.7249,-2.0485,-2.2917,-2.5023,-2.7958,-2.9417,-3.0539,-3.0058,-3.0219,-3.0875,-3.1035,-3.1035,-3.1035,-3.1035,-3.1035,-3.1035,-3.1035,-3.1035,-3.1035,-3.1035,-3.1035,-3.1035,-3.1035,-3.1035,-3.1035,-3.0859,-3.0544,-3.0734,-2.4709,-2.5144,-2.463,-2.4788,-2.534,-2.5197,-2.5342,-2.5553,-2.5026,-2.4762,-2.4736,-2.4696,-2.4538,-2.4419,-2.4406,-2.4564,-2.4749,-2.4894,-2.5065,-2.525,-2.5514,-2.5645,-2.5725,-2.5883,-2.5896,-2.5988,-2.6028,-2.5988,-2.6028,-2.6041,-2.6041,-2.6041,-2.6041,-2.6041,-2.588,-2.5396,-2.4913,-2.459,-2.346,-2.1993,-2.1519,-2.0698,-1.9402,-1.6139,-1.2718,-0.9788,-0.6368,-0.3268,0.0,0.0,0.0,0.0,0.0,0.0,0.0,0.0,0.0,0.0,0.0,0.0,0.0,0.0,0.0,0.0,0.0,-0.0819,-0.1473,-0.2127,-0.2943,-0.3924,-0.4741,-0.507,-0.5234,-0.5234,-0.5234,-0.5234,-0.5234,-0.5234,-0.5234,-0.5234,-0.5234,-0.5394,-0.7024,-0.7351,-0.8652,-0.9956,-1.2062,-1.5141,-1.7735,-1.9838,-2.2767,-2.6202,-2.8133,-2.9738,-2.9577,-2.9898,-3.0699,-3.1035,-3.1035,-3.1035,-3.1035,-3.1035,-3.1035,-3.1035,-3.1035,-3.1035,-3.1035,-3.1035,-3.1035,-3.1035,-3.1035,-3.1035,-3.0878,-3.0674,-3.0611,-2.4881,-2.4894,-2.4657,-2.4802,-2.5131,-2.4999,-2.4973,-2.4986,-2.4657,-2.4472,-2.4472,-2.4485,-2.4419,-2.4301,-2.4314,-2.4366,-2.4512,-2.4643,-2.4775,-2.4999,-2.5224,-2.5316,-2.5369,-2.5474,-2.5645,-2.5738,-2.579,-2.5856,-2.6015,-2.6041,-2.6041,-2.6041,-2.6041,-2.6041,-2.5719,-2.5074,-2.4428,-2.346,-2.1993,-2.0213,-1.8906,-1.7609,-1.5652,-1.2718,-0.9137,-0.7184,-0.5228,-0.2127,0.0,0.0,0.0,0.0,0.0,0.0,0.0,0.0,0.0,0.0,0.0,0.0,0.0,0.0,0.0,0.0,0.0,0.0,-0.1146,-0.1799,-0.2616,-0.3433,-0.4251,-0.4907,-0.507,-0.5234,-0.5234,-0.5234,-0.5234,-0.5234,-0.5234,-0.5234,-0.5234,-0.5234,-0.5234,-0.5234,-0.6048,-0.7514,-0.9625,-1.2875,-1.5628,-1.8382,-2.2121,-2.5558,-2.765,-2.9096,-2.9257,-2.9577,-3.0379,-3.0875,-3.1035,-3.1035,-3.1035,-3.1035,-3.1035,-3.1035,-3.1035,-3.1035,-3.1035,-3.1035,-3.1019,-3.1035,-3.1035,-3.0815,-3.0706,-3.0516,-3.0406,-2.4815,-2.463,-2.4617,-2.4788,-2.4999,-2.4749,-2.4617,-2.4604,-2.4406,-2.4301,-2.4301,-2.4301,-2.4327,-2.4301,-2.4301,-2.4301,-2.4393,-2.4498,-2.4591,-2.4736,-2.492,-2.5026,-2.5118,-2.5197,-2.5316,-2.5434,-2.5514,-2.558,-2.5751,-2.5909,-2.5909,-2.6028,-2.6041,-2.6041,-2.5558,-2.459,-2.3136,-2.167,-1.9878,-1.8095,-1.6626,-1.4839,-1.2068,-0.9788,-0.6695,-0.4902,-0.3597,-0.0982,0.0,0.0,0.0,0.0,0.0,0.0,0.0,0.0,0.0,0.0,0.0,0.0,0.0,0.0,0.0,0.0,0.0,0.0,-0.0491,-0.1473,-0.229,-0.3106,-0.3924,-0.4741,-0.507,-0.5234,-0.5234,-0.5234,-0.5234,-0.5234,-0.5234,-0.5234,-0.5234,-0.5234,-0.5234,-0.5234,-0.5234,-0.5558,-0.7351,-1.0928,-1.4337,-1.8554,-2.2455,-2.5545,-2.749,-2.8133,-2.8454,-2.9096,-2.9898,-3.0699,-3.0875,-3.1035,-3.1035,-3.1035,-3.1035,-3.1035,-3.1035,-3.1035,-3.1019,-3.1148,-3.11,-3.1132,-3.0958,-3.0643,-3.0358,-3.0153,-3.0011,-2.4327,-2.4314,-2.4314,-2.4498,-2.4683,-2.4472,-2.434,-2.4327,-2.4301,-2.4301,-2.4301,-2.4301,-2.4301,-2.4301,-2.4301,-2.4301,-2.434,-2.4327,-2.4366,-2.4446,-2.4643,-2.4709,-2.4841,-2.4986,-2.5078,-2.5158,-2.5224,-2.525,-2.5276,-2.55,-2.5777,-2.5949,-2.5854,-2.4664,-2.349,-2.1871,-1.9949,-1.8345,-1.6567,-1.5126,-1.3369,-1.1742,-0.8811,-0.6368,-0.4738,-0.3106,0.0,0.0,0.0,0.0,0.0,0.0,0.0,0.0,0.0,0.0,0.0,0.0,0.0,0.0,0.0,0.0,0.0,0.0,0.0,0.0,0.0,-0.0982,-0.1963,-0.2943,-0.376,-0.4577,-0.5234,-0.5234,-0.5234,-0.5234,-0.5234,-0.5234,-0.5234,-0.5234,-0.5234,-0.5234,-0.5234,-0.5234,-0.5234,-0.6211,-0.8656,-1.1742,-1.4832,-1.9049,-2.3502,-2.643,-2.6819,-2.7315,-2.7986,-2.8615,-2.9417,-3.0219,-3.0539,-3.0875,-3.1035,-3.1035,-3.1035,-3.1035,-3.1035,-3.1019,-3.0988,-3.1116,-3.1021,-3.08,-3.0595,-3.0295,-2.9916,-2.9743,-2.9632,-2.4301,-2.4301,-2.4301,-2.4366,-2.4419,-2.434,-2.4301,-2.4301,-2.4301,-2.4301,-2.4301,-2.4301,-2.4301,-2.4301,-2.4301,-2.4301,-2.4301,-2.4301,-2.4301,-2.4314,-2.4432,-2.4472,-2.4498,-2.4564,-2.4762,-2.4868,-2.492,-2.5013,-2.5144,-2.5276,-2.5474,-2.5565,-2.5293,-2.257,-1.8542,-1.6934,-1.5214,-1.4352,-1.2931,-1.1497,-0.9611,-0.767,-0.5392,0.0,0.0,0.0,0.0,0.0,0.0,0.0,0.0,0.0,0.0,0.0,0.0,0.0,0.0,0.0,0.0,0.0,0.0,0.0,0.0,0.0,0.0,0.0,0.0,0.0,-0.1799,-0.2452,-0.3106,-0.4577,-0.507,-0.5234,-0.5234,-0.5234,-0.5234,-0.5234,-0.5234,-0.5234,-0.5234,-0.5234,-0.5234,-0.5234,-0.5234,-0.7514,-0.9951,-1.2725,-1.5481,-2.0562,-2.5273,-2.6003,-2.623,-2.671,-2.7364,-2.8047,-2.8892,-2.9723,-3.0219,-3.0539,-3.0699,-3.1035,-3.1035,-3.1035,-3.1037,-3.0943,-3.1021,-3.0943,-3.0674,-3.0453,-3.0216,-2.9869,-2.9522,-2.9364,-2.9285,-2.4301,-2.4301,-2.4301,-2.4301,-2.4301,-2.4301,-2.4301,-2.4301,-2.4301,-2.4301,-2.4301,-2.4301,-2.4301,-2.4301,-2.4301,-2.4301,-2.4301,-2.4301,-2.4301,-2.4301,-2.4314,-2.4301,-2.4314,-2.438,-2.4432,-2.4551,-2.4604,-2.4722,-2.492,-2.4999,-2.5158,-2.4388,-2.2937,-1.896,-1.4058,-1.1821,-1.0618,-0.9919,-0.8988,-0.7741,-0.5544,-0.4085,0.0,0.0,0.0,0.0,0.0,0.0,0.0,0.0,0.0,0.0,0.0,0.0,0.0,0.0,0.0,0.0,0.0,0.0,0.0,0.0,0.0,0.0,0.0,0.0,0.0,0.0,0.0,-0.2127,-0.2615,-0.4085,-0.4899,-0.5062,-0.522,-0.5223,-0.5226,-0.5228,-0.5231,-0.5231,-0.5234,-0.5234,-0.5234,-0.5234,-0.5234,-0.6865,-1.1029,-1.3927,-1.5646,-2.0671,-2.5198,-2.5302,-2.5831,-2.6188,-2.6574,-2.7225,-2.789,-2.8964,-2.9517,-2.9967,-3.0508,-3.1035,-3.0972,-3.0958,-3.0816,-3.0674,-3.0627,-3.0548,-3.0311,-3.0043,-2.9727,-2.9411,-2.9285,-2.934,-2.9245,-2.4301,-2.4301,-2.4301,-2.4301,-2.4301,-2.4301,-2.4301,-2.4301,-2.4301,-2.4301,-2.4301,-2.4301,-2.4301,-2.4301,-2.4301,-2.4301,-2.4301,-2.4301,-2.4301,-2.4301,-2.4301,-2.4301,-2.4301,-2.4301,-2.434,-2.4314,-2.4366,-2.4393,-2.4393,-2.3855,-2.3523,-2.2569,-1.9093,-1.5369,-1.1796,-1.0546,-0.8877,-0.6729,-0.5617,-0.5173,-0.3912,-0.1963,0.0,0.0,0.0,0.0,0.0,0.0,0.0,0.0,0.0,0.0,0.0,0.0,0.0,0.0,0.0,0.0,0.0,0.0,0.0,0.0,0.0,0.0,0.0,0.0,0.0,0.0,-0.1139,-0.1955,-0.2613,-0.3426,-0.4401,-0.4887,-0.5199,-0.5199,-0.5207,-0.5212,-0.5223,-0.5228,-0.5231,-0.5231,-0.5231,-0.5231,-0.5228,-0.7306,-1.176,-1.4409,-1.5762,-1.9472,-2.3793,-2.4625,-2.5263,-2.5616,-2.5709,-2.6302,-2.7044,-2.8238,-2.8905,-2.9422,-3.0056,-3.0338,-3.0594,-3.0737,-3.0595,-3.0453,-3.0311,-3.0153,-2.9916,-2.9664,-2.9316,-2.919,-2.9127,-2.9245,-2.9245,-2.4301,-2.4301,-2.4301,-2.4301,-2.4301,-2.4301,-2.4301,-2.4301,-2.4301,-2.4301,-2.4301,-2.4301,-2.4301,-2.4301,-2.4301,-2.4301,-2.4301,-2.4301,-2.4301,-2.4301,-2.4301,-2.4301,-2.4301,-2.415,-2.4,-2.4301,-2.4301,-2.4301,-2.415,-2.1486,-2.0233,-1.7852,-1.3705,-1.0006,-0.6636,-0.4656,-0.2668,-0.2064,-0.1601,-0.1618,0.0,0.0,0.0,0.0,0.0,0.0,0.0,0.0,0.0,0.0,0.0,0.0,0.0,0.0,0.0,0.0,0.0,0.0,0.0,0.0,0.0,0.0,0.0,0.0,0.0,0.0,0.0,0.0,-0.1281,-0.2245,-0.2587,-0.3538,-0.4654,-0.5001,-0.5154,-0.5152,-0.5162,-0.5173,-0.5191,-0.5205,-0.522,-0.5218,-0.5215,-0.5205,-0.5181,-0.6399,-0.9837,-1.1821,-1.4541,-1.8777,-2.2744,-2.4123,-2.4749,-2.4854,-2.4986,-2.5282,-2.5927,-2.6924,-2.7662,-2.8427,-2.9187,-2.9444,-2.976,-3.0109,-3.0264,-3.0216,-2.9995,-2.9695,-2.9459,-2.9301,-2.9222,-2.9143,-2.9245,-2.9245,-2.9245,-2.4301,-2.4301,-2.4301,-2.4301,-2.4301,-2.4301,-2.4301,-2.4301,-2.4301,-2.4301,-2.4301,-2.4301,-2.4301,-2.4301,-2.4301,-2.4301,-2.4301,-2.4301,-2.4301,-2.4301,-2.4301,-2.4301,-2.3686,-2.3385,-2.3084,-2.3849,-2.2934,-2.2633,-2.3084,-2.0372,-1.7728,-1.2541,-0.7183,0.0,0.0,-0.1539,0.0,0.0,0.0,0.0,0.0,0.0,0.0,0.0,0.0,0.0,0.0,0.0,0.0,0.0,0.0,0.0,0.0,0.0,0.0,0.0,0.0,0.0,0.0,0.0,0.0,0.0,0.0,0.0,0.0,0.0,0.0,0.0,-0.095,-0.1747,-0.2237,-0.3497,-0.4587,-0.4926,-0.5096,-0.5093,-0.5099,-0.5106,-0.5122,-0.513,-0.5154,-0.5178,-0.5178,-0.5167,-0.5101,-0.5195,-0.7187,-0.9756,-1.4211,-1.8608,-2.1863,-2.3791,-2.409,-2.4169,-2.438,-2.4557,-2.4708,-2.5448,-2.6042,-2.7304,-2.846,-2.8624,-2.9115,-2.9564,-2.9822,-2.9743,-2.9569,-2.9238,-2.9143,-2.9174,-2.9143,-2.9245,-2.9245,-2.9245,-2.9245,-2.4301,-2.4301,-2.4301,-2.4301,-2.4301,-2.4301,-2.4301,-2.4301,-2.4301,-2.4301,-2.4301,-2.4301,-2.4301,-2.4301,-2.4301,-2.4301,-2.4301,-2.4301,-2.3849,-2.3849,-2.3849,-2.3084,-2.1717,-2.0662,-2.021,-2.188,-2.0199,-2.021,-2.0662,-1.7159,-1.215,-0.654,-0.3354,0.0,0.0,0.0,0.0,0.0,0.0,0.0,0.0,0.0,0.0,0.0,0.0,0.0,0.0,0.0,0.0,0.0,0.0,0.0,0.0,0.0,0.0,0.0,0.0,0.0,0.0,0.0,0.0,0.0,0.0,0.0,0.0,0.0,0.0,0.0,0.0,-0.1258,-0.2051,-0.284,-0.393,-0.4563,-0.503,-0.503,-0.504,-0.5048,-0.5053,-0.5056,-0.5072,-0.5096,-0.5099,-0.504,-0.4977,-0.4913,-0.67,-0.786,-1.2669,-1.7258,-2.0711,-2.339,-2.3509,-2.3628,-2.3839,-2.3773,-2.388,-2.4402,-2.4929,-2.5932,-2.7302,-2.7991,-2.8415,-2.8865,-2.919,-2.9222,-2.9159,-2.9001,-2.8922,-2.9016,-2.9245,-2.9245,-2.9245,-2.9245,-2.9245,-2.4301,-2.4301,-2.4301,-2.4301,-2.4301,-2.4301,-2.4301,-2.4301,-2.4301,-2.4301,-2.4301,-2.4301,-2.4301,-2.4301,-2.415,-2.4,-2.415,-2.4301,-2.2934,-2.1265,-2.0361,-1.9455,-1.7934,-1.6724,-1.627,-1.6876,-1.5807,-1.5353,-1.4437,-1.1551,-0.8212,-0.5175,-0.1525,0.0,0.0,0.0,0.0,0.0,0.0,0.0,0.0,0.0,0.0,0.0,0.0,0.0,0.0,0.0,0.0,0.0,0.0,0.0,0.0,0.0,0.0,0.0,0.0,0.0,0.0,0.0,0.0,0.0,0.0,0.0,0.0,0.0,0.0,0.0,0.0,-0.1241,-0.2332,-0.3098,-0.3725,-0.435,-0.4966,-0.4974,-0.4982,-0.4993,-0.4998,-0.5008,-0.5022,-0.5035,-0.4998,-0.4929,-0.4857,-0.4791,-0.5484,-0.6621,-1.0721,-1.5602,-1.9285,-2.3023,-2.3206,-2.3364,-2.3378,-2.3219,-2.3074,-2.3257,-2.372,-2.4596,-2.5717,-2.6459,-2.7359,-2.7918,-2.8365,-2.8574,-2.8764,-2.8717,-2.8669,-2.878,-2.889,-2.8985,-2.9165,-2.9245,-2.9245,-2.4301,-2.4301,-2.4301,-2.4301,-2.4301,-2.4301,-2.4301,-2.4301,-2.4301,-2.4301,-2.4301,-2.4301,-2.4301,-2.3849,-2.2633,-2.2332,-2.188,-2.0511,-1.8851,-1.7632,-1.7178,-1.6422,-1.4452,-1.3239,-1.3391,-1.3543,-1.2322,-1.0804,-0.7612,-0.5026,-0.32,-0.244,0.0,0.0,0.0,0.0,0.0,0.0,0.0,0.0,0.0,0.0,0.0,0.0,0.0,0.0,0.0,0.0,0.0,0.0,0.0,0.0,0.0,0.0,0.0,0.0,0.0,0.0,0.0,0.0,0.0,0.0,0.0,0.0,0.0,0.0,0.0,0.0,0.0,-0.1072,-0.1845,-0.2758,-0.3532,-0.4304,-0.4611,-0.477,-0.4932,-0.494,-0.495,-0.4966,-0.4979,-0.4966,-0.4942,-0.486,-0.4778,-0.4722,-0.5121,-0.7244,-1.1122,-1.4483,-1.7847,-2.186,-2.2969,-2.3074,-2.2956,-2.2863,-2.2784,-2.2824,-2.327,-2.3672,-2.4572,-2.5355,-2.6364,-2.7014,-2.7606,-2.8004,-2.8275,-2.829,-2.8243,-2.8432,-2.8653,-2.8559,-2.848,-2.8622,-2.8874,-2.4301,-2.4301,-2.4301,-2.4301,-2.4301,-2.4301,-2.4301,-2.4301,-2.4301,-2.4301,-2.4301,-2.4301,-2.4,-2.2934,-2.0662,-1.9455,-1.8549,-1.7178,-1.5967,-1.4149,-1.3998,-1.3543,-1.2632,-1.0202,-1.005,-1.0354,-0.8677,-0.5181,-0.2745,-0.1373,0.0,0.0,0.0,0.0,0.0,0.0,0.0,0.0,0.0,0.0,0.0,0.0,0.0,0.0,0.0,0.0,0.0,0.0,0.0,0.0,0.0,0.0,0.0,0.0,0.0,0.0,0.0,0.0,0.0,0.0,0.0,0.0,0.0,0.0,0.0,0.0,0.0,0.0,0.0,0.0,-0.1223,-0.1985,-0.2902,-0.3667,-0.4433,-0.4739,-0.4894,-0.4913,-0.491,-0.4924,-0.4934,-0.4916,-0.4887,-0.4791,-0.4704,-0.4661,-0.534,-0.8414,-1.1484,-1.3219,-1.6002,-2.07,-2.2784,-2.2797,-2.2705,-2.2692,-2.2639,-2.2626,-2.2859,-2.2986,-2.3869,-2.4826,-2.5678,-2.635,-2.7026,-2.7547,-2.7784,-2.7927,-2.7848,-2.799,-2.829,-2.8211,-2.8053,-2.8275,-2.8574,-2.4301,-2.4301,-2.4301,-2.4301,-2.4301,-2.4301,-2.4301,-2.4301,-2.415,-2.415,-2.4301,-2.4,-2.2633,-2.0813,-1.9455,-1.7944,-1.5673,-1.7632,-1.4596,-1.1721,-1.0658,-0.9143,-0.732,-0.5647,-0.5491,-0.6402,-0.4119,-0.1832,-0.0458,0.0,0.0,0.0,0.0,0.0,0.0,0.0,0.0,0.0,0.0,0.0,0.0,0.0,0.0,0.0,0.0,0.0,0.0,0.0,0.0,0.0,0.0,0.0,0.0,0.0,0.0,0.0,0.0,0.0,0.0,0.0,0.0,0.0,0.0,0.0,0.0,0.0,0.0,0.0,0.0,0.0,-0.1069,-0.1984,-0.2748,-0.3513,-0.4276,-0.4887,-0.4887,-0.4887,-0.4887,-0.4887,-0.4887,-0.4871,-0.4834,-0.4751,-0.4685,-0.464,-0.4595,-0.7799,-1.1021,-1.2423,-1.5094,-1.9752,-2.2307,-2.2294,-2.2586,-2.2586,-2.2586,-2.2586,-2.2586,-2.2726,-2.3465,-2.4332,-2.5185,-2.5973,-2.6516,-2.6936,-2.7438,-2.7611,-2.7611,-2.7706,-2.7943,-2.8038,-2.799,-2.8132,-2.8275,-2.4301,-2.4301,-2.4301,-2.4301,-2.4301,-2.4301,-2.3385,-2.2169,-2.188,-2.1115,-1.9908,-1.9606,-1.8538,-1.7481,-1.7027,-1.521,-1.2632,-1.2784,-1.0506,-0.8382,-0.732,-0.6257,-0.5192,-0.4276,-0.3665,-0.2748,-0.1526,-0.0458,0.0,0.0,0.0,0.0,0.0,0.0,0.0,0.0,0.0,0.0,0.0,0.0,0.0,0.0,0.0,0.0,0.0,0.0,0.0,0.0,0.0,0.0,0.0,0.0,0.0,0.0,0.0,0.0,0.0,0.0,0.0,0.0,0.0,0.0,0.0,0.0,0.0,0.0,0.0,0.0,0.0,-0.0153,-0.0611,-0.1374,-0.2137,-0.3053,-0.3818,-0.4429,-0.4734,-0.4887,-0.4887,-0.4887,-0.4865,-0.4828,-0.4786,-0.473,-0.4669,-0.4616,-0.4571,-0.7099,-1.0464,-1.2704,-1.4813,-1.8761,-2.1455,-2.1875,-2.2586,-2.2586,-2.2586,-2.2586,-2.2586,-2.2726,-2.3159,-2.3731,-2.454,-2.5485,-2.5932,-2.6472,-2.6844,-2.7359,-2.7406,-2.7485,-2.7548,-2.7611,-2.7769,-2.7911,-2.7959,-2.4301,-2.4301,-2.4301,-2.4,-2.3549,-2.3549,-2.1567,-1.9002,-1.8689,-1.7027,-1.5059,-1.4764,-1.4756,-1.3846,-1.3694,-1.2329,-1.0202,-0.8686,-0.6558,-0.5344,-0.5039,-0.4887,-0.4276,-0.3513,-0.2748,-0.1984,-0.0916,0.0,0.0,0.0,0.0,0.0,0.0,0.0,0.0,0.0,0.0,0.0,0.0,0.0,0.0,0.0,0.0,0.0,0.0,0.0,0.0,0.0,0.0,0.0,0.0,0.0,0.0,0.0,0.0,0.0,0.0,0.0,0.0,0.0,0.0,0.0,0.0,0.0,0.0,0.0,0.0,0.0,0.0,0.0,0.0,-0.0763,-0.1526,-0.2442,-0.336,-0.3971,-0.4581,-0.4887,-0.4884,-0.486,-0.4828,-0.4794,-0.4749,-0.4698,-0.4653,-0.4616,-0.4569,-0.652,-1.0457,-1.3267,-1.5515,-1.82,-2.0883,-2.1875,-2.2586,-2.2586,-2.2586,-2.2586,-2.2866,-2.3006,-2.3424,-2.3703,-2.4108,-2.5346,-2.5917,-2.621,-2.6627,-2.6936,-2.7154,-2.7233,-2.7169,-2.709,-2.7327,-2.7564,-2.7627,-2.4301,-2.4301,-2.4301,-2.2633,-2.0361,-2.021,-1.8538,-1.5665,-1.5362,-1.4756,-1.446,-1.4612,-1.2329,-1.0962,-1.0506,-1.0354,-0.9442,-0.8382,-0.671,-0.4887,-0.4276,-0.3971,-0.3513,-0.2595,-0.1526,-0.1221,-0.0458,0.0,0.0,0.0,0.0,0.0,0.0,0.0,0.0,0.0,0.0,0.0,0.0,0.0,0.0,0.0,0.0,0.0,0.0,0.0,0.0,0.0,0.0,0.0,0.0,0.0,0.0,0.0,0.0,0.0,0.0,0.0,0.0,0.0,0.0,0.0,0.0,0.0,0.0,0.0,0.0,0.0,0.0,0.0,0.0,-0.0611,-0.1526,-0.2442,-0.3207,-0.3971,-0.4581,-0.4887,-0.4863,-0.4831,-0.4799,-0.4759,-0.4714,-0.4661,-0.464,-0.4758,-0.4709,-0.6226,-1.0733,-1.4251,-1.6647,-1.9192,-2.1163,-2.2447,-2.2586,-2.2586,-2.2726,-2.3006,-2.3424,-2.3843,-2.4247,-2.4526,-2.4943,-2.5624,-2.604,-2.6333,-2.675,-2.6889,-2.7027,-2.7027,-2.7043,-2.709,-2.7154,-2.7217,-2.7517,-2.2783,-2.415,-2.247,-2.0813,-1.9606,-1.9304,-1.6573,-1.2632,-1.2025,-1.1114,-0.9751,-0.9447,-0.8534,-0.7168,-0.7168,-0.7168,-0.7168,-0.7168,-0.6257,-0.5039,-0.3971,-0.3665,-0.336,-0.1679,-0.0458,-0.0458,0.0,0.0,0.0,0.0,0.0,0.0,0.0,0.0,0.0,0.0,0.0,0.0,0.0,0.0,0.0,0.0,0.0,0.0,0.0,0.0,0.0,0.0,0.0,0.0,0.0,0.0,0.0,0.0,0.0,0.0,0.0,0.0,0.0,0.0,0.0,0.0,0.0,0.0,0.0,0.0,0.0,0.0,0.0,0.0,0.0,0.0,-0.1221,-0.2137,-0.29,-0.3513,-0.4581,-0.4887,-0.4865,-0.4812,-0.477,-0.4725,-0.4672,-0.4608,-0.4582,-0.4582,-0.4678,-0.5947,-1.0592,-1.3689,-1.6507,-1.9612,-2.1455,-2.2447,-2.2586,-2.2586,-2.2866,-2.3145,-2.3564,-2.4247,-2.4665,-2.5068,-2.5624,-2.5902,-2.6179,-2.6457,-2.6734,-2.6889,-2.7027,-2.7027,-2.7043,-2.7122,-2.7169,-2.7154,-2.7359,-1.9908,-2.203,-1.9455,-1.7934,-1.7329,-1.732,-1.399,-0.8838,-0.8686,-0.7472,-0.5497,-0.5039,-0.5039,-0.5039,-0.5192,-0.4887,-0.5192,-0.5192,-0.4887,-0.4734,-0.3971,-0.336,-0.2595,-0.1069,0.0,0.0,0.0,0.0,0.0,0.0,0.0,0.0,0.0,0.0,0.0,0.0,0.0,0.0,0.0,0.0,0.0,0.0,0.0,0.0,0.0,0.0,0.0,0.0,0.0,0.0,0.0,0.0,0.0,0.0,0.0,0.0,0.0,0.0,0.0,0.0,0.0,0.0,0.0,0.0,0.0,0.0,0.0,0.0,0.0,0.0,0.0,0.0,0.0,-0.2137,-0.2595,-0.3205,-0.4426,-0.4876,-0.4839,-0.4783,-0.4728,-0.4669,-0.4611,-0.4561,-0.4547,-0.4398,-0.5239,-0.6371,-0.9188,-1.2423,-1.6086,-2.0184,-2.1735,-2.2586,-2.2586,-2.2586,-2.2726,-2.2866,-2.3703,-2.4386,-2.4665,-2.5082,-2.604,-2.6318,-2.6318,-2.6596,-2.6889,-2.7027,-2.7027,-2.7027,-2.7027,-2.7075,-2.709,-2.7059,-2.7154,-1.521,-1.5513,-1.521,-1.3391,-1.1418,-1.081,-0.9594,-0.5952,-0.5802,-0.5344,-0.5192,-0.5039,-0.5344,-0.4887,-0.5494,-0.5039,-0.5039,-0.5039,-0.4887,-0.4429,-0.3513,-0.229,-0.1679,-0.0763,0.0,0.0,0.0,0.0,0.0,0.0,0.0,0.0,0.0,0.0,0.0,0.0,0.0,0.0,0.0,0.0,0.0,0.0,0.0,0.0,0.0,0.0,0.0,0.0,0.0,0.0,0.0,0.0,0.0,0.0,0.0,0.0,0.0,0.0,0.0,0.0,0.0,0.0,0.0,0.0,0.0,0.0,0.0,0.0,0.0,0.0,0.0,0.0,0.0,-0.2137,-0.2595,-0.3207,-0.4421,-0.4841,-0.4786,-0.4728,-0.4669,-0.4611,-0.4563,-0.4537,-0.4392,-0.4392,-0.5381,-0.7639,-1.1015,-1.3548,-1.6788,-2.0464,-2.1735,-2.2586,-2.2586,-2.2586,-2.2586,-2.2586,-2.355,-2.4108,-2.4386,-2.5222,-2.6333,-2.6873,-2.6734,-2.6734,-2.7027,-2.7027,-2.7027,-2.7027,-2.7027,-2.7027,-2.7027,-2.7027,-2.7027,-1.8549,-2.0059,-1.8236,-1.5513,-1.2784,-1.248,-1.0658,-0.7777,-0.5799,-0.5799,-0.7472,-0.7625,-0.7625,-0.7625,-0.7621,-0.7621,-0.732,-0.5799,-0.5039,-0.4734,-0.3818,-0.2442,-0.1374,-0.244,-0.183,0.0,0.0,0.0,0.0,0.0,0.0,0.0,0.0,0.0,0.0,0.0,0.0,0.0,0.0,0.0,0.0,0.0,0.0,0.0,0.0,0.0,0.0,0.0,0.0,0.0,0.0,0.0,0.0,0.0,0.0,0.0,0.0,0.0,0.0,0.0,0.0,0.0,0.0,0.0,0.0,0.0,0.0,0.0,0.0,0.0,0.0,0.0,0.0,-0.2137,-0.2595,-0.3197,-0.4685,-0.4812,-0.4759,-0.4685,-0.4635,-0.46,-0.4542,-0.4537,-0.4392,-0.4817,-0.5947,-0.9329,-1.2845,-1.5103,-1.7639,-2.0464,-2.2447,-2.2586,-2.2586,-2.2586,-2.2586,-2.2586,-2.3145,-2.3411,-2.4108,-2.5082,-2.6056,-2.6889,-2.6889,-2.7027,-2.7027,-2.7027,-2.7027,-2.7027,-2.7027,-2.7027,-2.7027,-2.7027,-2.7027,-1.9606,-2.1428,-1.9142,-1.6724,-1.4756,-1.4612,-1.3088,-1.081,-0.8386,-0.9143,-1.0506,-1.0962,-1.0506,-0.9746,-0.9594,-0.9138,-0.8077,-0.671,-0.6104,-0.6104,-0.5952,-0.4729,-0.4117,-0.4571,-0.3505,-0.1525,0.0,0.0,0.0,0.0,0.0,0.0,0.0,0.0,0.0,0.0,0.0,0.0,0.0,0.0,0.0,0.0,0.0,0.0,0.0,0.0,0.0,0.0,0.0,0.0,0.0,0.0,0.0,0.0,0.0,0.0,0.0,0.0,0.0,0.0,0.0,0.0,0.0,0.0,0.0,0.0,0.0,0.0,0.0,0.0,0.0,0.0,0.0,-0.1679,-0.2433,-0.3329,-0.4507,-0.4773,-0.4722,-0.464,-0.4608,-0.4579,-0.4545,-0.4534,-0.4817,-0.5947,-0.7785,-1.0322,-1.426,-1.6788,-1.834,-2.1023,-2.2586,-2.2586,-2.2586,-2.2586,-2.2586,-2.2586,-2.2686,-2.2952,-2.3773,-2.4746,-2.5748,-2.6734,-2.6857,-2.7012,-2.7012,-2.6996,-2.7012,-2.7027,-2.7027,-2.7027,-2.7027,-2.6996,-2.698,-1.5059,-1.5059,-1.5067,-1.521,-1.4915,-1.4907,-1.4756,-1.4301,-1.3694,-1.3694,-1.4149,-1.4301,-1.2784,-1.0506,-1.0804,-0.9442,-0.6257,-0.823,-0.9594,-1.0202,-1.081,-1.1569,-1.05,-0.7156,-0.533,-0.4267,-0.1982,0.0,0.0,0.0,0.0,0.0,0.0,0.0,0.0,0.0,0.0,0.0,0.0,0.0,0.0,0.0,0.0,0.0,0.0,0.0,0.0,0.0,0.0,0.0,0.0,0.0,0.0,0.0,0.0,0.0,0.0,0.0,0.0,0.0,0.0,0.0,0.0,0.0,0.0,0.0,0.0,0.0,0.0,0.0,0.0,0.0,0.0,-0.0457,-0.2264,-0.3604,-0.4639,-0.4701,-0.4648,-0.4616,-0.4574,-0.4395,-0.4398,-0.4817,-0.6088,-0.7781,-0.9334,-1.243,-1.5946,-1.82,-1.9612,-2.1023,-2.2447,-2.2586,-2.2586,-2.2586,-2.2586,-2.2547,-2.2441,-2.2831,-2.3371,-2.4244,-2.5118,-2.6118,-2.681,-2.6857,-2.6996,-2.6933,-2.6933,-2.698,-2.7027,-2.7027,-2.6996,-2.6933,-2.6917,-2.0662,-2.0662,-2.0662,-1.9595,-1.7783,-1.7632,-1.7632,-1.7329,-1.5513,-1.5816,-1.7329,-1.7632,-1.6876,-1.611,-1.5807,-1.505,-1.3998,-1.2936,-1.3838,-1.5656,-1.5656,-1.6573,-1.7329,-1.1253,-0.7916,-0.7612,-0.6703,-0.6094,-0.6094,-0.6094,-0.5028,-0.3353,-0.3048,-0.2135,0.0,0.0,0.0,0.0,0.0,0.0,0.0,0.0,0.0,0.0,0.0,0.0,0.0,0.0,0.0,0.0,0.0,0.0,0.0,0.0,0.0,0.0,0.0,0.0,0.0,0.0,0.0,0.0,0.0,0.0,0.0,0.0,0.0,0.0,0.0,0.0,0.0,-0.0455,-0.0902,-0.1345,-0.2675,-0.3558,-0.3994,-0.4378,-0.4614,-0.4714,-0.4692,-0.4398,-0.4959,-0.5805,-0.8063,-0.9334,-1.2289,-1.6226,-1.7359,-1.9601,-2.0883,-2.2014,-2.2521,-2.2494,-2.2547,-2.2547,-2.2547,-2.2428,-2.227,-2.2492,-2.2877,-2.3742,-2.45,-2.5462,-2.6422,-2.6574,-2.6838,-2.6806,-2.6775,-2.6948,-2.7027,-2.6948,-2.6854,-2.6822,-2.6743,-2.4301,-2.4301,-2.4301,-2.2934,-2.1115,-2.0964,-2.0964,-2.0662,-1.8689,-1.8851,-2.0662,-2.0964,-2.0361,-1.9606,-1.9455,-1.8851,-1.7934,-1.8095,-1.87,-2.0361,-1.9293,-1.9757,-2.0372,-1.5665,-1.2177,-1.1266,-1.0202,-0.9746,-0.9594,-0.9594,-0.8681,-0.6852,-0.6395,-0.5181,0.0,-0.3049,-0.2287,-0.1678,-0.1525,-0.0915,0.0,0.0,0.0,0.0,0.0,-0.0611,-0.1373,-0.1526,-0.1066,0.0,0.0,0.0,0.0,0.0,0.0,0.0,0.0,0.0,0.0,0.0,0.0,0.0,0.0,0.0,0.0,0.0,0.0,0.0,0.0,-0.0453,-0.0754,-0.1198,-0.1784,-0.2652,-0.3373,-0.3947,-0.3924,-0.4328,-0.4854,-0.565,-0.6776,-0.7199,-0.7744,-0.8713,-1.0785,-1.2138,-1.49,-1.7955,-1.921,-2.0992,-2.2172,-2.231,-2.231,-2.223,-2.2165,-2.2125,-2.2138,-2.2059,-2.2089,-2.2172,-2.2564,-2.3268,-2.4017,-2.4859,-2.5807,-2.6276,-2.6554,-2.6601,-2.657,-2.6648,-2.6727,-2.6727,-2.668,-2.6585,-2.6459,-2.4301,-2.4301,-2.4301,-2.415,-2.3849,-2.3849,-2.415,-2.3849,-2.3699,-2.3385,-2.3536,-2.4,-2.2332,-2.021,-2.0059,-1.8095,-1.7178,-2.1115,-2.3385,-2.3549,-2.2332,-2.1892,-2.1892,-1.9465,-1.7036,-1.4604,-1.1569,-1.0202,-1.0658,-1.0658,-1.0354,-0.9898,-0.9594,-0.929,-0.929,-0.8681,-0.7616,-0.5482,-0.4873,-0.3505,0.0,0.0,0.0,0.0,0.0,-0.1977,-0.4713,-0.4708,-0.3474,0.0,0.0,0.0,0.0,0.0,0.0,0.0,0.0,0.0,0.0,0.0,0.0,0.0,0.0,0.0,0.0,0.0,-0.0296,-0.0887,-0.1034,-0.1328,-0.192,-0.2645,-0.3075,-0.3377,-0.4919,-0.53,-0.4837,-0.4676,-0.5637,-0.8512,-1.0899,-1.3034,-1.3073,-1.2888,-1.3805,-1.5606,-1.7187,-1.8552,-2.0753,-2.1578,-2.1756,-2.189,-2.1983,-2.1927,-2.1822,-2.1703,-2.1837,-2.1824,-2.1718,-2.1798,-2.2303,-2.2693,-2.3432,-2.4294,-2.5359,-2.564,-2.5915,-2.6001,-2.6033,-2.6301,-2.6317,-2.6348,-2.6143,-2.5922,-2.5922,-2.4301,-2.4301,-2.4301,-2.4301,-2.4301,-2.4301,-2.4301,-2.4301,-2.4301,-2.4301,-2.4301,-2.4301,-2.3699,-2.2934,-2.2783,-2.2018,-2.1567,-2.3235,-2.4301,-2.415,-2.3248,-2.2796,-2.2495,-2.0987,-1.9627,-1.8549,-1.7036,-1.6279,-1.6279,-1.6279,-1.5218,-1.308,-1.2936,-1.2025,-1.005,-0.9746,-0.929,-0.8529,-0.8221,-0.7764,-0.6855,-0.6551,-0.6551,-0.6537,-0.6294,-0.6684,-0.7723,-0.7667,-0.6911,-0.6341,-0.6012,-0.4975,-0.3089,-0.1035,0.0,0.0,0.0,0.0,0.0,0.0,0.0,0.0,0.0,0.0,0.0,0.0,0.0,-0.0883,-0.1177,-0.1472,-0.2637,-0.4882,-0.5781,-0.4758,-0.7649,-0.9437,-0.7806,-0.9,-1.035,-1.1603,-1.2697,-1.291,-1.2992,-1.4617,-1.6082,-1.6844,-1.899,-2.0347,-2.1556,-2.1837,-2.1837,-2.1824,-2.1797,-2.1771,-2.1532,-2.1242,-2.1123,-2.111,-2.1044,-2.1448,-2.1879,-2.2347,-2.309,-2.4025,-2.4634,-2.4895,-2.514,-2.5208,-2.5559,-2.5938,-2.5922,-2.5733,-2.5528,-2.5389,-2.5584,-2.4301,-2.4301,-2.4301,-2.4301,-2.4301,-2.4301,-2.4301,-2.4301,-2.4301,-2.4301,-2.4301,-2.4301,-2.4301,-2.4287,-2.409,-2.3997,-2.3997,-2.3997,-2.3997,-2.3849,-2.3106,-2.2809,-2.2648,-2.147,-2.0713,-2.0713,-2.0266,-1.983,-1.9681,-1.9382,-1.8178,-1.6375,-1.6076,-1.5178,-1.3373,-1.3074,-1.2324,-1.1419,-1.1269,-1.0669,-0.9464,-0.9469,-1.0622,-1.2451,-1.2401,-1.187,-1.0715,-1.0492,-0.9889,-0.8913,-0.8709,-0.7835,-0.6002,-0.4007,-0.3018,-0.3047,-0.2198,-0.1619,-0.1618,-0.1618,-0.1175,-0.0293,-0.0877,0.0,-0.0291,-0.029,-0.0724,-0.1449,-0.1736,-0.3594,-0.57,-0.8388,-0.933,-0.8043,-1.0466,-1.1851,-1.1035,-1.1658,-1.3246,-1.4284,-1.4367,-1.469,-1.6031,-1.738,-1.855,-1.8614,-2.0182,-2.1096,-2.1387,-2.1387,-2.136,-2.1373,-2.1387,-2.1321,-2.1162,-2.0741,-2.0543,-2.0543,-2.067,-2.0951,-2.1432,-2.1966,-2.2563,-2.3564,-2.4134,-2.4388,-2.4533,-2.4612,-2.4659,-2.5022,-2.518,-2.5022,-2.4928,-2.4643,-2.4879,-2.4261,-2.4248,-2.4261,-2.4235,-2.4248,-2.4235,-2.4248,-2.4208,-2.4235,-2.4248,-2.4221,-2.4235,-2.4248,-2.4195,-2.372,-2.3602,-2.3457,-2.3483,-2.3496,-2.3496,-2.2731,-2.227,-2.2137,-2.1386,-2.1108,-2.1033,-2.0875,-2.0561,-1.9843,-1.9237,-1.8935,-1.88,-1.8487,-1.8622,-1.8352,-1.8195,-1.7145,-1.4494,-1.4202,-1.2889,-1.0252,-0.9814,-1.2606,-1.7067,-1.7962,-1.6274,-1.3862,-1.3424,-1.2085,-0.9032,-0.9176,-0.8983,-0.8614,-0.8472,-0.8442,-0.8205,-0.6079,-0.469,-0.4682,-0.4677,-0.3638,-0.1443,-0.3301,-0.3578,-0.1558,-0.1683,-0.2381,-0.2828,-0.3919,-0.6356,-1.0926,-1.2236,-1.2604,-1.2169,-1.2715,-1.319,-1.2927,-1.345,-1.4351,-1.6516,-1.7167,-1.7938,-2.0465,-2.1136,-2.0757,-2.0588,-2.0717,-2.0846,-2.0859,-2.082,-2.0806,-2.0806,-2.0767,-2.0622,-2.0147,-2.0121,-2.0081,-2.0219,-2.0298,-2.0427,-2.0991,-2.158,-2.2211,-2.2995,-2.3674,-2.3937,-2.3857,-2.3949,-2.4059,-2.4091,-2.428,-2.4296,-2.4186,-2.3965,-2.4759,-2.3681,-2.3681,-2.3681,-2.3681,-2.3681,-2.3681,-2.3681,-2.3681,-2.3681,-2.3681,-2.3681,-2.3681,-2.3681,-2.3654,-2.3523,-2.3444,-2.3444,-2.3444,-2.3444,-2.3417,-2.2932,-2.2801,-2.2944,-2.1894,-2.1466,-2.1616,-2.1062,-2.0785,-2.0648,-1.9931,-1.9487,-1.9441,-1.8727,-1.8366,-1.8504,-1.8356,-1.7846,-1.6994,-1.6984,-1.6558,-1.5706,-1.5555,-1.6369,-1.7821,-1.8081,-1.766,-1.6807,-1.653,-1.6065,-1.5443,-1.5186,-1.4319,-1.2299,-1.2167,-1.1224,-0.9193,-0.8262,-0.7831,-0.7613,-0.7613,-0.7148,-0.6233,-0.6771,-0.69,-0.6326,-0.671,-0.7394,-0.8234,-0.9364,-1.0492,-1.2709,-1.444,-1.451,-1.3062,-1.6463,-1.7717,-1.6181,-1.764,-1.8792,-1.9889,-1.9598,-2.0173,-2.0692,-2.0938,-2.0912,-2.0806,-2.0635,-2.0516,-2.0503,-2.0358,-2.0239,-2.0226,-2.0226,-2.0147,-2.0029,-1.9936,-2.0099,-2.0113,-2.0429,-2.0785,-2.158,-2.2196,-2.2781,-2.2723,-2.344,-2.3807,-2.3459,-2.368,-2.3917,-2.368,-2.3617,-2.3633,-2.3554,-2.3333,-2.4496,-2.3444,-2.3444,-2.3444,-2.3444,-2.3444,-2.3444,-2.3444,-2.3444,-2.3444,-2.3444,-2.3417,-2.3193,-2.3088,-2.3101,-2.3088,-2.3088,-2.3101,-2.3101,-2.3101,-2.3074,-2.2916,-2.2916,-2.3048,-2.2169,-2.2041,-2.2192,-2.1639,-2.1367,-2.1037,-2.0644,-2.0218,-2.0025,-1.9078,-1.8578,-1.8697,-1.8296,-1.8081,-1.8081,-1.8081,-1.8276,-1.8657,-1.8773,-1.8762,-1.8635,-1.8359,-1.8221,-1.8199,-1.7817,-1.7627,-1.7648,-1.7542,-1.6664,-1.4916,-1.4916,-1.4132,-1.2552,-1.2225,-1.1593,-1.0287,-1.0145,-0.9576,-0.803,-0.9273,-0.957,-0.8758,-0.9295,-1.0981,-1.3276,-1.506,-1.5949,-1.6211,-1.74,-1.7737,-1.6697,-1.8756,-2.0201,-1.8568,-1.9713,-2.0661,-2.0714,-2.0595,-2.049,-2.049,-2.049,-2.049,-2.0464,-2.0358,-2.0239,-2.0226,-2.0094,-2.0113,-1.9963,-1.9752,-1.9646,-1.9607,-1.962,-1.9607,-1.9728,-2.0226,-2.059,-2.1167,-2.1922,-2.2586,-2.273,-2.3078,-2.3254,-2.2939,-2.327,-2.3459,-2.3317,-2.3175,-2.3175,-2.3175,-2.3033,-2.4803,-2.3351,-2.3364,-2.3351,-2.3364,-2.3351,-2.3351,-2.3338,-2.3351,-2.3364,-2.3364,-2.3285,-2.2824,-2.26,-2.2586,-2.26,-2.2613,-2.2613,-2.2586,-2.26,-2.2613,-2.256,-2.256,-2.2613,-2.2521,-2.2534,-2.26,-2.2434,-2.2014,-2.1518,-2.148,-2.1175,-2.0428,-1.9706,-1.9275,-1.9158,-1.8437,-1.8158,-1.8297,-1.82,-1.8713,-1.9659,-1.9758,-1.9746,-1.9587,-1.8924,-1.8507,-1.8372,-1.781,-1.7299,-1.7109,-1.7109,-1.6982,-1.6781,-1.6739,-1.6824,-1.6871,-1.6703,-1.5649,-1.3053,-1.2638,-1.1462,-0.8852,-1.1171,-1.1893,-1.0035,-1.0707,-1.3338,-1.7231,-1.9716,-2.0214,-2.0625,-2.0484,-2.033,-1.9894,-2.0445,-2.0661,-2.0311,-2.0358,-2.0266,-2.0002,-2.0068,-2.0113,-2.0042,-2.0055,-2.0029,-2.0081,-2.0002,-1.9936,-1.9936,-1.987,-1.9818,-1.9765,-1.9475,-1.9158,-1.9145,-1.9092,-1.9171,-1.9145,-1.9696,-2.0224,-2.0607,-2.1421,-2.2155,-2.2498,-2.2719,-2.3002,-2.3009,-2.3009,-2.3056,-2.297,-2.2954,-2.2907,-2.3009,-2.3361,-2.5656,-2.2784,-2.2784,-2.2784,-2.2784,-2.2784,-2.2784,-2.2771,-2.2784,-2.2784,-2.2784,-2.2771,-2.2652,-2.2586,-2.2586,-2.2586,-2.2586,-2.2586,-2.2586,-2.2586,-2.256,-2.2349,-2.2362,-2.2534,-2.2099,-2.2138,-2.2521,-2.2349,-2.2224,-2.2294,-2.2307,-2.1912,-2.0992,-2.0098,-1.9688,-1.9751,-1.888,-1.8642,-1.9209,-1.9706,-1.9997,-2.0157,-2.0296,-2.0051,-1.9884,-1.9575,-1.9221,-1.8485,-1.8339,-1.7912,-1.732,-1.7186,-1.7215,-1.6982,-1.6961,-1.6908,-1.6781,-1.6718,-1.6427,-1.5769,-1.5501,-1.4951,-1.4158,-1.4816,-1.4971,-1.4583,-1.5591,-1.7172,-1.8589,-1.9648,-2.02,-2.02,-2.0187,-2.0174,-2.0174,-2.0174,-2.016,-2.0094,-2.0081,-2.0042,-2.0002,-2.0099,-2.0086,-2.0099,-2.0099,-2.0073,-1.991,-1.9778,-1.9525,-1.9485,-1.9422,-1.9303,-1.9264,-1.9185,-1.9092,-1.9092,-1.9092,-1.9092,-1.9092,-2.0023,-2.0612,-2.0979,-2.1818,-2.2641,-2.2641,-2.2891,-2.2891,-2.3009,-2.3009,-2.3009,-2.3009,-2.3009,-2.3009,-2.3243,-2.4382,-2.7432,-2.2586,-2.2586,-2.2586,-2.2586,-2.2586,-2.2586,-2.2586,-2.256,-2.2296,-2.2178,-2.2178,-2.2178,-2.2178,-2.2178,-2.2178,-2.2178,-2.2178,-2.2178,-2.2178,-2.2165,-2.2006,-2.2099,-2.2336,-2.2059,-2.2138,-2.2547,-2.2415,-2.2428,-2.2573,-2.2586,-2.2229,-2.1796,-2.1229,-2.0804,-2.0664,-1.9599,-1.938,-2.0033,-2.0246,-2.0544,-2.1067,-2.0805,-2.068,-2.0409,-2.0005,-1.9471,-1.8931,-1.8666,-1.8168,-1.7161,-1.7258,-1.7031,-1.6571,-1.6517,-1.6517,-1.639,-1.6285,-1.6221,-1.6221,-1.601,-1.582,-1.5703,-1.5777,-1.5932,-1.6069,-1.7257,-1.8173,-1.8786,-1.9527,-2.0099,-2.0099,-2.0099,-2.0099,-2.0099,-2.0099,-1.9936,-1.9804,-1.9778,-1.9725,-1.9593,-1.958,-1.958,-1.958,-1.9567,-1.958,-1.9567,-1.9448,-1.933,-1.9316,-1.9185,-1.9092,-1.9092,-1.9092,-1.9092,-1.9092,-1.9329,-1.9447,-1.9447,-2.0626,-2.1332,-2.145,-2.217,-2.2891,-2.3009,-2.3009,-2.3009,-2.3009,-2.3009,-2.3009,-2.3009,-2.3009,-2.3579,-2.4499,-2.5649,-2.8398,-2.2586,-2.2573,-2.2547,-2.2521,-2.2521,-2.2481,-2.2468,-2.2415,-2.1927,-2.1837,-2.1837,-2.1837,-2.1837,-2.1837,-2.1837,-2.1837,-2.1837,-2.1837,-2.1677,-2.1637,-2.1637,-2.1756,-2.1954,-2.1967,-2.2099,-2.2323,-2.2336,-2.2336,-2.2336,-2.2323,-2.2349,-2.2323,-2.2336,-2.1908,-2.1355,-2.0307,-2.0057,-2.061,-2.0506,-2.0789,-2.1824,-2.1466,-2.1176,-2.1084,-2.0199,-1.9776,-1.956,-1.8918,-1.8181,-1.7105,-1.7183,-1.6821,-1.5851,-1.5788,-1.5862,-1.5767,-1.5598,-1.5634,-1.5623,-1.5355,-1.5378,-1.5312,-1.5612,-1.5874,-1.6359,-1.7162,-1.7919,-1.8523,-1.932,-1.9857,-1.9857,-1.9831,-1.9818,-1.9844,-1.9844,-1.9752,-1.938,-1.9354,-1.9263,-1.9158,-1.9092,-1.9119,-1.9145,-1.9132,-1.9145,-1.9106,-1.9158,-1.9106,-1.9119,-1.9092,-1.9092,-1.9092,-1.9092,-1.9092,-1.9092,-1.9565,-1.9919,-2.0037,-2.1097,-2.1905,-2.1905,-2.2523,-2.2891,-2.3009,-2.3009,-2.3126,-2.3579,-2.3462,-2.3931,-2.4516,-2.4616,-2.4967,-2.6813,-2.7723,-2.9322,-2.2586,-2.256,-2.2323,-2.2217,-2.2204,-2.1967,-2.1983,-2.1848,-2.1877,0.0,0.0,-2.1837,-2.1837,-2.1837,-2.1837,-2.1837,-2.1837,-2.1837,-2.1571,-2.1228,-2.1228,-2.1123,-2.107,-2.107,-2.1097,-2.1149,-2.1149,-2.1149,-2.1149,-2.1149,-2.1149,-2.1149,-2.1149,-2.1018,-2.0875,-2.0052,-2.0265,-2.1404,-2.1569,-2.165,-2.1824,-2.165,-2.14,-2.0925,-2.073,-2.0098,-1.9012,-1.8863,-1.8343,-1.7455,-1.7172,-1.6623,-1.5848,-1.5539,-1.5164,-1.4523,-1.471,-1.4795,-1.4805,-1.4943,-1.5101,-1.541,-1.5453,-1.5744,-1.6553,-1.7128,-1.764,-1.8103,-1.8735,-1.9251,-1.9251,-1.9251,-1.9251,-1.9251,-1.9251,-1.9237,-1.9185,-1.9158,-1.9158,-1.9106,-1.9092,-1.9092,-1.9092,-1.9092,-1.9092,-1.9092,-1.9092,-1.9092,-1.9092,-1.9092,-1.9092,-1.9092,-1.9092,-1.9092,-1.9092,-1.9565,-2.0037,-2.0037,-2.1097,-2.1905,-2.2022,-2.2523,-2.2891,-2.3126,-2.3009,-2.3931,-2.5533,-2.5999,-2.6678,-2.8669,-2.8995,-2.9131,-2.9688,-3.1299,-3.3473,-2.2138,-2.2125,-2.198,-2.1914,0.0,-2.1769,-2.1532,-2.1268,-2.1255,-2.1268,-2.1268,-2.1268,-2.1268,-2.1268,-2.1268,-2.1268,-2.1268,-2.1268,-2.1189,-2.1057,-2.1057,-2.1057,-2.094,-2.0927,-2.1005,-2.1268,-2.1281,-2.1281,-2.1268,-2.1268,-2.1281,-2.1281,-2.1281,-2.1123,-2.0859,-2.0731,-2.1451,-2.3094,-2.1811,-2.111,-2.1255,-2.111,-2.0899,-2.0622,-2.049,0.0,0.0,0.0,0.0,0.0,0.0,0.0,0.0,-1.5599,0.0,-1.4631,-1.4699,-1.4742,-1.4753,-1.4853,-1.5197,-1.5657,-1.569,-1.5874,-1.6314,-1.6895,-1.7564,-1.8284,-1.8648,-1.8934,-1.9066,-1.9092,-1.9092,-1.9092,-1.9092,-1.9092,-1.9092,-1.9092,-1.9092,-1.9092,-1.9092,-1.9092,-1.9092,-1.9092,-1.9092,-1.9092,-1.9092,-1.9092,-1.9092,-1.9092,-1.9092,-1.9092,-1.9092,-1.9092,-1.9092,-1.9565,-2.0037,-2.0154,-2.1082,-2.1788,-2.1905,-2.2523,-2.3361,-2.4499,-2.485,-2.5649,-2.7839,-2.8533,-2.888,-2.9918,-3.0264,-3.0954,-3.3724,-3.4977,-3.6249,-2.1837,-2.1837,-2.1637,-2.1624,-2.1611,-2.1558,-2.1268,-2.0833,-2.0833,-2.0833,-2.0833,-2.0833,-2.0833,-2.0833,-2.0833,-2.0833,-2.0833,-2.0833,-2.0806,-2.0754,-2.0754,-2.0859,-2.09,-2.1031,-2.1162,-2.1492,-2.1373,-2.1506,-2.1373,-2.1373,-2.1373,-2.1373,-2.1373,-2.1398,-2.1483,0.0,0.0,0.0,-2.3198,-2.208,-2.2264,-2.2023,-2.1825,-2.1712,-2.1485,0.0,-2.1273,-2.1273,-2.0888,-2.0101,-1.9061,0.0,0.0,0.0,0.0,0.0,0.0,0.0,0.0,0.0,0.0,0.0,-1.5883,-1.604,-1.6134,-1.6908,-1.7697,-1.8486,-1.8618,-1.875,-1.8908,-1.8934,-1.8947,-1.9,-1.9013,-1.904,-1.9079,-1.9092,-1.9092,-1.9092,-1.9092,-1.9092,-1.9092,-1.9092,-1.9092,-1.9092,-1.9092,-1.9092,-1.9092,-1.9092,-1.9092,-1.9092,-1.9092,-1.9092,-1.921,-1.9787,-2.0258,-2.0508,-2.145,-2.2273,-2.2844,-2.3446,-2.4499,-2.6813,-2.7259,-2.807,-3.0494,-3.0954,-3.1184,-3.1643,-3.1872,-3.2925,-3.684,-3.7657,-3.7769,-2.1837,-2.1677,-2.1439,-2.1334,-2.1307,-2.1057,-2.0912,-2.0833,-2.0833,-2.0833,-2.0833,-2.0833,-2.0833,-2.0833,-2.0833,-2.0833,-2.0833,-2.0833,-2.0701,-2.045,-2.045,-2.0345,-2.016,-2.0147,-2.0174,-2.0325,-2.02,-2.02,-2.0213,-2.0213,-2.0325,-2.02,-2.02,-2.1392,-2.3658,-2.6588,-2.7992,-2.8132,-2.7957,-2.7741,-2.7315,-2.7244,-2.6909,-2.6256,-2.6168,-2.5991,-2.5809,-2.5791,-2.5596,-2.5109,-2.2717,-2.1198,-2.0606,-1.8011,-1.6197,0.0,-1.4915,0.0,0.0,0.0,0.0,0.0,0.0,0.0,0.0,-1.7385,-1.7866,-1.8016,-1.838,-1.8591,-1.8367,-1.8341,-1.8446,-1.8697,-1.8723,-1.8829,-1.9053,-1.9092,-1.9092,-1.9092,-1.9092,-1.9092,-1.9079,-1.9092,-1.9092,-1.9092,-1.9066,-1.9157,-1.9079,-1.9184,-1.9302,-1.9092,-1.9092,-1.9787,-2.0258,-2.0612,-2.12,-2.1788,-2.2625,-2.3579,-2.5632,-2.6115,-2.6911,-2.9226,-2.9803,-3.0724,-3.3108,-3.3473,-3.4271,-3.6022,-3.6362,-3.6727,-3.7518,-3.7769,-3.7769,-2.1228,-2.1202,-2.1097,-2.1619,-2.2558,-2.2414,-2.1602,-2.0371,-2.0358,-2.0358,-2.0358,-2.0358,-2.0358,-2.0385,-2.053,-2.0582,-2.0609,-2.0767,-2.0767,-2.0648,-2.0635,-2.0582,-2.0464,-2.0464,-2.0464,-2.0464,-2.0464,-2.0464,-2.059,-2.1967,-2.2709,-2.2709,-2.4203,-2.5887,-2.7703,-2.925,-3.0072,-3.0234,-3.0309,-2.9448,-2.7909,-2.7768,-2.7586,-2.7258,-2.724,-2.7149,-2.7104,-2.7104,-2.7013,-2.6712,-2.4919,-2.327,-2.2199,-1.9933,-1.7991,0.0,0.0,0.0,0.0,0.0,0.0,0.0,0.0,0.0,0.0,0.0,-1.7247,-1.7299,-1.8143,-1.8486,-1.8149,-1.8255,-1.8156,-1.786,-1.7958,-1.8064,-1.8341,-1.8512,-1.8618,-1.8618,-1.8763,-1.8855,-1.8855,-1.8855,-1.8921,-1.9066,-1.963,-2.0156,-2.066,-2.1401,-2.191,-2.2211,-2.2828,-2.3413,-2.3647,-2.4215,-2.4798,-2.5381,-2.6097,-2.6813,-2.7954,-2.8417,-2.9457,-3.1758,-3.2445,-3.3131,-3.5569,-3.6022,-3.6362,-3.7405,-3.7769,-3.7769,-3.7769,-3.7769,-3.7769,-2.2391,-2.2391,-2.1995,-2.2804,-2.4353,-2.4231,-2.3318,-2.1812,-2.1812,-2.1523,-2.1098,-2.1059,-2.0716,-2.0524,-2.0553,-2.058,-2.0467,-2.0696,-2.0757,-2.0635,-2.0635,-2.0877,-2.1514,-2.1318,-2.1699,-2.225,-2.2122,-2.2122,-2.2504,-2.4124,-2.5081,-2.5397,-2.8486,-3.0259,-3.0967,-3.1232,-3.1575,-3.2143,-3.238,-3.1405,-2.9453,-2.9216,-2.9118,-2.9021,-2.9021,-2.9021,-2.9021,-2.9021,-2.8863,-2.8728,-2.6892,-2.5125,-2.3837,-2.143,0.0,0.0,0.0,0.0,0.0,0.0,0.0,0.0,0.0,-1.6323,-1.6202,0.0,-1.6861,0.0,-1.8092,-1.8327,-1.7844,-1.7994,0.0,0.0,-1.7565,-1.7831,-1.8309,-1.8557,-1.8638,-1.8789,-1.8894,-1.9071,-1.9024,-1.9024,-1.9132,-1.9402,-2.0672,-2.1781,-2.2181,-2.3515,-2.4564,-2.4605,-2.5427,-2.6498,-2.6365,-2.7129,-2.778,-2.8725,-2.9206,-2.9803,-3.0358,-3.0818,-3.1987,-3.4271,-3.4863,-3.5544,-3.7292,-3.7769,-3.7657,-3.7769,-3.7527,-3.7587,-3.7743,-3.7769,-3.7769,-2.6872,-2.6819,-2.5279,-2.5395,-2.6371,-2.5894,-2.6086,-2.6766,-2.6766,-2.5984,-2.4492,-2.3728,-2.2869,-2.1757,-2.1482,0.0,-2.0635,-2.0545,-2.0373,-2.0055,-2.0055,-2.128,-2.3457,-2.3026,-2.4255,-2.6855,-2.5925,-2.5943,-2.6697,-2.5705,-2.5531,-2.6681,-3.0746,-3.2436,-3.1729,-3.2542,-3.3352,-3.375,-3.4702,-3.519,-3.4928,-3.4466,-3.3982,-3.3429,-3.352,-3.3406,-3.352,-3.3406,-3.3313,-3.2716,-2.9081,-2.6735,-2.6047,0.0,0.0,0.0,0.0,0.0,0.0,0.0,0.0,0.0,0.0,0.0,0.0,0.0,0.0,-1.8438,-1.8342,0.0,-1.7378,-1.7676,0.0,0.0,0.0,-1.9019,-1.9557,-1.9738,-1.9786,-2.0078,0.0,0.0,-1.9911,-1.9954,-1.9956,-2.0285,-2.2323,-2.3528,-2.2683,-2.4478,-2.528,-2.4562,-2.5237,-2.5998,-2.6557,-2.7665,-2.902,-3.0097,-3.0149,-3.1255,-3.3085,-3.3678,-3.4749,-3.684,-3.7405,-3.7518,-3.7631,-3.7665,-3.7743,-3.7639,-3.7163,-3.6981,-3.7397,-3.7613,-3.7613,-2.78,-2.9043,-2.874,-2.7787,-2.6529,-2.6673,-2.6373,-2.5923,-2.5688,-2.5178,-2.4449,-2.3251,-2.2326,-2.1492,-2.0713,0.0,0.0,0.0,-2.149,-2.2129,-2.2129,-2.3183,-2.4888,-2.4753,-2.5361,-2.643,-2.6007,-2.625,-2.6909,-2.8023,-2.8068,-2.7479,0.0,-2.9523,-2.9673,-3.0668,-3.1721,-3.2446,-3.3266,-3.3835,-3.414,-3.3952,-3.3882,-3.3976,-3.3976,-3.3976,-3.3976,-3.3976,-3.346,-3.231,-3.0098,-2.7879,0.0,0.0,0.0,0.0,0.0,0.0,0.0,0.0,0.0,0.0,0.0,-1.6911,-1.6483,0.0,0.0,0.0,-1.7288,-1.7243,-1.7658,-1.7836,0.0,0.0,0.0,0.0,0.0,0.0,0.0,-1.9473,-1.9616,-1.9603,-1.9608,-2.134,-2.3022,-2.4056,-2.4782,-2.5363,-2.5875,0.0,-2.8353,-2.8388,-2.9513,-3.0396,-3.0792,-3.1654,-3.2512,-3.3078,-3.3719,-3.4508,-3.5127,-3.5823,-3.6588,-3.7405,-3.7769,-3.7769,-3.7769,-3.6571,-3.5553,-3.5553,-3.5371,-3.5423,-3.5968,-3.6098,-3.6202,-2.8168,0.0,0.0,0.0,0.0,-2.7235,-2.6959,-2.6227,-2.5953,-2.5432,-2.4709,-2.3512,0.0,0.0,0.0,0.0,0.0,0.0,-2.2254,-2.3281,-2.3399,-2.4485,-2.6185,-2.598,-2.626,-2.7026,-2.6659,-2.6775,-2.7504,-2.894,-2.8749,-2.7018,0.0,0.0,0.0,0.0,-2.9872,-3.1069,-3.1984,-3.2638,-3.299,-3.3014,-3.3178,-3.3554,-3.3554,-3.3554,-3.353,-3.3249,-3.2451,-3.1043,-2.9629,0.0,0.0,0.0,0.0,0.0,0.0,0.0,0.0,0.0,0.0,0.0,0.0,0.0,0.0,0.0,0.0,0.0,0.0,0.0,-1.8177,-1.8581,-1.8549,0.0,0.0,0.0,0.0,0.0,0.0,0.0,0.0,0.0,-1.9978,-2.2483,-2.4623,0.0,0.0,-2.7271,-2.8344,-2.9765,-3.0847,-3.1359,-3.2314,0.0,-3.3536,-3.4146,-3.4581,-3.4734,-3.5439,-3.5891,-3.5501,-3.6098,-3.6806,-3.6877,-3.6774,-3.654,-3.615,-3.4774,-3.3683,-3.3865,-3.3888,-3.3943,-3.4748,-3.5034,-3.5113,0.0,0.0,0.0,0.0,-2.7735,0.0,0.0,0.0,-2.9151,-2.7913,0.0,-2.5036,0.0,0.0,0.0,0.0,-2.1773,-2.2282,0.0,0.0,-2.336,-2.4827,-2.6998,-2.6096,-2.7144,-2.9824,-2.8357,-2.8172,-2.9058,-2.7616,0.0,0.0,0.0,0.0,0.0,0.0,-2.8412,-3.0115,-3.1711,-3.2451,-3.2583,-3.2583,-3.2498,-3.2654,-3.263,-3.2521,-3.2474,-3.1536,-3.0503,-2.9447,-2.713,0.0,0.0,0.0,0.0,0.0,0.0,0.0,0.0,0.0,0.0,0.0,0.0,0.0,0.0,0.0,0.0,0.0,0.0,0.0,0.0,-2.0115,0.0,0.0,0.0,0.0,0.0,0.0,0.0,0.0,0.0,-2.2499,-2.1793,-2.3023,-2.4165,-2.4685,0.0,0.0,0.0,0.0,-3.2144,-3.17,-3.2186,-3.2445,-3.2495,-3.3048,-3.3631,-3.4151,0.0,0.0,-3.4228,-3.4254,-3.4514,-3.4954,-3.4722,-3.3943,-3.2878,-3.2151,-3.2117,-3.3081,-3.2846,-3.3101,-3.45,-3.4782,-3.4931,0.0,0.0,0.0,0.0,0.0,0.0,0.0,0.0,0.0,-2.6876,-2.6028,-2.4529,0.0,0.0,0.0,0.0,0.0,0.0,0.0,0.0,-2.3672,-2.4737,-2.654,-2.6204,-2.6599,-2.7594,-2.7054,-2.6038,0.0,0.0,0.0,0.0,0.0,0.0,0.0,0.0,-3.0491,-3.2404,-3.4483,-3.5739,-3.6112,-3.6138,-3.5688,-3.468,-3.4572,-3.3563,-3.1388,-3.0955,-2.9538,0.0,0.0,0.0,0.0,0.0,0.0,0.0,0.0,0.0,0.0,0.0,0.0,0.0,0.0,0.0,0.0,0.0,0.0,0.0,0.0,0.0,0.0,0.0,-2.132,0.0,0.0,0.0,0.0,0.0,0.0,0.0,0.0,0.0,-2.4031,-2.4596,-2.5649,-2.7474,-2.8329,-2.918,-3.0135,0.0,0.0,0.0,0.0,0.0,0.0,0.0,-3.2826,-3.3034,-3.2774,-3.2774,-3.3602,-3.3732,-3.3579,-3.3397,0.0,0.0,-3.071,-2.9814,-2.9512,-2.9803,-3.0049,-3.0571,-3.2072,-3.2626,-3.3234,0.0,0.0,0.0,0.0,0.0,0.0,0.0,0.0,0.0,-2.4552,-2.4347,0.0,0.0,0.0,0.0,0.0,0.0,0.0,0.0,0.0,0.0,0.0,-2.5393,-2.506,0.0,0.0,0.0,0.0,0.0,0.0,0.0,0.0,0.0,0.0,0.0,0.0,-3.1573,-3.3484,-3.6011,-3.7474,-3.7871,-3.7899,-3.7346,-3.6322,-3.6322,-3.4877,-3.1868,0.0,0.0,0.0,0.0,0.0,0.0,0.0,0.0,0.0,0.0,0.0,0.0,0.0,0.0,0.0,0.0,0.0,0.0,0.0,0.0,0.0,0.0,0.0,0.0,0.0,-2.168,0.0,0.0,0.0,0.0,0.0,0.0,0.0,0.0,0.0,0.0,-2.5443,-2.6728,-2.8958,-2.927,-2.985,-3.142,-3.1641,-3.1863,0.0,0.0,0.0,0.0,0.0,0.0,0.0,0.0,0.0,0.0,0.0,0.0,0.0,0.0,-2.9512,-2.8111,-2.7327,-2.7043,-2.7335,0.0,0.0,0.0,0.0,0.0,0.0,0.0,0.0,0.0,0.0,0.0,0.0,0.0,0.0,0.0,-2.0883,0.0,0.0,-2.0132,0.0,0.0,0.0,0.0,0.0,0.0,0.0,0.0,0.0,0.0,0.0,0.0,0.0,0.0,0.0,0.0,0.0,0.0,0.0,0.0,0.0,0.0,-3.1416,-3.3386,-3.6169,-3.7549,-3.7578,-3.7477,-3.7505,-3.7404,-3.7347,-3.6253,-3.3794,0.0,0.0,0.0,0.0,0.0,0.0,0.0,0.0,0.0,0.0,0.0,0.0,0.0,0.0,0.0,0.0,0.0,0.0,0.0,0.0,0.0,0.0,0.0,0.0,0.0,0.0,-2.3175,-2.4133,-2.4251,0.0,0.0,0.0,0.0,0.0,0.0,0.0,0.0,0.0,-2.9009,-3.0047,-3.1325,-3.2887,-3.324,-3.3363,-3.3966,-3.3535,-3.3231,-3.3336,-3.2872,-3.2255,0.0,0.0,0.0,0.0,0.0,0.0,0.0,0.0,0.0,0.0,0.0,0.0,0.0,0.0,0.0,0.0,0.0,0.0,0.0,0.0,0.0,0.0,0.0,0.0,0.0,0.0,0.0,0.0,0.0,0.0,0.0,0.0,0.0,0.0,0.0,0.0,0.0,0.0,0.0,0.0,0.0,0.0,0.0,0.0,0.0,0.0,0.0,0.0,0.0,0.0,0.0,0.0,0.0,0.0,-3.3983,-3.6936,-3.9733,-4.1619,-4.2494,-4.2198,-4.1209,-3.9655,-3.8681,-3.6836,0.0,0.0,0.0,0.0,0.0,0.0,0.0,0.0,0.0,0.0,0.0,0.0,0.0,0.0,0.0,0.0,0.0,0.0,0.0,0.0,0.0,0.0,0.0,0.0,0.0,0.0,0.0,0.0,-2.4438,-2.4848,-2.3816,0.0,0.0,0.0,0.0,0.0,0.0,0.0,0.0,0.0,0.0,-3.0666,-3.2321,-3.2592,-3.2618,-3.2779,-3.2632,-3.2564,-3.2632,-3.1868,-3.1272,-3.1427,0.0,0.0,0.0,0.0,0.0,0.0,0.0,0.0,0.0,0.0,0.0,0.0,0.0,0.0,0.0,0.0,0.0,0.0,0.0,0.0,0.0,0.0,0.0,0.0,0.0,0.0,0.0,0.0,0.0,0.0,0.0,0.0,0.0,0.0,0.0,0.0,0.0,0.0,0.0,0.0,0.0,0.0,0.0,0.0,0.0,0.0,0.0,0.0,0.0,0.0,0.0,0.0,0.0,-3.5195,-3.7849,-4.0767,-4.2825,-4.374,-4.326,-4.2623,-4.1683,-4.0149,-3.8106,0.0,0.0,0.0,0.0,0.0,0.0,0.0,0.0,0.0,0.0,0.0,0.0,0.0,0.0,0.0,0.0,0.0,0.0,0.0,0.0,0.0,0.0,0.0,0.0,0.0,0.0,0.0,0.0,-2.3549,-2.4215,-2.3957,0.0,0.0,0.0,0.0,0.0,0.0,0.0,0.0,0.0,0.0,-3.2566,-3.368,-3.4041,0.0,0.0,-3.4254,-3.4197,-3.4268,-3.3924,-3.3376,-3.2465,-3.1836,0.0,0.0,0.0,0.0,0.0,0.0,0.0,0.0,0.0,0.0,0.0,0.0,0.0,0.0,0.0,0.0,0.0,0.0,0.0,0.0,0.0,0.0,0.0,0.0,0.0,0.0,0.0,0.0,0.0,0.0,0.0,0.0,0.0,0.0,0.0,0.0,0.0,0.0,0.0,0.0,0.0,0.0,0.0,0.0,0.0,0.0,0.0,0.0,0.0,0.0,0.0,0.0,-3.5269,-3.7057,-4.0065,-4.1946,-4.2443,-4.1979,-4.2222,-4.3401,-4.1576,-3.971,0.0,0.0,0.0,0.0,0.0,0.0,0.0,0.0,0.0,0.0,0.0,0.0,0.0,0.0,0.0,0.0,0.0,0.0,0.0,0.0,0.0,0.0,0.0,0.0,0.0,0.0,0.0,0.0,0.0,0.0,0.0,0.0,0.0,0.0,0.0,0.0,0.0,0.0,0.0,0.0,0.0,-3.602,-3.6292,-3.6939,-3.7401,0.0,-3.7399,-3.7401,-3.748,-3.7793,-3.7216,-3.4473,0.0,0.0,0.0,0.0,0.0,0.0,0.0,0.0,0.0,0.0,0.0,0.0,0.0,0.0,0.0,0.0,0.0,0.0,0.0,0.0,0.0,0.0,0.0,0.0,0.0,0.0,0.0,0.0,0.0,0.0,0.0,0.0,0.0,0.0,0.0,0.0,0.0,0.0,0.0,0.0,0.0,0.0,0.0,0.0,0.0,0.0,0.0,0.0,0.0,0.0,0.0,0.0,0.0,0.0,-3.7757,-4.0521,-4.2356,-4.3309,-4.2847,-4.2765,-4.3087,-4.1012,0.0,0.0,0.0,0.0,0.0,0.0,0.0,0.0,0.0,0.0,0.0,0.0,0.0,0.0,0.0,0.0,0.0,0.0,0.0,0.0,0.0,0.0,0.0,0.0,0.0,0.0,0.0,-1.9971,0.0,0.0,0.0,0.0,0.0,0.0,0.0,0.0,0.0,0.0,0.0,0.0,0.0,0.0,-3.6049,-3.6575,-3.7239,-3.7745,0.0,0.0,-3.7745,-3.7845,-3.6897,-3.5676,0.0,0.0,0.0,0.0,0.0,0.0,0.0,0.0,0.0,0.0,0.0,0.0,0.0,0.0,0.0,0.0,0.0,0.0,0.0,0.0,0.0,0.0,0.0,0.0,0.0,0.0,0.0,0.0,0.0,0.0,0.0,0.0,0.0,0.0,0.0,0.0,0.0,0.0,0.0,0.0,0.0,0.0,0.0,0.0,0.0,0.0,0.0,0.0,0.0,0.0,0.0,0.0,0.0,0.0,-3.5419,-3.7865,-4.0839,-4.2917,-4.3847,-4.3436,-4.3435,-4.3899,-4.0833,-3.8595,0.0,0.0,0.0,0.0,0.0,0.0,0.0,0.0,0.0,0.0,0.0,0.0,0.0,0.0,0.0,0.0,0.0,0.0,0.0,0.0,0.0,0.0,0.0,0.0,0.0,0.0,0.0,0.0,0.0,0.0,0.0,0.0,0.0,0.0,0.0,0.0,0.0,0.0,0.0,0.0,0.0,0.0,-3.7314,-3.7979,0.0,0.0,0.0,-3.8998,-3.8998,0.0,0.0,0.0,0.0,0.0,0.0,0.0,0.0,0.0,0.0,0.0,0.0,0.0,0.0,0.0,0.0,0.0,0.0,0.0,0.0,0.0,0.0,0.0,0.0,0.0,0.0,0.0,0.0,0.0,0.0,0.0,0.0,0.0,0.0,0.0,0.0,0.0,0.0,0.0,0.0,0.0,0.0,0.0,0.0,0.0,0.0,0.0,0.0,0.0,0.0,0.0,0.0,0.0,0.0,0.0,0.0,0.0,-3.7741,-4.1177,-4.3511,-4.4498,-4.394,-4.4188,-4.508,-4.1053,-3.851,0.0,0.0,0.0,0.0,0.0,0.0,0.0,0.0,0.0,0.0,0.0,0.0,0.0,0.0,0.0,0.0,0.0,0.0,0.0,0.0,0.0,0.0,0.0,0.0,0.0,0.0,0.0,0.0,0.0,0.0,0.0,0.0,0.0,0.0,0.0,0.0,0.0,0.0,0.0,0.0,0.0,-3.859,-3.8236,-3.8753,-3.921,0.0,0.0,-4.0229,-4.0194,-4.053,0.0,0.0,0.0,0.0,0.0,0.0,0.0,0.0,0.0,0.0,0.0,0.0,0.0,0.0,0.0,0.0,0.0,0.0,0.0,0.0,0.0,0.0,0.0,0.0,0.0,0.0,0.0,0.0,0.0,0.0,0.0,0.0,0.0,0.0,0.0,0.0,0.0,0.0,0.0,0.0,0.0,0.0,0.0,0.0,0.0,0.0,0.0,0.0,0.0,0.0,0.0,0.0,0.0,0.0,0.0,0.0,-3.9024,-4.189,-4.458,-4.6772,-4.5422,-4.4696,-4.4933,-4.2113,-3.9445,0.0,0.0,0.0,0.0,0.0,0.0,0.0,0.0,0.0,0.0,0.0,0.0,0.0,0.0,0.0,0.0,0.0,0.0,0.0,0.0,0.0,0.0,0.0,0.0,0.0,0.0,0.0,0.0,0.0,0.0,0.0,0.0,0.0,0.0,0.0,0.0,0.0,0.0,0.0,0.0,0.0,-3.8669,-3.859,-3.8732,0.0,0.0,0.0,0.0,-3.9051,-3.9132,0.0,0.0,0.0,0.0,0.0,0.0,0.0,0.0,0.0,0.0,0.0,0.0,0.0,0.0,0.0,0.0,0.0,0.0,0.0,0.0,0.0,0.0,0.0,0.0,0.0,0.0,0.0,0.0,0.0,0.0,0.0,0.0,0.0,0.0,0.0,0.0,0.0,0.0,0.0,0.0,0.0,0.0,0.0,0.0,0.0,0.0,0.0,0.0,0.0,0.0,0.0,0.0,0.0,0.0,0.0,0.0,-4.0173,-4.3073,-4.59,-4.8635,-4.7892,-4.7061,-4.6141,-4.3661,-4.0742,0.0,0.0,0.0,0.0,0.0,0.0,0.0,0.0,0.0,0.0,0.0,0.0,0.0,0.0,0.0,0.0,0.0,0.0,0.0,0.0,0.0,0.0,0.0,0.0,0.0,0.0,0.0,0.0,0.0,0.0,0.0,0.0,0.0,0.0,0.0,0.0,0.0,0.0,0.0,0.0,-3.682,-3.8036,-3.7567,0.0,0.0,0.0,0.0,0.0,0.0,-3.8143,-3.7751,0.0,0.0,0.0,0.0,0.0,0.0,0.0,0.0,0.0,0.0,0.0,0.0,0.0,0.0,0.0,0.0,0.0,0.0,0.0,0.0,0.0,0.0,0.0,0.0,0.0,0.0,0.0,0.0,0.0,0.0,0.0,0.0,0.0,0.0,0.0,0.0,0.0,0.0,0.0,0.0,0.0,0.0,0.0,0.0,0.0,0.0,0.0,0.0,0.0,0.0,0.0,0.0,0.0,0.0,0.0,-4.0967,-4.3978,-4.6986,-5.0052,-5.0227,-4.9333,-4.7684,-4.5112,-4.1796,-3.765,0.0,0.0,0.0,0.0,0.0,0.0,0.0,0.0,0.0,0.0,0.0,0.0,0.0,0.0,0.0,0.0,0.0,0.0,0.0,0.0,0.0,0.0,0.0,0.0,0.0,0.0,0.0,0.0,0.0,0.0,0.0,0.0,0.0,0.0,0.0,0.0,0.0,0.0,0.0,-3.6361,-3.7145,0.0,0.0,0.0,0.0,0.0,0.0,0.0,0.0,-3.686,0.0,0.0,0.0,0.0,0.0,0.0,0.0,0.0,0.0,0.0,0.0,0.0,0.0,0.0,0.0,0.0,0.0,0.0,0.0,0.0,0.0,0.0,0.0,0.0,0.0,0.0,0.0,0.0,0.0,0.0,0.0,0.0,0.0,0.0,0.0,0.0,0.0,0.0,0.0,0.0,0.0,0.0,0.0,0.0,0.0,0.0,0.0,0.0,0.0,0.0,0.0,0.0,0.0,0.0,0.0,0.0,-4.3173,-4.6506,-5.0103,-5.0208,-4.9373,-4.7684,-4.5112,-4.1759,-3.765,0.0,0.0,0.0,0.0,0.0,0.0,0.0,0.0,0.0,0.0,0.0,0.0,0.0,0.0,0.0,0.0,0.0,0.0,0.0,0.0,0.0,0.0,0.0,0.0,0.0,0.0,0.0,0.0,0.0,0.0,0.0,0.0,0.0,0.0,0.0,0.0,0.0,0.0,-3.415,-3.5541,0.0,0.0,0.0,0.0,0.0,0.0,0.0,0.0,-3.5148,0.0,0.0,0.0,0.0,0.0,0.0,0.0,0.0,0.0,0.0,0.0,0.0,0.0,0.0,0.0,0.0,0.0,0.0,0.0,0.0,0.0,0.0,0.0,0.0,0.0,0.0,0.0,0.0,0.0,0.0,0.0,0.0,0.0,0.0,0.0,0.0,0.0,0.0,0.0,0.0,0.0,0.0,0.0,0.0,0.0,0.0,0.0,0.0,0.0,0.0,0.0,0.0,0.0,0.0,0.0,0.0,0.0,0.0,-4.528,-4.9851,-4.9199,-4.8429,-4.7561,-4.4301,-4.0942,0.0,0.0,0.0,0.0,0.0,0.0,0.0,0.0,0.0,0.0,0.0,0.0,0.0,0.0,0.0,0.0,0.0,0.0,0.0,0.0,0.0,0.0,0.0,0.0,0.0,0.0,0.0,0.0,0.0,0.0,0.0,0.0,0.0,0.0,0.0,0.0,0.0,0.0,0.0,0.0,0.0,0.0,0.0,0.0,0.0,0.0,0.0,0.0,0.0,0.0,0.0,0.0,0.0,0.0,0.0,0.0,0.0,0.0,0.0,0.0,0.0,0.0,0.0,0.0,0.0,0.0,0.0,0.0,0.0,0.0,0.0,0.0,0.0,0.0,0.0,0.0,0.0,0.0,0.0,0.0,0.0,0.0,0.0,0.0,0.0,0.0,0.0,0.0,0.0,0.0,0.0,0.0,0.0,0.0,0.0,0.0,0.0,0.0,0.0,0.0,0.0,0.0,0.0,0.0,0.0,0.0,0.0,0.0,-4.3876,-4.8454,-4.7978,-4.7435,-4.7018,-4.317,-3.9821,0.0,0.0,0.0,0.0,0.0,0.0,0.0,0.0,0.0,0.0,0.0,0.0,0.0,0.0,0.0,0.0,0.0,0.0,0.0,0.0,0.0,0.0,0.0,0.0,0.0,0.0,0.0,0.0,0.0,0.0,0.0,0.0,0.0,0.0,0.0,0.0,0.0,0.0,0.0,0.0,0.0,0.0,0.0,0.0,0.0,0.0,0.0,0.0,-3.3758,0.0,0.0,0.0,0.0,0.0,0.0,0.0,0.0,0.0,0.0,0.0,0.0,0.0,0.0,0.0,0.0,0.0,0.0,0.0,0.0,0.0,0.0,0.0,0.0,0.0,0.0,0.0,0.0,0.0,0.0,0.0,0.0,0.0,0.0,0.0,0.0,0.0,0.0,0.0,0.0,0.0,0.0,0.0,0.0,0.0,0.0,0.0,0.0,0.0,0.0,0.0,0.0,0.0,0.0,0.0,0.0,0.0,0.0,0.0,-4.2458,-4.483,-4.6674,-4.6851,-4.5222,-4.1841,-3.8736,0.0,0.0,0.0,0.0,0.0,0.0,0.0,0.0,0.0,0.0,0.0,0.0,0.0,0.0,0.0,0.0,0.0,0.0,0.0,0.0,0.0,0.0,0.0,0.0,0.0,0.0,0.0,0.0,0.0,0.0,0.0,0.0,0.0,0.0,0.0,0.0,0.0,0.0,0.0,0.0,0.0,0.0,0.0,0.0,0.0,0.0,0.0,0.0,0.0,0.0,0.0,0.0,0.0,0.0,0.0,0.0,0.0,0.0,0.0,0.0,0.0,0.0,0.0,0.0,0.0,0.0,0.0,0.0,0.0,0.0,0.0,0.0,0.0,0.0,0.0,0.0,0.0,0.0,0.0,0.0,0.0,0.0,0.0,0.0,0.0,0.0,0.0,0.0,0.0,0.0,0.0,0.0,0.0,0.0,0.0,0.0,0.0,0.0,0.0,0.0,0.0,0.0,0.0,0.0,0.0,0.0,0.0,0.0,-4.0949,-4.387,-4.4633,-4.3783,-4.1349,-3.84,-3.6262,0.0,0.0,0.0,0.0,0.0,0.0,0.0,0.0,0.0,0.0,0.0,0.0,0.0,0.0,0.0,0.0,0.0,0.0,0.0,0.0,0.0,0.0,0.0,0.0,0.0,0.0,0.0,0.0,0.0,0.0,0.0,0.0,0.0,0.0,0.0,0.0,0.0,0.0,0.0,0.0,0.0,0.0,0.0,0.0,0.0,0.0,0.0,0.0,0.0,0.0,0.0,0.0,0.0,0.0,0.0,0.0,0.0,0.0,0.0,0.0,0.0,0.0,0.0,0.0,0.0,0.0,0.0,0.0,0.0,0.0,0.0,0.0,0.0,0.0,0.0,0.0,0.0,0.0,0.0,0.0,0.0,0.0,0.0,0.0,0.0,0.0,0.0,0.0,0.0,0.0,0.0,0.0,0.0,0.0,0.0,0.0,0.0,0.0,0.0,0.0,0.0,0.0,0.0,0.0,0.0,0.0,0.0,0.0,0.0,-4.2114,-4.2073,-4.093,-3.8736,-3.6215,-3.4614,0.0,0.0,0.0,0.0,0.0,0.0,0.0,0.0,0.0,0.0,0.0,0.0,0.0,0.0,0.0,0.0,0.0,0.0,0.0,0.0,0.0,0.0,0.0,0.0,0.0,0.0,0.0,0.0,0.0,0.0,0.0,0.0,0.0,0.0,0.0,0.0,0.0,0.0,0.0,0.0,0.0,0.0,0.0,0.0,0.0,0.0,0.0,0.0,0.0,0.0,0.0,0.0,0.0,0.0,0.0,0.0,0.0,0.0,0.0,0.0,0.0,0.0,0.0,0.0,0.0,0.0,0.0,0.0,0.0,0.0,0.0,0.0,0.0,0.0,0.0,0.0,0.0,0.0,0.0,0.0,0.0,0.0,0.0,0.0,0.0,0.0,0.0,0.0,0.0,0.0,0.0,0.0,0.0,0.0,0.0,0.0,0.0,0.0,0.0,0.0,0.0,0.0,0.0,0.0,0.0,0.0,0.0,0.0,0.0,-3.836,-3.9082,-3.9186,-3.8646,-3.6659,-3.4663,0.0,0.0,0.0,0.0,0.0,0.0,0.0,0.0,0.0,0.0,0.0,0.0,0.0,0.0,0.0,0.0,0.0,0.0,0.0,0.0,0.0,0.0,0.0,0.0,0.0,0.0,0.0,0.0,0.0,0.0,0.0,0.0,0.0,0.0,0.0,0.0,0.0,0.0,0.0,0.0,0.0,0.0,0.0,0.0,0.0,0.0,0.0,0.0,0.0,0.0,0.0,0.0,0.0,0.0,0.0,0.0,0.0,0.0,0.0,0.0,0.0,0.0,0.0,0.0,0.0,0.0,0.0,0.0,0.0,0.0,0.0,0.0,0.0,0.0,0.0,0.0,0.0,0.0,0.0,0.0,0.0,0.0,0.0,0.0,0.0,0.0,0.0,0.0,0.0,0.0,0.0,0.0,0.0,0.0,0.0,0.0,0.0,0.0,0.0,0.0,0.0,0.0,0.0,0.0,0.0,0.0,0.0,0.0,0.0,-3.558,-3.5832,-3.5915,-3.5712,-3.3866,-3.2411,-3.1512,0.0,0.0,0.0,0.0,0.0,0.0,0.0,0.0,0.0,0.0,0.0,0.0,0.0,0.0,0.0,0.0,0.0,0.0,0.0,0.0,0.0,0.0,0.0,0.0,0.0,0.0,0.0,0.0,0.0,0.0,0.0,0.0,0.0,0.0,0.0,0.0,0.0,0.0,0.0,0.0,0.0,0.0,0.0,0.0,0.0,0.0,0.0,0.0,0.0,0.0,0.0,0.0,0.0,0.0,0.0,0.0,0.0,0.0,0.0,0.0,0.0,0.0,0.0,0.0,0.0,0.0,0.0,0.0,0.0,0.0,0.0,0.0,0.0,0.0,0.0,0.0,0.0,0.0,0.0,0.0,0.0,0.0,0.0,0.0,0.0,0.0,0.0,0.0,0.0,0.0,0.0,0.0,0.0,0.0,0.0,0.0,0.0,0.0,0.0,0.0,0.0,0.0,0.0,0.0,0.0,0.0,0.0,0.0,-3.4045,-3.4008,-3.3941,-3.3837,-3.2076,-3.0988,0.0,0.0,0.0,0.0,0.0,0.0,0.0,0.0,0.0,0.0,0.0,0.0,0.0,0.0,0.0,0.0,0.0,0.0,0.0,0.0,0.0,0.0,0.0,0.0,0.0,0.0,0.0,0.0,0.0,0.0,0.0,0.0,0.0,0.0,0.0,0.0,0.0,0.0,0.0,0.0,0.0,0.0,0.0,0.0,0.0,0.0,0.0,0.0,0.0,0.0,0.0,0.0,0.0,0.0,0.0,0.0,0.0,0.0,0.0,0.0,0.0,0.0,0.0,0.0,0.0,0.0,0.0,0.0,0.0,0.0,0.0,0.0,0.0,0.0,0.0,0.0,0.0,0.0,0.0,0.0,0.0,0.0,0.0,0.0,0.0,0.0,0.0,0.0,0.0,0.0,0.0,0.0,0.0,0.0,0.0,0.0,0.0,0.0,0.0,0.0,0.0,0.0,0.0,0.0,0.0,0.0,0.0,0.0,-3.3673,-3.3941,-3.3941,-3.3807,-3.34,-3.1948,-3.08,0.0,0.0,0.0,0.0,0.0,0.0,0.0,0.0,0.0,0.0,0.0,0.0,0.0,0.0,0.0,0.0,0.0,0.0,0.0,0.0,0.0,0.0,0.0,0.0,0.0,0.0,0.0,0.0,0.0,0.0,0.0,0.0,0.0,0.0,0.0,0.0,0.0,0.0,0.0,0.0,0.0,0.0,0.0,0.0,0.0,0.0,0.0,0.0,0.0,0.0,0.0,0.0,0.0,0.0,0.0,0.0,0.0,0.0,0.0,0.0,0.0,0.0,0.0,0.0,0.0,0.0,0.0,0.0,0.0,0.0,0.0,0.0,0.0,0.0,0.0,0.0,0.0,0.0,0.0,0.0,0.0,0.0,0.0,0.0,0.0,0.0,0.0,0.0,0.0,0.0,0.0,0.0,0.0,0.0,0.0,0.0,0.0,0.0,0.0,0.0,0.0,0.0,0.0,0.0,0.0,0.0,0.0,0.0,0.0,-3.3204,0.0,-3.3204,0.0,-3.2,-3.1049,0.0,0.0,0.0,0.0,0.0,0.0,0.0,0.0,0.0,0.0,0.0,0.0,0.0,0.0,0.0,0.0,0.0,0.0,0.0,0.0,0.0,0.0,0.0,0.0,0.0,0.0,0.0,0.0,0.0,0.0,0.0,0.0,0.0,0.0,0.0,0.0,0.0,0.0,0.0,0.0,0.0,0.0,0.0,0.0,0.0,0.0,0.0,0.0,0.0,0.0,0.0,0.0,0.0,0.0,0.0,0.0,0.0,0.0,0.0,0.0,0.0,0.0,0.0,0.0,0.0,0.0,0.0,0.0,0.0,0.0,0.0,0.0,0.0,0.0,0.0,0.0,0.0,0.0,0.0,0.0,0.0,0.0,0.0,0.0,0.0,0.0,0.0,0.0,0.0,0.0,0.0,0.0,0.0,0.0,0.0,0.0,0.0,0.0,0.0,0.0,0.0,0.0,0.0,0.0,0.0,0.0,0.0,0.0,0.0,-3.2867,-3.2867,-3.2867,-3.2831,-3.2053,-3.1077,0.0,0.0,0.0,0.0,0.0,0.0,0.0,0.0,0.0,0.0,0.0,0.0,0.0,0.0,0.0,0.0,0.0,0.0,0.0,0.0,0.0,0.0,0.0,0.0,0.0,0.0,0.0,0.0,0.0,0.0,0.0,0.0,0.0,0.0,0.0,0.0,0.0,0.0,0.0,0.0,0.0,0.0,0.0,0.0,0.0,0.0,0.0,0.0,0.0,0.0,0.0,0.0,0.0,0.0,0.0,0.0,0.0,0.0,0.0,0.0,0.0,0.0,0.0,0.0,0.0,0.0,0.0,0.0,0.0,0.0,0.0,0.0,0.0,0.0,0.0,0.0,0.0,0.0,0.0,0.0,0.0,0.0,0.0,0.0,0.0,0.0,0.0,0.0,0.0,0.0,0.0,0.0,0.0,0.0,0.0,0.0,0.0,0.0,0.0,0.0,0.0,0.0,0.0,0.0,0.0,0.0,0.0,0.0,0.0,-3.28,-3.2867,-3.2867,-3.2831,-3.2118,-3.0883,0.0,0.0,0.0,0.0,0.0,0.0,0.0,0.0,0.0,0.0,0.0,0.0,0.0,0.0,0.0,0.0,0.0,0.0,0.0,0.0,0.0,0.0,0.0,0.0,0.0,0.0,0.0,0.0,0.0,0.0,0.0,0.0,0.0,0.0,0.0,0.0,0.0,0.0,0.0,0.0,0.0,0.0,0.0,0.0,0.0,0.0,0.0,0.0,0.0,0.0,0.0,0.0,0.0,0.0,0.0,0.0,0.0,0.0,0.0,0.0,0.0,0.0,0.0,0.0,0.0,0.0,0.0,0.0,0.0,0.0,0.0,0.0,0.0,0.0,0.0,0.0,0.0,0.0,0.0,0.0,0.0,0.0,0.0,0.0,0.0,0.0,0.0,0.0,0.0,0.0,0.0,0.0,0.0,0.0,0.0,0.0,0.0,0.0,0.0,0.0,0.0,0.0,0.0,0.0,0.0,0.0,0.0,0.0,0.0,0.0,-3.2732,-3.2867,-3.2831,-3.1921,-3.056,-2.8748,0.0,0.0,0.0,0.0,0.0,0.0,0.0,0.0,0.0,0.0,0.0,0.0,0.0,0.0,0.0,0.0,0.0,0.0,0.0,0.0,0.0,0.0,0.0,0.0,0.0,0.0,0.0,0.0,0.0,0.0,0.0,0.0,0.0,0.0,0.0,0.0,0.0,0.0,0.0,0.0,0.0,0.0,0.0,0.0,0.0,0.0,0.0,0.0,0.0,0.0,0.0,0.0,0.0,0.0,0.0,0.0,0.0,0.0,0.0,0.0,0.0,0.0,0.0,0.0,0.0,0.0,0.0,0.0,0.0,0.0,0.0,0.0,0.0,0.0,0.0,0.0,0.0,0.0,0.0,0.0,0.0,0.0,0.0,0.0,0.0,0.0,0.0,0.0,0.0,0.0,0.0,0.0,0.0,0.0,0.0,0.0,0.0,0.0,0.0,0.0,0.0,0.0,0.0,0.0,0.0,0.0,0.0,0.0,0.0,0.0,-3.1814,-3.1603,-3.0953,-2.971,0.0,0.0,0.0,0.0,0.0,0.0,0.0,0.0,0.0,0.0,0.0,0.0,0.0,0.0,0.0,0.0,0.0,0.0,0.0,0.0,0.0,0.0,0.0,0.0,0.0,0.0,0.0,0.0,0.0,0.0,0.0,0.0,0.0,0.0,0.0,0.0,0.0,0.0,0.0,0.0,0.0,0.0,0.0,0.0,0.0,0.0,0.0,0.0,0.0,0.0,0.0,0.0,0.0,0.0,0.0,0.0,0.0,0.0,0.0,0.0,0.0,0.0,0.0,0.0,0.0,0.0,0.0,0.0,0.0,0.0,0.0,0.0,0.0,0.0,0.0,0.0,0.0,0.0,0.0,0.0,0.0,0.0,0.0,0.0,0.0,0.0,0.0,0.0,0.0,0.0,0.0,0.0,0.0,0.0,0.0,0.0,0.0,0.0,0.0,0.0,0.0,0.0,0.0,0.0,0.0,0.0,0.0,0.0,0.0,0.0,0.0,-3.0325,-2.9757,-2.9591,0.0,-2.6226,0.0,0.0,0.0,0.0,0.0,0.0,0.0,0.0,0.0,0.0,0.0,0.0,0.0,0.0,0.0,0.0,0.0,0.0,0.0,0.0,0.0,0.0,0.0,0.0,0.0,0.0,0.0,0.0,0.0,0.0,0.0,0.0,0.0,0.0,0.0,0.0,0.0,0.0,0.0,0.0,0.0,0.0,0.0,0.0,0.0,0.0,0.0,0.0,0.0,0.0,0.0,0.0,0.0,0.0,0.0,0.0,0.0,0.0,0.0,0.0,0.0,0.0,0.0,0.0,0.0,0.0,0.0,0.0,0.0,0.0,0.0,0.0,0.0,0.0,0.0,0.0,0.0,0.0,0.0,0.0,0.0,0.0,0.0,0.0,0.0,0.0,0.0,0.0,0.0,0.0,0.0,0.0,0.0,0.0,0.0,0.0,0.0,0.0,0.0,0.0,0.0,0.0,0.0,0.0,0.0,0.0,0.0,0.0,0.0,0.0,0.0,0.0,-2.8635,-2.7531,-2.6348,0.0,0.0,0.0,0.0,0.0,0.0,0.0,0.0,0.0,0.0,0.0,0.0,0.0,0.0,0.0,0.0,0.0,0.0,0.0,0.0,0.0,0.0,0.0,0.0,0.0,0.0,0.0,0.0,0.0,0.0,0.0,0.0,0.0,0.0,0.0,0.0,0.0,0.0,0.0,0.0,0.0,0.0,0.0,0.0,0.0,0.0,0.0,0.0,0.0,0.0,0.0,0.0,0.0,0.0,0.0,0.0,0.0,0.0,0.0,0.0,0.0,0.0,0.0,0.0,0.0,0.0,0.0,0.0,0.0,0.0,0.0,0.0,0.0,0.0,0.0,0.0,0.0,0.0,0.0,0.0,0.0,0.0,0.0,0.0,0.0,0.0,0.0,0.0,0.0,0.0,0.0,0.0,0.0,0.0,0.0,0.0,0.0,0.0,0.0,0.0,0.0,0.0,0.0,0.0,0.0,0.0,0.0,0.0,0.0,0.0,-2.7569,-2.7257,-2.6249,-2.5382,-2.4648,0.0,0.0,0.0,0.0,0.0,0.0,0.0,0.0,0.0,0.0,0.0,0.0,0.0,0.0,0.0,0.0,0.0,0.0,0.0,0.0,0.0,0.0,0.0,0.0,0.0,0.0,0.0,0.0,0.0,0.0,0.0,0.0,0.0,0.0,0.0,0.0,0.0,0.0,0.0,0.0,0.0,0.0,0.0,0.0,0.0,0.0,0.0,0.0,0.0,0.0,0.0,0.0,0.0,0.0,0.0,0.0,0.0,0.0,0.0,0.0,0.0,0.0,0.0,0.0,0.0,0.0,0.0,0.0,0.0,0.0,0.0,0.0,0.0,0.0,0.0,0.0,0.0,0.0,0.0,0.0,0.0,0.0,0.0,0.0,0.0,0.0,0.0,0.0,0.0,0.0,0.0,0.0,0.0,0.0,0.0,0.0,0.0,0.0,0.0,0.0,0.0,0.0,0.0,0.0,0.0,0.0,0.0,0.0,0.0,0.0,0.0,0.0,0.0,0.0,-2.2357,0.0,0.0,0.0,0.0,0.0,0.0,0.0,0.0,0.0,0.0,0.0,0.0,0.0,0.0,0.0,0.0,0.0,0.0,0.0,0.0,0.0,0.0,0.0,0.0,0.0,0.0,0.0,0.0,0.0,0.0,0.0,0.0,0.0,0.0,0.0,0.0,0.0,0.0,0.0,0.0,0.0,0.0,0.0,0.0,0.0,0.0,0.0,0.0,0.0,0.0,0.0,0.0,0.0,0.0,0.0,0.0,0.0,0.0,0.0,0.0,0.0,0.0,0.0,0.0,0.0,0.0,0.0,0.0,0.0,0.0,0.0,0.0,0.0,0.0,0.0,0.0,0.0,0.0,0.0,0.0,0.0,0.0,0.0,0.0,0.0,0.0,0.0,0.0,0.0,0.0,0.0,0.0,0.0,0.0,0.0,0.0,0.0,0.0,0.0,0.0,0.0,0.0,0.0,0.0,0.0,0.0,0.0,0.0,0.0,0.0,0.0,0.0,0.0,0.0,0.0,0.0,0.0,0.0,0.0,0.0,0.0,0.0,0.0,0.0,0.0,0.0,0.0,0.0,0.0,0.0,0.0,0.0,0.0,0.0,0.0,0.0,0.0,0.0,0.0,0.0,0.0,0.0,0.0,0.0,0.0,0.0,0.0,0.0,0.0,0.0,0.0,0.0,0.0,0.0,0.0,0.0,0.0,0.0,0.0,0.0,0.0,0.0,0.0,0.0,0.0,0.0,0.0,0.0,0.0,0.0,0.0,0.0,0.0,0.0,0.0,0.0,0.0,0.0,0.0,0.0,0.0,0.0,0.0,0.0,0.0,0.0,0.0,0.0,0.0,0.0,0.0,0.0,0.0,0.0,0.0,0.0,0.0,0.0,0.0,0.0,0.0,0.0,0.0,0.0,0.0,0.0,0.0,0.0,0.0,0.0,0.0,0.0,0.0,0.0,0.0,0.0,0.0,0.0,0.0,0.0,0.0,0.0,0.0,0.0,0.0,0.0,0.0,0.0,0.0,0.0,0.0,0.0,0.0,0.0,0.0,0.0,0.0,0.0,0.0,0.0,0.0,0.0,0.0,0.0,0.0,0.0,0.0,0.0,0.0,0.0,0.0,0.0,0.0,0.0,0.0,0.0,0.0,0.0,0.0,0.0,0.0,0.0,0.0,0.0,0.0,0.0,0.0,0.0,0.0,0.0,0.0,0.0,0.0,0.0,0.0,0.0,0.0,0.0,0.0,0.0,0.0,0.0,0.0,0.0,0.0,0.0,0.0,0.0,0.0,0.0,0.0,0.0,0.0,0.0,0.0,0.0,0.0,0.0,0.0,0.0,0.0,0.0,0.0,0.0,0.0,0.0,0.0,0.0,0.0,0.0,0.0,0.0,0.0,0.0,0.0,0.0,0.0,0.0,0.0,0.0,0.0,0.0,0.0,0.0,0.0,0.0,0.0,0.0,0.0,0.0,0.0,0.0,0.0,0.0,0.0,0.0,0.0,0.0,0.0,0.0,0.0,0.0,0.0,0.0,0.0,0.0,0.0,0.0,0.0,0.0,0.0,0.0,0.0,0.0,0.0,0.0,0.0,0.0,0.0,0.0,0.0,0.0,0.0,0.0,0.0,0.0,0.0,0.0,0.0,0.0,0.0,0.0,0.0,0.0,0.0,0.0,0.0,0.0,0.0,0.0,0.0,0.0,0.0,0.0,0.0,0.0,0.0,0.0,0.0,0.0,0.0,0.0,0.0,0.0,0.0,0.0,0.0,0.0,0.0,0.0,0.0,0.0,0.0,0.0,0.0,0.0,0.0,0.0,0.0,0.0,0.0,0.0,0.0,0.0,0.0,0.0,0.0,0.0,0.0,0.0,0.0,0.0,0.0,0.0,0.0,0.0,0.0,0.0,0.0,0.0,0.0,0.0,0.0,0.0,0.0,0.0,0.0,0.0,0.0,0.0,0.0,0.0,0.0,0.0,0.0,0.0,0.0,0.0,0.0,0.0,0.0,0.0,0.0,0.0,0.0,0.0,0.0,0.0,0.0,0.0,0.0,0.0,0.0,0.0,0.0,0.0,0.0,0.0,0.0,0.0,0.0,0.0,0.0,0.0,0.0,0.0,0.0,0.0,0.0,0.0,0.0,0.0,0.0,0.0,0.0,0.0,0.0,0.0,0.0,0.0,0.0,0.0,0.0,0.0,0.0,0.0,0.0,0.0,0.0,0.0,0.0,0.0,0.0,0.0,0.0,0.0,0.0,0.0,0.0,0.0,0.0,0.0,0.0,0.0,0.0,0.0,0.0,0.0,0.0,0.0,0.0,0.0,0.0,0.0,0.0,0.0,0.0,0.0,0.0,0.0,0.0,0.0,0.0,0.0,0.0,0.0,0.0,0.0,0.0,0.0,0.0,0.0,0.0,0.0,0.0,0.0,0.0,0.0,0.0,0.0,0.0,0.0,0.0,0.0,0.0,0.0,0.0,0.0,0.0,0.0,0.0,0.0,0.0,0.0,0.0,0.0,0.0,0.0,0.0,0.0,0.0,0.0,0.0,0.0,0.0,0.0,0.0,0.0,0.0,0.0,0.0,0.0,0.0,0.0,0.0,0.0,0.0,0.0,0.0,0.0,0.0,0.0,0.0,0.0,0.0,0.0,0.0,0.0,0.0,0.0,0.0,0.0,0.0,0.0,0.0,0.0,0.0,0.0,0.0,0.0,0.0,0.0,0.0,0.0,0.0,0.0,0.0,0.0,0.0,0.0,0.0,0.0,0.0,0.0,0.0,0.0,0.0,0.0,0.0,0.0,0.0,0.0,0.0,0.0,0.0,0.0,0.0,0.0,0.0,0.0,0.0,0.0,0.0,0.0,0.0,0.0,0.0,0.0,0.0,0.0,0.0,0.0,0.0,0.0,0.0,0.0,0.0,0.0,0.0,0.0,0.0,0.0,0.0,0.0,0.0,0.0,0.0,0.0,0.0,0.0,0.0,0.0,0.0,0.0,0.0,0.0,0.0,0.0,0.0,0.0,0.0,0.0,0.0,0.0,0.0,0.0,0.0,0.0,0.0,0.0,0.0,0.0,0.0,0.0,0.0,0.0,0.0,0.0,0.0,0.0,0.0,0.0,0.0,0.0,0.0,0.0,0.0,0.0,0.0,0.0,0.0,0.0,0.0,0.0,0.0,0.0,0.0,0.0,0.0,0.0,0.0,0.0,0.0,0.0,0.0,0.0,0.0,0.0,0.0,0.0,0.0,0.0,0.0,0.0,0.0,0.0,0.0,0.0,0.0,0.0,0.0,0.0,0.0,0.0,0.0,0.0,0.0,0.0,0.0,0.0,0.0,0.0,0.0,0.0,0.0,0.0,0.0,0.0,0.0,0.0,0.0,0.0,0.0,0.0,0.0,0.0,0.0,0.0,0.0,0.0,0.0,0.0,0.0,0.0,0.0,0.0,0.0,0.0,0.0,0.0,0.0,0.0,0.0,0.0,0.0,0.0,0.0,0.0,0.0,0.0,0.0,0.0,0.0,0.0,0.0,0.0,0.0,0.0,0.0,0.0,0.0,0.0,0.0,0.0,0.0,0.0,0.0,0.0,0.0,0.0,0.0,0.0,0.0,0.0,0.0,0.0,0.0,0.0,0.0,0.0,0.0,0.0,0.0,0.0,0.0,0.0,0.0,0.0,0.0,0.0,0.0,0.0,0.0,0.0,0.0,0.0,0.0,0.0,0.0,0.0,0.0,0.0,0.0,0.0,0.0,0.0,0.0,0.0,0.0,0.0,0.0,0.0,0.0,0.0,0.0,0.0,0.0,0.0,0.0,0.0,0.0,0.0,0.0,0.0,0.0,0.0,0.0,0.0,0.0,0.0,0.0,0.0,0.0,0.0,0.0,0.0,0.0,0.0,0.0,0.0,0.0,0.0,0.0,0.0,0.0,0.0,0.0,0.0,0.0,0.0,0.0,0.0,0.0,0.0,0.0,0.0,0.0,0.0,0.0,0.0,0.0,0.0,0.0,0.0,0.0,0.0,0.0,0.0,0.0,0.0,0.0,0.0,0.0,0.0,0.0,0.0,0.0,0.0,0.0,0.0,0.0,0.0,0.0,0.0,0.0,0.0,0.0,0.0,0.0,0.0,0.0,0.0,0.0,0.0,0.0,0.0,0.0,0.0,0.0,0.0,0.0,0.0,0.0,0.0,0.0,0.0,0.0,0.0,0.0,0.0,0.0,0.0,0.0,0.0,0.0,0.0,0.0,0.0,0.0,0.0,0.0,0.0,0.0,0.0,0.0,0.0,0.0,0.0,0.0,0.0,0.0,0.0,0.0,0.0,0.0,0.0,0.0,0.0,0.0,0.0,0.0,0.0,0.0,0.0,0.0,0.0,0.0,0.0]}],[{"header":{"parameterUnit":"kt","parameterCategory":2,"dx":1,"dy":1,"la1":29.587661999999998,"la2":31.0,"lo1":-88.76705300000003,"lo2":-86.6583820000003,"nx":115,"ny":88,"refTime":"2022-10-26T00:00:00:Z","depth":0,"parameterNumber":2,"parameterNumberName":"V-component_of_WINDS"},"data":[14.3648,14.5667,14.5667,14.6265,14.6938,14.5891,14.619,14.7237,14.5742,14.5742,14.6789,14.7088,14.634,14.477,14.477,14.5517,14.6639,14.6938,14.7162,14.7686,14.7686,14.7686,14.7686,14.7686,14.7686,14.7686,14.7686,14.7686,14.7686,14.7686,14.7686,14.7686,14.7686,14.7686,14.7686,14.7686,14.7686,14.7714,14.7817,14.7928,14.8092,14.8244,14.8389,14.8505,14.8594,14.8563,14.869,14.8829,14.8891,14.9002,14.9133,14.9146,14.9212,14.9307,14.9548,14.9747,14.9849,14.9951,14.9964,15.004,15.0116,15.0116,15.004,15.004,14.996,14.9875,14.9853,14.9823,14.9878,14.9873,14.9873,14.9873,14.9873,14.9873,14.9873,14.9873,14.9873,14.9873,14.9873,14.9873,14.9791,14.9632,14.9416,14.9224,14.8987,14.8509,14.8041,14.7635,14.7363,14.7072,14.6863,14.6795,14.6795,14.6795,14.6829,14.6863,14.6795,14.6795,14.6795,14.6795,14.6795,14.6795,14.6795,14.6795,14.6795,14.6795,14.6795,14.6795,14.6795,14.6795,14.6795,14.6795,14.6788,14.6855,14.6986,14.3349,14.7162,14.7312,14.6714,14.5592,14.5218,14.6116,14.7013,14.462,14.4069,14.5293,14.5293,14.4545,14.3648,14.3199,14.4321,14.5218,14.5816,14.6639,14.7237,14.7611,14.7686,14.7686,14.7686,14.7686,14.7686,14.7686,14.7686,14.7686,14.7686,14.7686,14.7686,14.7686,14.7686,14.7686,14.7686,14.7686,14.7789,14.7826,14.7961,14.8118,14.8244,14.8389,14.8541,14.8696,14.8811,14.895,14.9048,14.9212,14.9284,14.9296,14.9371,14.9438,14.9587,14.9761,14.9888,14.9964,15.004,15.004,15.0116,15.0116,15.0116,15.0116,15.004,15.004,14.9957,14.9863,14.9837,14.9889,14.9878,14.9873,14.9873,14.9873,14.9873,14.9873,14.9873,14.9873,14.9873,14.9873,14.9873,14.9766,14.9648,14.9477,14.9307,14.8957,14.8484,14.8043,14.7629,14.7288,14.7214,14.6976,14.6888,14.6788,14.6788,14.6888,14.6822,14.6795,14.6795,14.6795,14.6795,14.6795,14.6795,14.6795,14.6795,14.6795,14.6795,14.6795,14.6795,14.6795,14.6795,14.6795,14.6795,14.6755,14.6855,14.6954,14.305,14.5069,14.5966,14.5891,14.5143,14.4246,14.5443,14.6863,14.4321,14.2751,14.2451,14.1554,14.1255,14.1554,14.1479,14.2377,14.3872,14.4695,14.5592,14.6489,14.7013,14.7462,14.7686,14.7686,14.7686,14.7686,14.7686,14.7686,14.7686,14.7686,14.7686,14.7686,14.7686,14.7686,14.7686,14.7686,14.7686,14.7686,14.7853,14.804,14.8244,14.8341,14.8459,14.8541,14.8716,14.8846,14.8987,14.9284,14.942,14.9548,14.9548,14.9614,14.9639,14.9769,14.9955,15.004,15.0116,15.0116,15.0116,15.0116,15.0116,15.0116,15.0116,15.0116,15.004,15.0036,14.9947,14.9853,14.9833,14.9878,14.9878,14.9873,14.9873,14.9873,14.9873,14.9873,14.9873,14.9873,14.9873,14.9873,14.9779,14.9655,14.9505,14.9416,14.9173,14.8698,14.8429,14.8076,14.7717,14.7499,14.7214,14.6976,14.6822,14.6788,14.6921,14.6855,14.6795,14.6795,14.6795,14.6795,14.6795,14.6795,14.6795,14.6795,14.6795,14.6795,14.6795,14.6795,14.6795,14.6795,14.6795,14.6795,14.6755,14.6822,14.6781,14.2152,14.2873,14.3274,14.4022,14.447,14.3424,14.4545,14.6714,14.3723,14.1554,14.0283,13.9236,13.9161,13.9759,13.9759,14.0657,14.2078,14.2975,14.4171,14.4994,14.6265,14.6714,14.7013,14.7387,14.7686,14.7686,14.7686,14.7686,14.7686,14.7686,14.7686,14.7686,14.7686,14.7686,14.7686,14.777,14.777,14.7798,14.7961,14.8169,14.8293,14.8412,14.8541,14.8676,14.8864,14.9002,14.9273,14.9564,14.9732,14.9736,14.9812,14.9736,14.9736,14.9957,15.004,15.0116,15.0116,15.0116,15.0116,15.0116,15.0116,15.0116,15.0116,15.0116,15.0114,15.0112,15.0029,14.9941,14.9849,14.9828,14.9884,14.9878,14.9873,14.9873,14.9873,14.9873,14.9873,14.9873,14.9873,14.9873,14.9873,14.9753,14.959,14.9426,14.9237,14.9029,14.8789,14.851,14.8099,14.7819,14.7554,14.7258,14.7051,14.6822,14.6921,14.6888,14.6829,14.6795,14.6795,14.6795,14.6795,14.6795,14.6795,14.6795,14.6795,14.6795,14.6795,14.6795,14.6795,14.6795,14.6795,14.6795,14.6755,14.6045,14.616,14.0133,14.2601,13.9685,14.0582,14.2798,14.29,14.3723,14.4919,14.1928,14.0432,14.0283,14.0059,13.9161,13.8488,13.8413,13.9311,14.0358,14.118,14.2152,14.3199,14.4695,14.5443,14.5891,14.6789,14.6863,14.7387,14.7611,14.7387,14.7611,14.7686,14.7686,14.7686,14.7686,14.7686,14.7714,14.7798,14.788,14.7934,14.8118,14.8266,14.8412,14.8452,14.8627,14.8864,14.9119,14.934,14.9601,14.9777,15.004,15.004,15.004,15.004,15.004,15.004,15.004,15.0116,15.0116,15.0116,15.0116,15.0116,15.0116,15.0116,15.0116,15.0116,15.0116,15.0114,15.0033,14.9949,14.9859,14.9837,14.9813,14.9878,14.9873,14.9873,14.9873,14.9873,14.9873,14.9873,14.9873,14.9873,14.9873,14.9791,14.9648,14.9632,14.9486,14.9405,14.9097,14.874,14.8453,14.8187,14.7919,14.7657,14.7302,14.6986,14.7019,14.6954,14.6788,14.6795,14.6795,14.6795,14.6795,14.6795,14.6795,14.6795,14.6795,14.6795,14.6795,14.6795,14.6795,14.6795,14.6795,14.6795,14.6052,14.5087,14.479,14.1105,14.118,13.9834,14.0657,14.2526,14.1778,14.1629,14.1704,13.9834,13.8787,13.8787,13.8862,13.8488,13.7815,13.789,13.8189,13.9012,13.9759,14.0507,14.1778,14.305,14.3573,14.3872,14.447,14.5443,14.5966,14.6265,14.6639,14.7536,14.7686,14.7686,14.7686,14.7686,14.7686,14.7742,14.7853,14.7961,14.8118,14.8266,14.8519,14.8615,14.8774,14.8916,14.9119,14.9381,14.9564,14.9721,14.9949,15.004,15.0116,15.0116,15.0116,15.0116,15.0116,15.0116,15.0116,15.0116,15.0116,15.0116,15.0116,15.0116,15.0116,15.0116,15.0116,15.0116,15.0116,15.0036,14.9953,14.9865,14.9849,14.9828,14.9884,14.9878,14.9873,14.9873,14.9873,14.9873,14.9873,14.9873,14.9873,14.9873,14.9873,14.9873,14.9873,14.9766,14.9624,14.9351,14.9029,14.869,14.8374,14.8017,14.777,14.7393,14.7115,14.7083,14.7019,14.6855,14.6829,14.6795,14.6795,14.6795,14.6795,14.6795,14.6795,14.6795,14.6795,14.6795,14.6795,14.6721,14.6795,14.6795,14.5755,14.4459,14.3568,14.3048,14.0732,13.9685,13.961,14.0582,14.1778,14.0358,13.961,13.9535,13.8413,13.7815,13.7815,13.7815,13.7965,13.7815,13.7815,13.7815,13.8339,13.8937,13.946,14.0283,14.133,14.1928,14.2451,14.29,14.3573,14.4246,14.4695,14.5069,14.6041,14.6938,14.6938,14.7611,14.7686,14.7686,14.777,14.7934,14.8169,14.8314,14.8488,14.8716,14.8811,14.8999,14.9173,14.934,14.9587,14.9732,14.9845,15.0037,15.004,15.0116,15.0116,15.0116,15.0116,15.0116,15.0116,15.0116,15.0116,15.0116,15.0116,15.0116,15.0116,15.0116,15.0116,15.0116,15.0116,15.0116,15.0115,15.0033,14.9947,14.9856,14.9837,14.9813,14.9878,14.9873,14.9873,14.9873,14.9873,14.9873,14.9873,14.9873,14.9873,14.9873,14.9873,14.9873,14.9873,14.9785,14.9632,14.9261,14.8896,14.8429,14.8043,14.7696,14.7423,14.7302,14.724,14.7115,14.6954,14.6788,14.6829,14.6795,14.6795,14.6795,14.6795,14.6795,14.6795,14.6795,14.6721,14.6539,14.6316,14.6464,14.5647,14.4162,14.2825,14.1859,14.1191,13.7965,13.789,13.789,13.8937,13.9984,13.8787,13.804,13.7965,13.7815,13.7815,13.7815,13.7815,13.7815,13.7815,13.7815,13.7815,13.804,13.7965,13.8189,13.8638,13.9759,14.0133,14.0881,14.1704,14.2227,14.2676,14.305,14.3199,14.3349,14.462,14.619,14.7162,14.7565,14.7383,14.7267,14.744,14.7789,14.8073,14.8282,14.8589,14.9062,14.9199,14.9401,14.9601,14.9737,14.9856,14.9964,15.004,15.004,15.0116,15.0116,15.0116,15.0116,15.0116,15.0116,15.0116,15.0116,15.0116,15.0116,15.0116,15.0116,15.0116,15.0116,15.0116,15.0116,15.0116,15.0116,15.0037,14.9951,14.9859,14.9841,14.9818,14.9873,14.9873,14.9873,14.9873,14.9873,14.9873,14.9873,14.9873,14.9873,14.9873,14.9873,14.9873,14.9873,14.976,14.9562,14.9199,14.8924,14.8443,14.7342,14.7077,14.7392,14.7378,14.7407,14.7209,14.7051,14.6888,14.6822,14.6829,14.6795,14.6795,14.6795,14.6795,14.6795,14.6721,14.6572,14.639,14.5944,14.4905,14.3939,14.2528,14.0745,13.9928,13.9408,13.7815,13.7815,13.7815,13.8189,13.8488,13.804,13.7815,13.7815,13.7815,13.7815,13.7815,13.7815,13.7815,13.7815,13.7815,13.7815,13.7815,13.7815,13.7815,13.789,13.8563,13.8787,13.8937,13.9311,14.0432,14.1031,14.133,14.1853,14.2601,14.3349,14.447,14.5919,14.7199,14.6643,14.5752,14.5795,14.629,14.7369,14.7805,14.8152,14.9123,14.9464,14.9715,14.9888,14.9964,14.9964,15.004,15.0116,15.0116,15.0116,15.0116,15.0116,15.0116,15.0116,15.0116,15.0116,15.0116,15.0116,15.0116,15.0116,15.0116,15.0116,15.0116,15.0116,15.0116,15.0116,15.0116,15.004,14.9953,14.9868,14.9856,14.9818,14.9878,14.9873,14.9873,14.9873,14.9873,14.9873,14.9873,14.9873,14.9873,14.9873,14.9873,14.9873,14.9873,14.9624,14.9329,14.9195,14.8858,14.7475,14.6124,14.6536,14.6881,14.6795,14.6751,14.6854,14.6923,14.6912,14.6888,14.6822,14.6788,14.6795,14.6795,14.6795,14.6019,14.5573,14.5944,14.5573,14.431,14.3271,14.2157,14.0523,13.8889,13.8146,13.7775,13.7815,13.7815,13.7815,13.7815,13.7815,13.7815,13.7815,13.7815,13.7815,13.7815,13.7815,13.7815,13.7815,13.7815,13.7815,13.7815,13.7815,13.7815,13.7815,13.7815,13.789,13.7815,13.789,13.8264,13.8563,13.9236,13.9535,14.0208,14.133,14.1778,14.2676,14.3811,14.4818,14.5239,14.4346,14.4165,14.502,14.644,14.6956,14.7711,14.9406,14.9757,14.9888,15.004,15.004,15.004,15.0116,15.0116,15.0116,15.0116,15.0116,15.0116,15.0116,15.0116,15.0116,15.0116,15.0116,15.0116,15.0116,15.0116,15.0116,15.0116,15.0116,15.0116,15.0116,15.0116,15.004,15.004,14.9964,14.9949,14.979,14.9757,14.9656,14.9651,14.9493,14.9569,14.9645,14.9721,14.9797,14.9797,14.9873,14.9873,14.9873,14.9873,14.9873,14.9731,14.8416,14.802,14.7313,14.5926,14.475,14.5349,14.5564,14.5732,14.6048,14.6005,14.6034,14.6444,14.6721,14.6475,14.6673,14.6795,14.6498,14.5647,14.4979,14.431,14.4088,14.3716,14.2602,14.134,13.9854,13.8369,13.7775,13.7297,13.6851,13.7815,13.7815,13.7815,13.7815,13.7815,13.7815,13.7815,13.7815,13.7815,13.7815,13.7815,13.7815,13.7815,13.7815,13.7815,13.7815,13.7815,13.7815,13.7815,13.7815,13.7815,13.7815,13.7815,13.7815,13.804,13.789,13.8189,13.8339,13.8339,13.9742,14.0568,14.1494,14.2617,14.3219,14.3862,14.4036,14.5137,14.6773,14.7048,14.8128,14.9381,14.9951,15.004,15.0116,15.0116,15.0116,15.0116,15.0116,15.0116,15.0116,15.0116,15.0116,15.0116,15.0116,15.0116,15.0116,15.0116,15.0116,15.0116,15.0116,15.0116,15.0116,14.9585,14.9585,14.9812,14.966,14.9281,14.8749,14.9125,14.9344,14.9714,14.9545,14.9368,14.9277,14.8886,14.8886,14.9114,14.9266,14.9569,14.9721,14.9797,14.9797,14.9797,14.9797,14.9721,14.8722,14.737,14.6295,14.5392,14.4252,14.3141,14.3308,14.3274,14.3443,14.3966,14.4554,14.5035,14.6122,14.6146,14.5423,14.5294,14.5855,14.5492,14.4608,14.3939,14.3271,14.2602,14.1859,14.0745,13.9557,13.7923,13.7329,13.7032,13.6851,13.6851,13.7815,13.7815,13.7815,13.7815,13.7815,13.7815,13.7815,13.7815,13.7815,13.7815,13.7815,13.7815,13.7815,13.7815,13.7815,13.7815,13.7815,13.7815,13.7815,13.7815,13.7815,13.7815,13.7815,13.7842,13.7868,13.7815,13.7815,13.7815,13.7842,13.8589,13.9545,14.0329,14.0718,14.0877,14.138,14.2219,14.3865,14.5546,14.6766,14.8285,14.966,15.004,15.0116,15.0116,15.0116,15.0116,15.0116,15.0116,15.0116,15.0116,15.0116,15.0116,15.0116,15.0116,15.0116,15.0116,15.0116,15.0116,15.0116,15.0116,15.0116,14.9888,14.9205,14.8522,14.7914,14.7155,14.7079,14.6851,14.677,14.6986,14.8195,14.7416,14.7081,14.783,14.7596,14.752,14.7824,14.8128,14.8659,14.9038,14.9493,14.9418,14.9342,14.9038,14.8355,14.656,14.5227,14.4165,14.2848,14.1434,14.062,14.039,14.0358,14.0956,14.1704,14.1574,14.1612,14.2662,14.314,14.2912,14.3457,14.4721,14.4657,14.3188,14.2379,14.2157,14.1117,13.9706,13.8591,13.7849,13.7477,13.7106,13.6851,13.6851,13.6851,13.7815,13.7815,13.7815,13.7815,13.7815,13.7815,13.7815,13.7815,13.7815,13.7815,13.7815,13.7815,13.7815,13.7815,13.7815,13.7815,13.7815,13.7815,13.7815,13.7815,13.7815,13.7815,13.7845,13.7896,13.7947,13.7894,13.7972,13.8022,13.7947,13.8374,13.935,13.9836,13.9985,13.9638,13.9865,14.1072,14.2447,14.3966,14.5636,14.7383,14.8825,14.9509,15.0116,15.0116,15.0116,15.0116,15.0116,15.0116,15.0116,15.0116,15.0116,15.0116,15.0116,15.0116,15.0116,15.0116,15.0116,15.0116,15.0116,15.0116,15.0116,14.9736,14.8597,14.761,14.761,14.6092,14.5181,14.4953,14.5177,14.5626,14.6454,14.567,14.4956,14.5629,14.5927,14.5851,14.6003,14.623,14.6686,14.6913,14.7596,14.8279,14.8279,14.7976,14.6079,14.4252,14.3102,14.1732,13.96,13.7856,13.707,13.6671,13.6619,13.7067,13.8264,13.8387,13.836,13.8998,13.966,13.9651,13.9885,14.1479,14.2309,14.1363,14.03,13.9928,13.9111,13.7552,13.7106,13.7255,13.7106,13.6851,13.6851,13.6851,13.6851,13.7815,13.7815,13.7815,13.7815,13.7815,13.7815,13.7815,13.7815,13.7815,13.7815,13.7815,13.7815,13.7815,13.7815,13.7815,13.7815,13.7815,13.7815,13.7894,13.7894,13.7894,13.7947,13.8092,13.8254,13.8321,13.8143,13.8246,13.8321,13.8254,13.8503,13.8879,13.9332,13.9749,13.9865,14.0017,14.0245,14.1232,14.2903,14.4953,14.6547,14.7762,14.9129,15.004,15.0116,15.0116,15.0116,15.0116,15.0116,15.0116,15.0116,15.0116,15.0116,15.0116,15.0116,15.0116,15.0116,15.0116,15.0116,15.0116,15.0116,15.004,14.9509,14.8522,14.7307,14.632,14.5256,14.4649,14.4042,14.3662,14.4188,14.4634,14.4621,14.4064,14.4197,14.403,14.403,14.4333,14.4561,14.4713,14.4789,14.5244,14.5927,14.6003,14.4333,14.2512,14.0691,13.9477,13.8427,13.624,13.5659,13.456,13.3504,13.3329,13.4002,13.5198,13.4824,13.4574,13.4943,13.6159,13.659,13.6478,13.7578,13.8887,13.8018,13.7329,13.7477,13.718,13.6438,13.6066,13.6512,13.6851,13.6851,13.6851,13.6851,13.6851,13.7815,13.7815,13.7815,13.7815,13.7815,13.7815,13.7815,13.7815,13.7815,13.7815,13.7815,13.7815,13.7815,13.7815,13.7842,13.7868,13.7842,13.7815,13.7972,13.8162,13.8299,13.8429,13.8558,13.8709,13.8763,13.8691,13.874,13.8791,13.8813,13.9007,13.9244,13.9466,13.9781,13.9941,13.9941,14.0093,14.0625,14.2371,14.4877,14.6395,14.7458,14.8977,14.9736,14.9964,15.0116,15.0116,15.0116,15.004,15.004,15.004,14.9964,14.9964,14.9964,14.9964,15.004,14.9812,14.9812,14.9812,14.9812,14.9736,14.9357,14.8522,14.7534,14.6395,14.4421,14.2219,14.1232,14.1612,14.1612,14.2214,14.2504,14.1958,14.2246,14.2381,14.2208,14.2436,14.2664,14.2967,14.3119,14.3423,14.3802,14.4181,14.3119,14.1146,13.9097,13.72,13.5806,13.4767,13.4351,13.4331,13.3007,13.141,13.1609,13.2506,13.2581,13.1684,13.0861,13.106,13.2829,13.3519,13.3075,13.3781,13.5227,13.4958,13.4166,13.4432,13.5324,13.5101,13.4878,13.5398,13.5918,13.6363,13.648,13.6851,13.6851,13.7815,13.7815,13.7815,13.7815,13.7815,13.7815,13.7815,13.7815,13.7815,13.7815,13.7815,13.7815,13.7815,13.7894,13.8022,13.8071,13.8143,13.8276,13.8513,13.8596,13.8653,13.8745,13.8964,13.9085,13.907,13.9056,13.9093,13.9219,13.943,13.9547,13.9677,13.9768,13.9865,13.9941,13.9941,13.9941,14.0549,14.1612,14.313,14.4573,14.5788,14.7458,14.8597,14.7914,14.9281,14.8977,14.8673,14.8901,14.9812,14.9053,14.9812,14.9736,14.9281,14.9585,14.9585,14.9205,14.8901,14.8977,14.8977,14.8901,14.8446,14.7686,14.6699,14.5256,14.2979,14.1156,14.0093,13.9941,13.9941,14.0393,14.0916,14.0446,14.0732,14.0863,14.0853,14.1,14.1222,14.145,14.1753,14.2208,14.2588,14.2208,14.1526,13.9173,13.6821,13.5227,13.4073,13.2682,13.2109,13.2241,13.1139,12.976,13.0263,13.0861,13.0188,12.9665,12.9216,12.944,13.1135,13.0908,13.0202,13.0438,13.1787,13.2043,13.1998,13.2458,13.3021,13.3095,13.2873,13.3764,13.4804,13.4358,13.3987,13.4655,13.5843,13.7815,13.7815,13.7815,13.7815,13.7815,13.7815,13.7815,13.7815,13.7815,13.7815,13.7815,13.7815,13.7868,13.7972,13.8254,13.8429,13.8553,13.8653,13.8798,13.8995,13.9011,13.9056,13.9141,13.9341,13.9352,13.9329,13.9368,13.9617,13.9762,13.9859,13.9941,13.9941,13.9941,13.9941,13.9941,13.9941,13.9941,13.9941,14.0093,14.1232,14.3358,14.6168,14.6547,14.6471,14.7383,14.799,14.632,14.7534,14.837,14.7458,14.8597,14.8597,14.7762,14.8749,14.837,14.7534,14.7155,14.7231,14.7231,14.7231,14.7003,14.6168,14.5484,14.3966,14.2219,14.0625,13.9941,13.9941,13.9941,14.0169,14.0164,14.0003,13.9987,14.0045,14.0099,14.0089,14.016,14.0691,14.0615,14.0994,14.1298,14.0767,13.9932,13.72,13.4696,13.3482,13.224,13.0559,12.9638,12.9855,12.9159,12.8874,12.9216,12.9291,12.8767,12.8692,12.8393,12.8319,12.8817,12.8717,12.8788,12.9226,12.9833,13.0241,13.0645,13.1002,13.1418,13.1387,13.1016,13.1684,13.3095,13.2724,13.1981,13.3021,13.4432,13.7815,13.7815,13.7815,13.7815,13.7815,13.7815,13.7815,13.7815,13.7842,13.7842,13.7815,13.7868,13.8022,13.8231,13.8429,13.8633,13.8908,13.8596,13.8873,13.9221,13.9306,13.949,13.9674,13.9827,13.9758,13.9643,13.9805,13.9929,13.9941,13.9941,13.9941,13.9941,13.9941,13.9941,13.9941,13.9941,13.9941,13.9941,14.0017,14.1612,14.4193,14.632,14.6699,14.5484,14.556,14.5864,14.4801,14.594,14.6016,14.5864,14.594,14.594,14.5636,14.5788,14.5181,14.4042,14.4877,14.5408,14.5484,14.5484,14.5029,14.4118,14.3282,14.2143,14.0852,14.0321,13.9941,13.9941,13.9941,13.9941,13.9937,13.9927,13.9914,13.9973,13.9952,13.9932,13.9932,13.9932,13.9932,13.9932,13.9932,13.9477,13.8414,13.6062,13.4165,13.2875,13.1585,12.9836,12.9221,12.9018,12.8733,12.8331,12.8143,12.8068,12.8094,12.8094,12.8094,12.8094,12.8094,12.8069,12.8168,12.8161,12.8073,12.838,12.889,12.9501,12.9783,12.9902,12.9902,13.0347,13.1461,13.1907,13.1684,13.2353,13.3021,13.7815,13.7815,13.7815,13.7815,13.7815,13.7815,13.7896,13.802,13.8143,13.8186,13.8365,13.8408,13.8478,13.8616,13.8672,13.8883,13.9141,13.9127,13.9318,13.9538,13.9674,13.9801,13.9921,13.9952,13.9969,13.9914,13.9933,13.9941,13.9941,13.9941,13.9941,13.9941,13.9941,13.9941,13.9941,13.9941,13.9941,13.9941,14.0017,14.0852,14.2447,14.3206,14.3434,14.3282,14.389,14.3966,14.3434,14.3738,14.4573,14.4042,14.4497,14.4421,14.3814,14.313,14.2143,14.184,14.2827,14.3814,14.3814,14.3738,14.3434,14.2447,14.1688,14.0852,14.0245,13.9941,13.9941,13.9941,13.9941,13.9941,13.994,13.9935,13.9925,13.9908,13.9965,13.9947,13.9937,13.9932,13.9932,13.9932,13.9325,13.8262,13.7048,13.5455,13.3709,13.2192,13.0902,13.0028,12.9344,12.8991,12.8765,12.8403,12.8212,12.8141,12.8094,12.8094,12.8094,12.8094,12.8094,12.8069,12.8069,12.8042,12.7734,12.7394,12.7459,12.7968,12.8356,12.8713,12.8936,12.9307,12.9605,12.9902,13.0644,13.1313,13.1536,13.7815,13.7815,13.7815,13.7868,13.7946,13.7946,13.8116,13.8492,13.8458,13.8672,13.89,13.9008,13.8932,13.9026,13.9041,13.9168,13.9341,13.9519,13.9712,13.9915,13.9927,13.9932,13.9952,13.9973,13.9914,13.9927,13.9938,13.9941,13.9941,13.9941,13.9941,13.9941,13.9941,13.9941,13.9941,13.9941,13.9941,13.9941,13.9941,14.0321,14.0852,14.1004,14.0549,14.0777,14.2523,14.2371,14.1308,14.2599,14.351,14.2371,14.3434,14.3206,14.2219,14.0928,14.0397,14.0397,14.146,14.2067,14.2067,14.2067,14.2067,14.1764,14.0928,14.0093,13.9941,13.9941,13.9941,13.9941,13.9941,13.9941,13.9941,13.9939,13.9933,13.992,13.9977,13.9961,13.9942,13.9932,13.9856,13.9173,13.8262,13.7276,13.5986,13.4544,13.3254,13.2192,13.0826,12.9831,12.9268,12.8934,12.8683,12.8484,12.8229,12.8141,12.8094,12.8094,12.8094,12.8094,12.8045,12.802,12.7944,12.7892,12.7739,12.7422,12.7385,12.7402,12.7316,12.7406,12.7748,12.8119,12.7822,12.7451,12.8565,12.9679,12.9976,13.7815,13.7815,13.7815,13.8022,13.8299,13.8321,13.8478,13.8833,13.8866,13.8932,13.904,13.9024,13.9168,13.9283,13.9318,13.9329,13.9394,13.9538,13.9704,13.9932,13.9952,13.9961,13.9973,13.9917,13.9933,13.9936,13.9941,13.9941,13.9941,13.9941,13.9941,13.9941,13.9941,13.9941,13.9941,13.9941,13.9941,14.0017,14.0093,14.0625,14.1536,14.0701,14.0245,14.0169,14.1156,14.0549,14.0473,14.0625,14.0852,14.0397,14.0625,14.0549,14.0321,14.0017,13.9941,13.9941,14.0245,14.0625,14.0625,14.0549,14.0473,14.0321,14.0017,13.9941,13.9941,13.9941,13.9941,13.9941,13.9941,13.9941,13.9941,13.994,13.9933,13.992,13.998,13.9961,13.9942,13.9932,13.9249,13.8338,13.7428,13.6289,13.4999,13.3482,13.2875,13.2111,13.0745,12.9617,12.9169,12.8829,12.8618,12.8416,12.8183,12.8119,12.8094,12.8094,12.8069,12.802,12.7944,12.7866,12.7713,12.766,12.7579,12.7366,12.7282,12.7299,12.7212,12.7183,12.7154,12.7154,12.7228,12.7451,12.7748,12.8045,12.9456,13.7997,13.7842,13.7972,13.8231,13.8408,13.845,13.8727,13.9141,13.9195,13.9271,13.9449,13.947,13.9529,13.9682,13.9682,13.9682,13.9682,13.9682,13.9801,13.9927,13.9961,13.9969,13.9977,13.9931,13.9941,13.9941,13.9941,13.9941,13.9941,13.9941,13.9941,13.9941,13.9941,13.9941,13.9941,13.9941,13.9941,14.0017,14.0777,14.1612,14.2295,14.1688,14.1308,14.1232,14.0397,13.9941,13.9941,13.9941,13.9941,13.9941,14.0017,13.9941,13.9941,13.9941,13.9941,13.9941,13.9941,13.9941,13.9941,13.9941,13.9941,14.0017,13.9941,13.9941,13.9941,13.9941,13.9941,13.9941,13.9941,13.9941,13.9941,13.9941,13.9936,13.9925,13.9911,13.9973,13.9942,13.9932,13.9325,13.7807,13.6593,13.5303,13.3785,13.1964,13.1205,13.1205,12.991,12.9706,12.9181,12.889,12.8636,12.8353,12.8212,12.8119,12.8094,12.8094,12.8045,12.7994,12.7918,12.7713,12.7633,12.7477,12.7366,12.731,12.7253,12.7196,12.7138,12.7183,12.7154,12.7154,12.7228,12.7599,12.7822,12.7748,12.8713,13.8365,13.8119,13.8429,13.8558,13.8635,13.8559,13.8935,13.951,13.9519,13.9666,13.9909,13.9927,13.9927,13.9927,13.9921,13.9932,13.9921,13.9921,13.9932,13.9937,13.9961,13.9977,13.9917,13.9937,13.9941,13.9941,13.9941,13.9941,13.9941,13.9941,13.9941,13.9941,13.9941,13.9941,13.9941,13.9941,13.9941,14.0169,14.1156,14.1688,14.1764,14.1688,14.1612,14.1536,14.0549,13.9941,13.9941,13.9941,13.9941,13.9941,13.9941,13.9941,13.9941,13.9941,13.9941,13.9941,13.9941,13.9941,13.9941,13.9941,13.9941,13.9941,13.9941,13.9941,13.9941,13.9941,13.9941,13.9941,13.9941,13.9941,13.9941,13.9941,13.9941,13.9925,13.9917,13.9905,13.9871,13.9628,13.8566,13.6972,13.5379,13.3709,13.204,13.0598,13.0219,12.9996,12.9737,12.9686,12.9365,12.9018,12.8689,12.8341,12.8164,12.8094,12.8094,12.8094,12.8069,12.8045,12.7892,12.7686,12.7633,12.7552,12.7282,12.7225,12.7225,12.7167,12.7183,12.7154,12.7154,12.7154,12.7154,12.7376,12.7451,12.7302,12.7748,13.8883,13.885,13.8883,13.907,13.9246,13.9295,13.9384,13.9815,13.9897,13.9915,13.9921,13.9927,13.9915,13.9932,13.9833,13.9927,13.9927,13.9927,13.9932,13.9947,13.9973,13.9923,13.9931,13.9939,13.9941,13.9941,13.9941,13.9941,13.9941,13.9941,13.9941,13.9941,13.9941,13.9941,13.9941,13.9941,13.9941,14.0017,14.0549,14.0852,14.0852,14.0852,14.0928,14.0777,14.0245,13.9941,13.9941,13.9941,13.9941,13.9941,13.9941,13.9941,13.9941,13.9941,13.9941,13.9941,13.9941,13.9941,13.9941,13.9941,13.9941,13.9941,13.9941,13.9941,13.9941,13.9941,13.9941,13.9941,13.9941,13.9941,13.9941,13.9941,13.9941,13.9925,13.9917,13.998,13.9719,13.8642,13.7048,13.5379,13.3709,13.204,13.0674,12.9915,12.9844,12.9844,12.9731,12.9541,12.9146,12.8905,12.8599,12.8297,12.8164,12.8094,12.8094,12.8094,12.8094,12.8094,12.7843,12.7739,12.7686,12.7524,12.7299,12.7109,12.7138,12.7138,12.7154,12.7154,12.7154,12.7154,12.7154,12.7154,12.7154,12.7154,12.7154,13.8553,13.8343,13.8518,13.885,13.9127,13.9155,13.9306,13.9649,13.9821,13.9821,13.9666,13.9657,13.9657,13.9657,13.9582,13.9582,13.9674,13.9821,13.9927,13.9937,13.9965,13.992,13.9935,13.9768,13.9777,13.9941,13.9941,13.9941,13.9941,13.9941,13.9941,13.9941,13.9941,13.9941,13.9941,13.9941,13.9941,14.0093,14.0928,14.146,14.146,14.1384,14.1384,14.1232,14.0397,13.9941,13.9941,13.9941,13.9941,13.9941,13.9941,13.9941,13.9941,13.9941,13.9941,13.9941,13.9941,13.9941,13.9941,13.9941,13.9941,13.9941,13.9941,13.9941,13.9941,13.9941,13.9941,13.9941,13.9941,13.9941,13.9941,13.9941,13.9941,13.9925,13.9917,13.9525,13.8495,13.7807,13.6289,13.4165,13.2723,13.1736,13.0067,12.9915,12.9844,12.9829,12.9706,12.9355,12.8977,12.8808,12.8562,12.8297,12.8119,12.8094,12.8094,12.8094,12.8094,12.8094,12.7994,12.7869,12.7739,12.7552,12.7356,12.7183,12.7183,12.7154,12.7154,12.7154,12.7154,12.7154,12.7154,12.7154,12.7154,12.7154,12.7154,13.8408,13.8214,13.8396,13.8709,13.8932,13.9024,13.9099,13.9295,13.9614,13.949,13.9318,13.9283,13.9318,13.9373,13.9384,13.9414,13.9556,13.9704,13.9808,13.9808,13.9815,13.9785,13.9729,13.9639,13.967,13.9781,13.9865,13.9941,13.9941,13.9941,13.9941,13.9941,13.9941,13.9941,13.9941,13.9941,13.9941,14.0169,14.1232,14.1688,14.1688,14.1688,14.184,14.1688,14.0625,14.0017,13.9941,13.9941,13.9941,13.9941,13.9941,13.9941,13.9941,13.9941,13.9941,13.9941,13.9941,13.9941,13.9941,13.9941,13.9941,13.9941,13.9941,13.9941,13.9941,13.9941,13.9941,13.9941,13.9941,13.9941,13.9941,13.9941,13.9941,13.9931,13.9389,13.8686,13.7666,13.6669,13.5227,13.2875,13.1964,13.1129,13.0143,12.9839,12.9829,12.9706,12.9609,12.9355,12.8904,12.8599,12.8464,12.8206,12.8094,12.8094,12.8094,12.8094,12.8094,12.8094,12.7845,12.7721,12.7493,12.7308,12.7264,12.7138,12.7034,12.7079,12.7079,12.7005,12.7079,12.7154,12.7154,12.7154,12.7154,12.7005,12.6931,13.89,13.89,13.8975,13.8883,13.8991,13.8916,13.8932,13.898,13.9041,13.9041,13.8995,13.898,13.9127,13.9318,13.9219,13.9394,13.9801,13.9547,13.9384,13.9341,13.9295,13.9234,13.9242,13.9454,13.9536,13.9648,13.9775,13.9941,13.9865,13.9865,13.9941,13.9941,13.9941,13.9941,13.9941,13.9941,13.9941,13.9941,14.0093,14.0245,14.0245,14.0245,14.0245,14.0245,14.0093,13.9941,13.9941,13.9941,13.9941,13.9941,13.9941,13.9941,13.9941,13.9941,13.9941,13.9941,13.9941,13.9941,13.9941,13.9941,13.9941,13.9941,13.9941,13.9941,13.9941,13.9941,13.9941,13.9941,13.9941,13.9941,13.9941,13.9789,13.9638,13.9637,13.8328,13.7616,13.7129,13.462,13.3102,13.2192,13.0978,12.992,12.9996,12.9829,12.97,12.9533,12.943,12.9094,12.8707,12.8484,12.8353,12.8206,12.8119,12.8094,12.8094,12.8094,12.8094,12.787,12.7272,12.7048,12.6873,12.6941,12.7003,12.6956,12.6812,12.7034,12.7005,12.6708,12.6708,12.6931,12.7154,12.7154,12.7005,12.6708,12.6634,13.8254,13.8254,13.8254,13.8333,13.8577,13.8596,13.8596,13.8635,13.885,13.8815,13.8635,13.8596,13.8691,13.8705,13.874,13.8824,13.9011,13.9113,13.895,13.8757,13.8757,13.8727,13.8635,13.9107,13.9413,13.943,13.9553,13.9581,13.9581,13.9581,13.9623,13.9673,13.968,13.9773,13.9941,13.9941,13.9941,13.9941,13.9941,13.9941,13.9941,13.9941,13.9941,13.9941,13.9941,13.9941,13.9941,13.9941,13.9941,13.9941,13.9941,13.9941,13.9941,13.9941,13.9941,13.9941,13.9941,13.9941,13.9941,13.9941,13.9941,13.9941,13.9941,13.9941,13.9941,13.9941,13.9941,13.9941,13.9865,13.9941,13.9713,13.9105,13.7888,13.6973,13.6194,13.587,13.5554,13.3719,13.2116,13.0897,13.0289,12.9996,12.9824,12.9713,12.9516,12.943,12.9107,12.8671,12.86,12.8278,12.8229,12.8117,12.772,12.7571,12.787,12.787,12.787,12.7197,12.63,12.5952,12.5728,12.5799,12.6041,12.585,12.5652,12.5697,12.6262,12.6114,12.5965,12.6782,12.7154,12.6782,12.6337,12.6188,12.5817,13.7815,13.7815,13.7815,13.7972,13.8186,13.8209,13.8209,13.8254,13.8458,13.8513,13.8254,13.8209,13.8299,13.8408,13.8429,13.8513,13.8558,13.8613,13.8533,13.8299,13.8375,13.8386,13.8374,13.8833,13.9182,13.9259,13.9341,13.9373,13.9384,13.9384,13.9444,13.9469,13.9491,13.9617,13.9713,13.9756,13.9771,13.9855,13.9781,13.9862,13.9941,13.9941,13.9941,13.9941,13.9941,13.994,13.9859,13.9857,13.9633,13.9106,13.9182,13.8954,13.865,13.8954,13.9182,13.9258,13.9638,13.9941,13.9941,13.9941,13.9789,13.9258,13.9106,13.8954,13.8575,13.8347,13.8271,13.8271,13.8347,13.8422,13.8193,13.7278,13.6285,13.5056,13.4432,13.3961,13.3202,13.2201,13.0815,12.9415,12.9285,12.9262,12.8927,12.8637,12.8098,12.752,12.7074,12.6755,12.6647,12.6287,12.6548,12.6524,12.6524,12.6075,12.5701,12.5477,12.5552,12.5103,12.4481,12.4158,12.401,12.4034,12.4278,12.4267,12.4074,12.4286,12.4925,12.5148,12.5,12.5371,12.5742,12.5742,12.552,12.5074,12.448,13.7815,13.7815,13.7815,13.7842,13.7894,13.7894,13.7842,13.7894,13.792,13.7896,13.7871,13.7868,13.8071,13.8321,13.8343,13.8613,13.8653,13.8186,13.7896,13.7946,13.8071,13.8218,13.8218,13.8504,13.8747,13.8948,13.9234,13.9341,13.9306,13.9306,13.9329,13.9362,13.9384,13.9404,13.9404,13.9444,13.9506,13.953,13.9553,13.967,13.9865,13.9865,13.9865,13.9865,13.9638,13.9396,13.933,13.9178,13.8455,13.7511,13.736,13.6676,13.5841,13.6676,13.7436,13.7663,13.8878,13.9713,13.9713,13.9562,13.8726,13.7815,13.7436,13.6904,13.5993,13.5613,13.5537,13.5534,13.5457,13.5227,13.5372,13.4676,13.4211,13.4584,13.2561,13.1254,13.036,12.9834,12.9112,12.7737,12.7784,12.8042,12.7046,12.6606,12.6052,12.4847,12.4255,12.4136,12.4018,12.3954,12.3383,12.3359,12.3883,12.4355,12.3757,12.3084,12.306,12.2986,12.2387,12.2065,12.1819,12.2442,12.2689,12.2134,12.1918,12.1937,12.2577,12.2326,12.2474,12.3737,12.3811,12.396,12.2994,12.1955,12.1955,13.7815,13.7815,13.7815,13.7815,13.7815,13.7815,13.7815,13.7815,13.7815,13.7815,13.7815,13.7815,13.792,13.7972,13.7997,13.8044,13.8116,13.7922,13.7815,13.7842,13.7997,13.8072,13.8122,13.8359,13.8558,13.8553,13.8747,13.8838,13.8838,13.8838,13.8959,13.9024,13.9113,13.9195,13.9352,13.9373,13.9404,13.9453,13.9395,13.9422,13.9545,13.956,13.956,13.9256,13.7291,13.6057,13.6002,13.5016,13.4677,13.5085,13.434,13.4078,13.4819,13.5533,13.5841,13.5917,13.6373,13.66,13.6524,13.6524,13.6297,13.5765,13.5765,13.5689,13.5234,13.5082,13.5006,13.4927,13.4925,13.4922,13.4296,13.1574,12.9182,12.8236,12.7335,12.6987,12.763,12.6714,12.623,12.6273,12.6092,12.5459,12.4917,12.466,12.425,12.3766,12.3378,12.3239,12.3033,12.306,12.306,12.2986,12.2836,12.2687,12.2112,12.0467,11.9794,11.9719,11.9345,11.935,11.9504,12.0576,12.0899,12.0098,11.9742,11.9688,11.9559,11.9234,12.0246,12.2029,12.1955,12.1063,12.0098,11.8808,11.8455,13.7815,13.7815,13.7815,13.7815,13.7815,13.7815,13.7815,13.7815,13.7815,13.7815,13.7815,13.7815,13.7815,13.774,13.6619,13.6095,13.6095,13.6095,13.6095,13.6121,13.625,13.63,13.625,13.6517,13.6557,13.6557,13.6624,13.6765,13.6786,13.6829,13.6918,13.7068,13.7104,13.7206,13.7317,13.7346,13.7416,13.7418,13.743,13.7478,13.749,13.7566,13.6872,13.5498,13.3367,13.2348,13.2447,13.1475,13.1141,13.1591,13.0692,13.0443,13.092,13.1148,13.1706,13.2997,13.4304,13.492,13.4844,13.4844,13.4621,13.417,13.4016,13.3791,13.3335,13.2728,13.265,13.2796,13.2641,13.1768,13.0553,12.7973,12.5548,12.48,12.4315,12.4496,12.4571,12.3904,12.3439,12.4164,12.3696,12.2969,12.2802,12.2695,12.2293,12.1823,12.1419,12.1186,12.1289,12.1289,12.114,12.1215,12.1289,12.0916,12.0018,11.7625,11.6504,11.6504,11.6481,11.6585,11.6343,11.7094,11.7444,11.6473,11.6666,11.6613,11.604,11.579,11.6013,11.7721,11.8464,11.7721,11.7275,11.5939,11.5189,13.7591,13.7516,13.7591,13.7441,13.7516,13.7441,13.7516,13.7292,13.7441,13.7516,13.7367,13.7441,13.7516,13.7217,13.4525,13.3004,13.3029,13.3179,13.3254,13.3254,13.3155,13.3079,13.3178,13.3147,13.3269,13.3742,13.3689,13.3585,13.377,13.3705,13.3671,13.3767,13.3657,13.3562,13.3753,13.3697,13.3606,13.3691,13.3722,13.3855,13.4007,13.404,13.2433,12.9635,12.8824,12.9048,12.9177,12.907,12.844,12.7168,12.7234,12.6487,12.5142,12.5076,12.6676,12.9507,13.2589,13.4316,13.4089,13.3937,13.3362,13.2264,13.1547,13.116,12.9833,12.8541,12.8378,12.9584,12.8264,12.657,12.4885,12.423,12.3811,12.355,12.3571,12.291,12.1717,12.1584,12.1251,12.1358,12.1191,12.0926,12.0678,12.064,12.0012,11.9039,11.8246,11.8224,11.8298,11.8074,11.7999,11.7999,11.7775,11.6952,11.426,11.4111,11.3886,11.3939,11.4388,11.3671,11.3259,11.2994,11.2949,11.3024,11.3815,11.3837,11.2845,11.2671,11.319,11.3339,11.423,11.4305,11.3785,11.2745,11.2262,13.4301,13.4301,13.4301,13.4301,13.4301,13.4301,13.4301,13.4301,13.4301,13.4301,13.4301,13.4301,13.4301,13.4151,13.3403,13.2955,13.2955,13.2955,13.2955,13.2805,13.1734,13.1834,13.2657,13.0833,13.0904,13.2726,13.2046,13.2166,13.3187,13.2375,13.2364,13.3061,13.117,13.0684,13.1662,13.0609,13.0067,13.0181,13.0105,13.016,13.0266,13.0207,12.9801,12.8844,12.8654,12.8712,12.875,12.7714,12.7391,12.808,12.7116,12.6911,12.7733,12.7822,12.8289,12.944,13.0416,13.0367,12.9087,12.9087,12.8353,12.688,12.6548,12.6389,12.5963,12.5411,12.5372,12.5624,12.4175,12.3018,12.2198,12.2005,12.1462,12.048,11.9986,12.0345,12.0867,11.9819,11.949,12.0467,11.9514,11.8956,11.8867,11.8747,11.8597,11.7999,11.7027,11.6354,11.6279,11.5457,11.4784,11.4709,11.4709,11.426,11.3587,11.3064,11.3266,11.3341,11.2976,11.2834,11.2994,11.2874,11.2603,11.1065,11.2079,11.2002,11.0368,11.1408,11.2522,11.1408,11.1111,11.1185,11.0814,10.9774,10.9365,13.2955,13.2955,13.2955,13.2955,13.2955,13.2955,13.2955,13.2955,13.2955,13.2955,13.2805,13.1534,13.0936,13.101,13.0936,13.0936,13.101,13.101,13.101,13.0861,12.9964,12.9964,13.0711,12.9015,12.9114,13.0859,13.0182,13.0304,13.0973,13.0344,13.0411,13.1055,12.9585,12.912,12.9947,12.916,12.8654,12.8654,12.8654,12.8013,12.673,12.6559,12.6484,12.658,12.662,12.664,12.649,12.5777,12.5421,12.5571,12.4819,12.448,12.4854,12.4854,12.5251,12.603,12.5528,12.4673,12.3797,12.3732,12.3397,12.2518,12.2963,12.3321,12.3305,12.3266,12.2441,12.1221,12.0477,12.0132,12.0097,12.0007,11.9574,11.8804,11.8419,11.8335,11.891,11.7802,11.7177,11.7476,11.6803,11.6205,11.6205,11.6205,11.6205,11.6055,11.5457,11.4784,11.4709,11.3961,11.3341,11.3213,11.2017,11.1419,11.1194,11.1269,11.1194,11.1173,11.1161,11.1094,11.0831,11.0839,11.0395,10.928,10.975,10.9403,10.7917,10.9477,11.0368,10.97,10.9031,10.9031,10.9031,10.8363,10.7971,13.2431,13.2506,13.2431,13.2506,13.2431,13.2431,13.2356,13.2431,13.2506,13.2506,13.2057,12.944,12.8169,12.8094,12.8169,12.8244,12.8244,12.8094,12.8169,12.8244,12.7945,12.7945,12.8244,12.772,12.7795,12.8169,12.8044,12.8117,12.8586,12.8361,12.8258,12.8072,12.8031,12.802,12.8191,12.8143,12.8183,12.8163,12.8484,12.7106,12.4119,12.3873,12.3798,12.3669,12.3849,12.3835,12.3855,12.3784,12.309,12.1736,12.1736,12.0834,11.9405,11.9105,11.9706,12.1003,11.98,11.887,11.9183,11.8998,11.9041,11.9111,12.0136,12.0754,12.077,12.0865,11.938,11.7039,11.7031,11.764,11.7723,11.767,11.7543,11.7309,11.7446,11.7177,11.5928,11.5457,11.4933,11.3438,11.3812,11.3341,11.3662,11.3737,11.3587,11.3886,11.3438,11.3064,11.3064,11.269,11.2391,11.2092,11.0447,10.8652,10.8577,10.8278,10.8727,10.8577,10.8247,10.8459,10.8541,10.8306,10.7693,10.8165,10.8041,10.8214,10.7669,10.7669,10.7892,10.8066,10.7991,10.7769,10.7669,10.7593,10.7382,12.9216,12.9216,12.9216,12.9216,12.9216,12.9216,12.9141,12.9216,12.9216,12.9216,12.9141,12.8468,12.8094,12.8094,12.8094,12.8094,12.8094,12.8094,12.8094,12.7945,12.6748,12.6823,12.7795,12.5327,12.5552,12.772,12.6748,12.6847,12.8068,12.8143,12.7518,12.6287,12.5125,12.5191,12.6487,12.5392,12.4736,12.4804,12.7109,12.8063,12.7269,12.7247,12.6594,12.5544,12.5362,12.4879,12.3685,12.363,12.3539,12.324,12.3259,12.2488,12.0834,12.0684,12.0308,11.9405,11.8954,11.8765,11.8777,11.774,11.651,11.5309,11.5456,11.5666,11.5639,11.5507,11.4899,11.414,11.4347,11.4559,11.4559,11.4485,11.441,11.441,11.441,11.4335,11.3961,11.3886,11.3662,11.3438,11.3266,11.3192,11.3266,11.3266,11.3117,11.2914,11.2167,11.144,11.1216,11.0148,10.9475,10.925,10.8802,10.8278,10.8278,10.8278,10.8278,10.8278,10.8033,10.7922,10.7928,10.7839,10.767,10.767,10.7694,10.7694,10.7669,10.7669,10.7669,10.7669,10.7669,10.7669,10.7619,10.7211,10.655,12.8094,12.8094,12.8094,12.8094,12.8094,12.8094,12.8094,12.7945,12.6449,12.5776,12.5776,12.5776,12.5776,12.5776,12.5776,12.5776,12.5776,12.5776,12.5776,12.5701,12.4804,12.5327,12.6673,12.5103,12.5552,12.787,12.7122,12.7197,12.8019,12.8094,12.7694,12.6844,12.6017,12.601,12.688,12.5512,12.5008,12.5597,12.5178,12.5284,12.589,12.5164,12.4415,12.3613,12.2833,12.2073,12.1236,12.1277,12.0661,11.9275,11.9951,11.9293,11.6981,11.7526,11.7526,11.6623,11.5871,11.542,11.542,11.3916,11.2563,11.1736,11.2262,11.247,11.1684,11.2121,11.2361,11.226,11.2904,11.3266,11.3266,11.3266,11.3266,11.3266,11.3266,11.3064,11.2316,11.2167,11.1867,11.112,11.1045,11.1045,11.1045,11.097,11.1045,11.097,11.0297,10.9624,10.9549,10.8802,10.8278,10.8278,10.8278,10.8278,10.8278,10.8236,10.8215,10.8215,10.7996,10.7859,10.7836,10.7768,10.7694,10.7669,10.7669,10.7669,10.7669,10.7669,10.7669,10.7669,10.7669,10.7468,10.7184,10.6837,10.5982,12.8094,12.8019,12.787,12.772,12.772,12.7496,12.7421,12.7122,12.4355,12.306,12.306,12.306,12.306,12.306,12.306,12.306,12.306,12.306,12.2935,12.271,12.271,12.3383,12.4505,12.458,12.5327,12.6599,12.6673,12.6673,12.6673,12.6599,12.6748,12.6599,12.6673,12.6671,12.6765,12.5553,12.5747,12.7427,12.3366,12.1778,12.2986,12.1738,12.0864,12.034,11.9106,11.8176,11.7673,11.7778,11.6434,11.3603,11.4974,11.426,11.1025,11.2337,11.2864,11.2187,11.0984,11.0365,11.029,10.9254,10.8561,10.8954,11.0215,11.0331,10.8648,10.9907,11.0787,11.0687,11.1707,11.2615,11.2615,11.2466,11.2391,11.254,11.254,11.2017,11.0617,11.0468,10.9944,10.8652,10.8278,10.8428,10.8577,10.8502,10.8577,10.8353,10.8652,10.8353,10.8428,10.8278,10.8278,10.8278,10.8278,10.8278,10.8278,10.8194,10.8129,10.8107,10.7905,10.7667,10.7667,10.7694,10.7694,10.7669,10.7669,10.7644,10.7468,10.7494,10.739,10.7258,10.7157,10.7076,10.6551,10.6239,10.573,12.8094,12.7945,12.6599,12.6,12.5926,12.458,12.3883,12.3907,12.3285,0.0,0.0,12.306,12.306,12.306,12.306,12.306,12.306,12.306,12.2336,12.1163,12.1163,12.0565,11.9495,11.9495,11.9644,11.9943,11.9943,11.9943,11.9943,11.9943,11.9943,11.9943,11.9943,11.9966,11.9914,11.9824,12.1097,12.3753,12.3108,12.2785,12.2986,12.2785,12.1364,11.8672,11.8321,11.6966,11.4378,11.4249,11.341,11.1783,11.3209,11.2063,10.7649,10.8845,10.7901,10.4157,10.4668,10.5269,10.5344,10.6322,10.745,10.8787,10.9087,10.8585,10.6775,10.8145,10.9063,10.891,10.9034,10.9175,10.9175,10.9175,10.9175,10.9175,10.9175,10.9101,10.8802,10.8652,10.8652,10.8353,10.8278,10.8278,10.8278,10.8278,10.8278,10.8278,10.8278,10.8278,10.8278,10.8278,10.8278,10.8278,10.8278,10.8278,10.8278,10.8194,10.8107,10.8107,10.7905,10.7667,10.7643,10.7694,10.7694,10.7644,10.7669,10.739,10.6865,10.6752,10.6506,10.6066,10.5899,10.594,10.5707,10.5241,10.457,12.5552,12.5477,12.4654,12.4281,0.0,12.3458,12.2112,12.0616,12.0542,12.0616,12.0616,12.0616,12.0616,12.0616,12.0616,12.0616,12.0616,12.0616,12.0168,11.942,11.942,11.942,11.9518,11.9443,11.9892,12.0616,12.0691,12.0691,12.0616,12.0616,12.0691,12.0691,12.0691,11.9794,11.8298,11.9862,12.0121,11.8811,11.913,11.9719,12.0542,11.9719,11.8523,11.6952,11.6205,0.0,0.0,0.0,0.0,0.0,0.0,0.0,0.0,10.6765,0.0,10.1688,10.0604,10.0137,10.0212,10.0888,10.2449,10.4761,10.4986,10.4651,10.3738,10.5183,10.6382,10.7108,10.7123,10.7381,10.8129,10.8278,10.8278,10.8278,10.8278,10.8278,10.8278,10.8278,10.8278,10.8278,10.8278,10.8278,10.8278,10.8278,10.8278,10.8278,10.8278,10.8278,10.8278,10.8278,10.8278,10.8278,10.8278,10.8278,10.8278,10.8194,10.8107,10.8085,10.7831,10.7691,10.7667,10.7694,10.7593,10.7184,10.7103,10.6837,10.6209,10.6024,10.593,10.5642,10.5543,10.5343,10.4569,10.4157,10.3801,12.306,12.306,12.271,12.2635,12.2561,12.2262,12.0616,11.8149,11.8149,11.8149,11.8149,11.8149,11.8149,11.8149,11.8149,11.8149,11.8149,11.8149,11.7999,11.77,11.77,11.8298,11.9293,11.927,12.0018,12.1116,12.1215,12.1191,12.1215,12.1215,12.1215,12.1215,12.1215,11.9822,11.7338,0.0,0.0,0.0,11.5307,11.6299,11.7269,11.6001,11.4957,11.436,11.3166,0.0,11.2047,11.2047,11.1347,10.9794,11.0211,0.0,0.0,0.0,0.0,0.0,0.0,0.0,0.0,0.0,0.0,0.0,9.9578,9.986,10.1153,10.2412,10.3665,10.4838,10.5586,10.6334,10.7231,10.7381,10.7456,10.7755,10.7829,10.7979,10.8203,10.8278,10.8278,10.8278,10.8278,10.8278,10.8278,10.8278,10.8278,10.8278,10.8278,10.8278,10.8278,10.8278,10.8278,10.8278,10.8278,10.8278,10.8257,10.8076,10.7989,10.8019,10.7836,10.7669,10.7472,10.742,10.7184,10.6551,10.6359,10.6148,10.5477,10.5343,10.5275,10.5138,10.5069,10.4823,10.3673,10.346,10.3419,12.306,12.2935,12.1589,12.099,12.0841,11.942,11.8597,11.8149,11.8149,11.8149,11.8149,11.8149,11.8149,11.8149,11.8149,11.8149,11.8149,11.8149,11.7401,11.598,11.598,11.5382,11.4335,11.426,11.441,11.4537,11.4559,11.4559,11.4634,11.4634,11.4537,11.4559,11.4559,11.4034,11.312,11.5742,11.6035,11.3891,11.5341,11.5549,11.4324,11.4028,11.2625,10.9893,10.9523,10.8785,10.7501,10.7427,10.6615,10.5092,10.6877,10.657,10.3591,10.2146,9.9451,0.0,9.1581,0.0,0.0,0.0,0.0,0.0,0.0,0.0,0.0,10.1176,10.1324,10.1529,10.424,10.5437,10.4165,10.4016,10.4614,10.6035,10.6184,10.6783,10.8054,10.8278,10.8278,10.8278,10.8278,10.8278,10.8203,10.8278,10.8278,10.8278,10.8129,10.7958,10.8203,10.8108,10.8087,10.8278,10.8278,10.8076,10.7989,10.7922,10.7808,10.7691,10.7595,10.7468,10.6763,10.6724,10.6448,10.5835,10.5674,10.541,10.4606,10.457,10.4311,10.388,10.3762,10.3714,10.343,10.3419,10.3419,12.0392,12.0243,11.9644,11.8085,11.6053,11.5307,11.5153,11.5532,11.5457,11.5457,11.5457,11.5457,11.5457,11.5606,11.6429,11.6728,11.6878,11.7775,11.7775,11.7102,11.7027,11.6728,11.6055,11.6055,11.6055,11.6055,11.6055,11.6055,11.6033,11.5703,11.5482,11.5482,11.51,11.3254,11.0085,11.1098,11.1743,11.1857,11.2623,11.2851,11.246,11.2416,11.1679,11.0352,11.0279,10.991,10.9217,10.9217,10.8849,10.8141,10.7399,10.6059,10.3882,9.9079,9.4199,0.0,0.0,0.0,0.0,0.0,0.0,0.0,0.0,0.0,0.0,0.0,9.7192,9.8108,10.2894,10.4838,10.2276,10.2874,10.2969,10.1942,10.1847,10.2445,10.4016,10.4988,10.5586,10.5586,10.6409,10.6932,10.6932,10.6932,10.7306,10.8129,10.6561,10.5535,10.6289,10.6374,10.6503,10.7371,10.7397,10.7271,10.722,10.7015,10.6882,10.6745,10.665,10.6551,10.6178,10.6055,10.5771,10.5103,10.4893,10.4679,10.4036,10.388,10.3762,10.3471,10.3419,10.3419,10.3419,10.3419,10.3419,11.6549,11.6549,11.5852,11.3992,11.1574,11.16,11.2105,11.2872,11.2872,11.2695,11.2467,11.2937,11.246,11.1415,11.2259,11.3103,11.3895,11.5165,11.6234,11.7027,11.7027,11.6907,11.6791,11.6441,11.6371,11.6499,11.5828,11.5828,11.645,11.535,11.4912,11.5154,11.3724,11.0513,10.5814,10.629,10.7456,10.895,10.9752,11.0429,11.0887,11.0479,11.0112,10.9745,10.9745,10.9745,10.9745,10.9745,10.963,10.9116,10.6374,10.4151,10.2739,9.5189,0.0,0.0,0.0,0.0,0.0,0.0,0.0,0.0,0.0,8.4467,8.5341,0.0,9.2093,0.0,10.0049,10.263,10.0557,10.0761,0.0,0.0,9.7135,9.7395,9.9392,10.0736,10.1802,10.2624,10.3839,10.4811,10.5205,10.5205,10.5803,10.7297,10.5126,10.3583,10.4352,10.4449,10.4831,10.5523,10.5406,10.5299,10.5254,10.5373,10.5517,10.5815,10.5762,10.5674,10.5437,10.5304,10.5034,10.4311,10.4195,10.3964,10.3512,10.3419,10.346,10.3419,10.3104,10.292,10.3348,10.3419,10.3419,11.1931,11.171,10.8953,10.838,10.9318,10.9432,11.0245,11.1488,11.1488,11.0893,10.991,11.1631,10.9949,10.5759,10.4421,0.0,10.869,10.8862,11.0593,11.3737,11.3737,11.3437,11.2774,11.1312,11.1129,11.1857,10.9035,10.9109,11.1739,10.9165,10.8426,10.9556,10.5483,10.1713,9.875,10.128,10.3413,10.5039,10.8003,10.9521,10.9526,10.8079,10.6559,10.5222,10.5113,10.5149,10.5113,10.5149,10.4462,10.2978,10.059,9.8487,9.6786,0.0,0.0,0.0,0.0,0.0,0.0,0.0,0.0,0.0,0.0,0.0,0.0,0.0,0.0,9.0628,9.4363,0.0,9.8557,9.5957,0.0,0.0,0.0,9.2447,9.5592,9.5942,9.725,10.0367,0.0,0.0,10.3031,10.3254,10.3873,10.5588,10.5021,10.3979,10.2845,10.3447,10.3801,10.2803,10.217,10.1901,10.2227,10.2798,10.3765,10.4959,10.5576,10.5095,10.4534,10.4424,10.4233,10.3673,10.3471,10.343,10.3389,10.3134,10.3348,10.3063,10.2105,10.1605,10.2747,10.2991,10.2991,10.6062,10.0048,9.9819,9.9773,9.9879,10.0862,10.2902,10.5442,10.4483,10.4373,10.4858,10.3808,10.1757,9.8986,9.7445,0.0,0.0,0.0,10.5039,10.8164,10.8164,10.8486,10.8887,10.8295,10.8232,10.8523,10.7297,10.7785,10.9969,10.8358,10.3397,9.5046,0.0,9.0525,9.0316,9.3346,9.6197,9.8757,10.2003,10.4134,10.5073,10.4495,10.4278,10.4567,10.4567,10.4567,10.4567,10.4567,10.2978,9.944,9.6558,9.2632,0.0,0.0,0.0,0.0,0.0,0.0,0.0,0.0,0.0,0.0,0.0,7.5114,7.552,0.0,0.0,0.0,8.4973,8.6686,9.0319,9.2295,0.0,0.0,0.0,0.0,0.0,0.0,0.0,9.4136,9.8059,10.0847,10.1465,9.933,9.8251,9.9723,9.9858,9.9868,10.0051,0.0,10.0955,10.2364,10.1255,10.0597,10.1508,10.1163,10.0811,10.1426,10.2255,10.2391,10.1297,10.2582,10.3682,10.3471,10.3419,10.3419,10.3419,10.0138,9.7681,9.7681,9.7181,9.7324,9.8823,9.9179,9.9465,9.864,0.0,0.0,0.0,0.0,9.3061,9.5589,9.831,9.7282,9.7028,9.7292,9.5635,0.0,0.0,0.0,0.0,0.0,0.0,9.835,10.1855,10.2373,10.2977,10.3577,10.2767,10.2461,10.2654,10.1259,10.1699,10.3549,10.1341,9.4034,8.2237,0.0,0.0,0.0,0.0,8.9931,9.3534,9.7709,10.0451,10.1534,10.1606,10.2112,10.3267,10.3267,10.3267,10.3195,10.2329,9.9873,9.554,9.1529,0.0,0.0,0.0,0.0,0.0,0.0,0.0,0.0,0.0,0.0,0.0,0.0,0.0,0.0,0.0,0.0,0.0,0.0,0.0,8.2845,8.7418,8.7735,0.0,0.0,0.0,0.0,0.0,0.0,0.0,0.0,0.0,9.6047,9.4556,9.3943,0.0,0.0,9.5895,9.685,9.6979,9.7835,10.0221,9.872,0.0,9.8793,9.778,9.6982,9.7411,9.8368,9.8609,9.7538,9.9179,10.078,10.132,10.1034,10.0392,9.9322,9.5217,9.2544,9.3043,9.2792,9.3257,9.5146,9.5607,9.5821,0.0,0.0,0.0,0.0,8.5996,0.0,0.0,0.0,9.0726,8.9206,0.0,8.84,0.0,0.0,0.0,0.0,8.4955,8.6549,0.0,0.0,9.6376,9.6871,9.613,9.3308,9.2375,9.2822,8.8588,8.8009,9.0436,8.4678,0.0,0.0,0.0,0.0,0.0,0.0,8.5535,9.033,9.652,9.9873,9.991,9.991,10.0018,10.0127,10.0054,10.009,9.9945,9.7057,9.3879,9.063,8.4755,0.0,0.0,0.0,0.0,0.0,0.0,0.0,0.0,0.0,0.0,0.0,0.0,0.0,0.0,0.0,0.0,0.0,0.0,0.0,0.0,8.0675,0.0,0.0,0.0,0.0,0.0,0.0,0.0,0.0,0.0,8.508,8.542,8.9024,9.1786,9.1726,0.0,0.0,0.0,0.0,9.4694,9.5084,9.3476,9.2261,9.2404,9.2046,9.2401,9.3828,0.0,0.0,9.4042,9.4113,9.4827,9.6363,9.5398,9.3257,9.0332,8.8334,8.7942,9.0581,8.9939,9.0331,9.2891,9.3028,9.281,0.0,0.0,0.0,0.0,0.0,0.0,0.0,0.0,0.0,8.4278,8.4147,8.1825,0.0,0.0,0.0,0.0,0.0,0.0,0.0,0.0,8.4997,8.5563,8.6134,8.5046,8.4684,8.4925,8.3264,7.9841,0.0,0.0,0.0,0.0,0.0,0.0,0.0,0.0,8.1014,8.5811,9.1924,9.5589,9.6585,9.6656,9.7389,9.896,9.8998,9.7821,9.5188,9.2851,8.8281,0.0,0.0,0.0,0.0,0.0,0.0,0.0,0.0,0.0,0.0,0.0,0.0,0.0,0.0,0.0,0.0,0.0,0.0,0.0,0.0,0.0,0.0,0.0,7.7533,0.0,0.0,0.0,0.0,0.0,0.0,0.0,0.0,0.0,8.2447,8.3706,8.6245,9.0216,9.019,9.0477,9.2402,0.0,0.0,0.0,0.0,0.0,0.0,0.0,9.0189,9.076,9.0046,9.0046,9.2008,9.2364,9.2258,9.1759,0.0,0.0,8.4091,8.1912,8.081,8.0784,8.1179,8.2038,8.3825,8.4995,8.5737,0.0,0.0,0.0,0.0,0.0,0.0,0.0,0.0,0.0,7.6412,7.6637,0.0,0.0,0.0,0.0,0.0,0.0,0.0,0.0,0.0,0.0,0.0,7.7576,7.7126,0.0,0.0,0.0,0.0,0.0,0.0,0.0,0.0,0.0,0.0,0.0,0.0,7.7901,8.2616,8.9129,9.3042,9.4028,9.4099,9.4809,9.6506,9.6506,9.4856,9.1256,0.0,0.0,0.0,0.0,0.0,0.0,0.0,0.0,0.0,0.0,0.0,0.0,0.0,0.0,0.0,0.0,0.0,0.0,0.0,0.0,0.0,0.0,0.0,0.0,0.0,7.3483,0.0,0.0,0.0,0.0,0.0,0.0,0.0,0.0,0.0,0.0,7.8598,8.1054,8.6233,8.6849,8.7936,9.0929,9.029,9.0292,0.0,0.0,0.0,0.0,0.0,0.0,0.0,0.0,0.0,0.0,0.0,0.0,0.0,0.0,8.081,7.6714,7.4575,7.3304,7.2628,0.0,0.0,0.0,0.0,0.0,0.0,0.0,0.0,0.0,0.0,0.0,0.0,0.0,0.0,0.0,6.4271,0.0,0.0,6.196,0.0,0.0,0.0,0.0,0.0,0.0,0.0,0.0,0.0,0.0,0.0,0.0,0.0,0.0,0.0,0.0,0.0,0.0,0.0,0.0,0.0,0.0,7.6078,8.0851,8.8409,9.2356,9.2427,9.2468,9.2538,9.2579,9.2438,9.1159,8.8613,0.0,0.0,0.0,0.0,0.0,0.0,0.0,0.0,0.0,0.0,0.0,0.0,0.0,0.0,0.0,0.0,0.0,0.0,0.0,0.0,0.0,0.0,0.0,0.0,0.0,0.0,7.3503,7.5111,7.4913,0.0,0.0,0.0,0.0,0.0,0.0,0.0,0.0,0.0,7.97,8.2554,8.5483,8.8549,8.8903,8.983,9.3006,9.09,8.9474,9.0973,9.001,8.8619,0.0,0.0,0.0,0.0,0.0,0.0,0.0,0.0,0.0,0.0,0.0,0.0,0.0,0.0,0.0,0.0,0.0,0.0,0.0,0.0,0.0,0.0,0.0,0.0,0.0,0.0,0.0,0.0,0.0,0.0,0.0,0.0,0.0,0.0,0.0,0.0,0.0,0.0,0.0,0.0,0.0,0.0,0.0,0.0,0.0,0.0,0.0,0.0,0.0,0.0,0.0,0.0,0.0,0.0,7.3714,7.9208,8.5695,8.9508,9.0356,9.0494,9.0949,9.1472,8.9494,8.731,0.0,0.0,0.0,0.0,0.0,0.0,0.0,0.0,0.0,0.0,0.0,0.0,0.0,0.0,0.0,0.0,0.0,0.0,0.0,0.0,0.0,0.0,0.0,0.0,0.0,0.0,0.0,0.0,7.5491,7.6476,7.3298,0.0,0.0,0.0,0.0,0.0,0.0,0.0,0.0,0.0,0.0,8.2569,8.6734,8.6308,8.5811,8.6805,8.613,8.5669,8.613,8.6092,8.534,8.3501,0.0,0.0,0.0,0.0,0.0,0.0,0.0,0.0,0.0,0.0,0.0,0.0,0.0,0.0,0.0,0.0,0.0,0.0,0.0,0.0,0.0,0.0,0.0,0.0,0.0,0.0,0.0,0.0,0.0,0.0,0.0,0.0,0.0,0.0,0.0,0.0,0.0,0.0,0.0,0.0,0.0,0.0,0.0,0.0,0.0,0.0,0.0,0.0,0.0,0.0,0.0,0.0,0.0,7.1962,7.6749,8.3353,8.7079,8.7728,8.7965,8.8613,8.9645,8.6841,8.4102,0.0,0.0,0.0,0.0,0.0,0.0,0.0,0.0,0.0,0.0,0.0,0.0,0.0,0.0,0.0,0.0,0.0,0.0,0.0,0.0,0.0,0.0,0.0,0.0,0.0,0.0,0.0,0.0,7.2746,7.4526,7.3731,0.0,0.0,0.0,0.0,0.0,0.0,0.0,0.0,0.0,0.0,8.0857,8.4419,8.452,0.0,0.0,8.4516,8.4375,8.5083,8.5303,8.4458,8.1634,8.0821,0.0,0.0,0.0,0.0,0.0,0.0,0.0,0.0,0.0,0.0,0.0,0.0,0.0,0.0,0.0,0.0,0.0,0.0,0.0,0.0,0.0,0.0,0.0,0.0,0.0,0.0,0.0,0.0,0.0,0.0,0.0,0.0,0.0,0.0,0.0,0.0,0.0,0.0,0.0,0.0,0.0,0.0,0.0,0.0,0.0,0.0,0.0,0.0,0.0,0.0,0.0,0.0,7.074,7.3921,8.1244,8.5058,8.4896,8.5126,8.5853,8.7048,8.4309,8.1418,0.0,0.0,0.0,0.0,0.0,0.0,0.0,0.0,0.0,0.0,0.0,0.0,0.0,0.0,0.0,0.0,0.0,0.0,0.0,0.0,0.0,0.0,0.0,0.0,0.0,0.0,0.0,0.0,0.0,0.0,0.0,0.0,0.0,0.0,0.0,0.0,0.0,0.0,0.0,0.0,0.0,7.9962,8.1754,8.3211,8.475,0.0,8.5249,8.475,8.6456,8.6403,8.4832,8.0724,0.0,0.0,0.0,0.0,0.0,0.0,0.0,0.0,0.0,0.0,0.0,0.0,0.0,0.0,0.0,0.0,0.0,0.0,0.0,0.0,0.0,0.0,0.0,0.0,0.0,0.0,0.0,0.0,0.0,0.0,0.0,0.0,0.0,0.0,0.0,0.0,0.0,0.0,0.0,0.0,0.0,0.0,0.0,0.0,0.0,0.0,0.0,0.0,0.0,0.0,0.0,0.0,0.0,0.0,7.331,7.9742,8.3579,8.4542,8.4777,8.5074,8.5252,8.1366,0.0,0.0,0.0,0.0,0.0,0.0,0.0,0.0,0.0,0.0,0.0,0.0,0.0,0.0,0.0,0.0,0.0,0.0,0.0,0.0,0.0,0.0,0.0,0.0,0.0,0.0,0.0,6.1693,0.0,0.0,0.0,0.0,0.0,0.0,0.0,0.0,0.0,0.0,0.0,0.0,0.0,0.0,7.8197,7.9794,8.1243,8.2348,0.0,0.0,8.2348,8.2803,8.2149,8.0366,0.0,0.0,0.0,0.0,0.0,0.0,0.0,0.0,0.0,0.0,0.0,0.0,0.0,0.0,0.0,0.0,0.0,0.0,0.0,0.0,0.0,0.0,0.0,0.0,0.0,0.0,0.0,0.0,0.0,0.0,0.0,0.0,0.0,0.0,0.0,0.0,0.0,0.0,0.0,0.0,0.0,0.0,0.0,0.0,0.0,0.0,0.0,0.0,0.0,0.0,0.0,0.0,0.0,0.0,6.7679,7.1969,7.701,8.0291,8.1602,8.1907,8.2338,8.2779,7.907,7.5951,0.0,0.0,0.0,0.0,0.0,0.0,0.0,0.0,0.0,0.0,0.0,0.0,0.0,0.0,0.0,0.0,0.0,0.0,0.0,0.0,0.0,0.0,0.0,0.0,0.0,0.0,0.0,0.0,0.0,0.0,0.0,0.0,0.0,0.0,0.0,0.0,0.0,0.0,0.0,0.0,0.0,0.0,7.6504,7.7869,0.0,0.0,0.0,7.9738,7.9738,0.0,0.0,0.0,0.0,0.0,0.0,0.0,0.0,0.0,0.0,0.0,0.0,0.0,0.0,0.0,0.0,0.0,0.0,0.0,0.0,0.0,0.0,0.0,0.0,0.0,0.0,0.0,0.0,0.0,0.0,0.0,0.0,0.0,0.0,0.0,0.0,0.0,0.0,0.0,0.0,0.0,0.0,0.0,0.0,0.0,0.0,0.0,0.0,0.0,0.0,0.0,0.0,0.0,0.0,0.0,0.0,0.0,7.0057,7.3715,7.6321,7.7856,7.8259,7.8903,7.9883,7.7413,7.4972,0.0,0.0,0.0,0.0,0.0,0.0,0.0,0.0,0.0,0.0,0.0,0.0,0.0,0.0,0.0,0.0,0.0,0.0,0.0,0.0,0.0,0.0,0.0,0.0,0.0,0.0,0.0,0.0,0.0,0.0,0.0,0.0,0.0,0.0,0.0,0.0,0.0,0.0,0.0,0.0,0.0,7.296,7.3061,7.4247,7.5122,0.0,0.0,7.7074,7.7007,7.6831,0.0,0.0,0.0,0.0,0.0,0.0,0.0,0.0,0.0,0.0,0.0,0.0,0.0,0.0,0.0,0.0,0.0,0.0,0.0,0.0,0.0,0.0,0.0,0.0,0.0,0.0,0.0,0.0,0.0,0.0,0.0,0.0,0.0,0.0,0.0,0.0,0.0,0.0,0.0,0.0,0.0,0.0,0.0,0.0,0.0,0.0,0.0,0.0,0.0,0.0,0.0,0.0,0.0,0.0,0.0,0.0,6.7252,7.1293,7.4377,7.6511,7.7497,7.8005,7.8219,7.7361,7.5171,0.0,0.0,0.0,0.0,0.0,0.0,0.0,0.0,0.0,0.0,0.0,0.0,0.0,0.0,0.0,0.0,0.0,0.0,0.0,0.0,0.0,0.0,0.0,0.0,0.0,0.0,0.0,0.0,0.0,0.0,0.0,0.0,0.0,0.0,0.0,0.0,0.0,0.0,0.0,0.0,0.0,7.2918,7.296,7.3229,0.0,0.0,0.0,0.0,7.3833,7.379,0.0,0.0,0.0,0.0,0.0,0.0,0.0,0.0,0.0,0.0,0.0,0.0,0.0,0.0,0.0,0.0,0.0,0.0,0.0,0.0,0.0,0.0,0.0,0.0,0.0,0.0,0.0,0.0,0.0,0.0,0.0,0.0,0.0,0.0,0.0,0.0,0.0,0.0,0.0,0.0,0.0,0.0,0.0,0.0,0.0,0.0,0.0,0.0,0.0,0.0,0.0,0.0,0.0,0.0,0.0,0.0,6.7191,6.9605,7.2223,7.525,7.5905,7.6423,7.6982,7.6585,7.4649,0.0,0.0,0.0,0.0,0.0,0.0,0.0,0.0,0.0,0.0,0.0,0.0,0.0,0.0,0.0,0.0,0.0,0.0,0.0,0.0,0.0,0.0,0.0,0.0,0.0,0.0,0.0,0.0,0.0,0.0,0.0,0.0,0.0,0.0,0.0,0.0,0.0,0.0,0.0,0.0,6.943,7.1535,7.0839,0.0,0.0,0.0,0.0,0.0,0.0,7.1736,7.0999,0.0,0.0,0.0,0.0,0.0,0.0,0.0,0.0,0.0,0.0,0.0,0.0,0.0,0.0,0.0,0.0,0.0,0.0,0.0,0.0,0.0,0.0,0.0,0.0,0.0,0.0,0.0,0.0,0.0,0.0,0.0,0.0,0.0,0.0,0.0,0.0,0.0,0.0,0.0,0.0,0.0,0.0,0.0,0.0,0.0,0.0,0.0,0.0,0.0,0.0,0.0,0.0,0.0,0.0,0.0,6.7511,6.8044,7.0154,7.3857,7.4289,7.5067,7.6125,7.5827,7.4063,7.0623,0.0,0.0,0.0,0.0,0.0,0.0,0.0,0.0,0.0,0.0,0.0,0.0,0.0,0.0,0.0,0.0,0.0,0.0,0.0,0.0,0.0,0.0,0.0,0.0,0.0,0.0,0.0,0.0,0.0,0.0,0.0,0.0,0.0,0.0,0.0,0.0,0.0,0.0,0.0,6.8384,6.9859,0.0,0.0,0.0,0.0,0.0,0.0,0.0,0.0,6.9323,0.0,0.0,0.0,0.0,0.0,0.0,0.0,0.0,0.0,0.0,0.0,0.0,0.0,0.0,0.0,0.0,0.0,0.0,0.0,0.0,0.0,0.0,0.0,0.0,0.0,0.0,0.0,0.0,0.0,0.0,0.0,0.0,0.0,0.0,0.0,0.0,0.0,0.0,0.0,0.0,0.0,0.0,0.0,0.0,0.0,0.0,0.0,0.0,0.0,0.0,0.0,0.0,0.0,0.0,0.0,0.0,6.585,6.8464,7.1887,7.3567,7.495,7.6125,7.5827,7.3997,7.0623,0.0,0.0,0.0,0.0,0.0,0.0,0.0,0.0,0.0,0.0,0.0,0.0,0.0,0.0,0.0,0.0,0.0,0.0,0.0,0.0,0.0,0.0,0.0,0.0,0.0,0.0,0.0,0.0,0.0,0.0,0.0,0.0,0.0,0.0,0.0,0.0,0.0,0.0,6.4227,6.6842,0.0,0.0,0.0,0.0,0.0,0.0,0.0,0.0,6.6105,0.0,0.0,0.0,0.0,0.0,0.0,0.0,0.0,0.0,0.0,0.0,0.0,0.0,0.0,0.0,0.0,0.0,0.0,0.0,0.0,0.0,0.0,0.0,0.0,0.0,0.0,0.0,0.0,0.0,0.0,0.0,0.0,0.0,0.0,0.0,0.0,0.0,0.0,0.0,0.0,0.0,0.0,0.0,0.0,0.0,0.0,0.0,0.0,0.0,0.0,0.0,0.0,0.0,0.0,0.0,0.0,0.0,0.0,6.8736,7.1693,7.4155,7.5654,7.6113,7.4278,7.2365,0.0,0.0,0.0,0.0,0.0,0.0,0.0,0.0,0.0,0.0,0.0,0.0,0.0,0.0,0.0,0.0,0.0,0.0,0.0,0.0,0.0,0.0,0.0,0.0,0.0,0.0,0.0,0.0,0.0,0.0,0.0,0.0,0.0,0.0,0.0,0.0,0.0,0.0,0.0,0.0,0.0,0.0,0.0,0.0,0.0,0.0,0.0,0.0,0.0,0.0,0.0,0.0,0.0,0.0,0.0,0.0,0.0,0.0,0.0,0.0,0.0,0.0,0.0,0.0,0.0,0.0,0.0,0.0,0.0,0.0,0.0,0.0,0.0,0.0,0.0,0.0,0.0,0.0,0.0,0.0,0.0,0.0,0.0,0.0,0.0,0.0,0.0,0.0,0.0,0.0,0.0,0.0,0.0,0.0,0.0,0.0,0.0,0.0,0.0,0.0,0.0,0.0,0.0,0.0,0.0,0.0,0.0,0.0,6.9371,7.2005,7.477,7.6281,7.6539,7.2742,7.0383,0.0,0.0,0.0,0.0,0.0,0.0,0.0,0.0,0.0,0.0,0.0,0.0,0.0,0.0,0.0,0.0,0.0,0.0,0.0,0.0,0.0,0.0,0.0,0.0,0.0,0.0,0.0,0.0,0.0,0.0,0.0,0.0,0.0,0.0,0.0,0.0,0.0,0.0,0.0,0.0,0.0,0.0,0.0,0.0,0.0,0.0,0.0,0.0,6.349,0.0,0.0,0.0,0.0,0.0,0.0,0.0,0.0,0.0,0.0,0.0,0.0,0.0,0.0,0.0,0.0,0.0,0.0,0.0,0.0,0.0,0.0,0.0,0.0,0.0,0.0,0.0,0.0,0.0,0.0,0.0,0.0,0.0,0.0,0.0,0.0,0.0,0.0,0.0,0.0,0.0,0.0,0.0,0.0,0.0,0.0,0.0,0.0,0.0,0.0,0.0,0.0,0.0,0.0,0.0,0.0,0.0,0.0,0.0,6.9626,7.2268,7.4876,7.6641,7.7349,7.2289,6.8466,0.0,0.0,0.0,0.0,0.0,0.0,0.0,0.0,0.0,0.0,0.0,0.0,0.0,0.0,0.0,0.0,0.0,0.0,0.0,0.0,0.0,0.0,0.0,0.0,0.0,0.0,0.0,0.0,0.0,0.0,0.0,0.0,0.0,0.0,0.0,0.0,0.0,0.0,0.0,0.0,0.0,0.0,0.0,0.0,0.0,0.0,0.0,0.0,0.0,0.0,0.0,0.0,0.0,0.0,0.0,0.0,0.0,0.0,0.0,0.0,0.0,0.0,0.0,0.0,0.0,0.0,0.0,0.0,0.0,0.0,0.0,0.0,0.0,0.0,0.0,0.0,0.0,0.0,0.0,0.0,0.0,0.0,0.0,0.0,0.0,0.0,0.0,0.0,0.0,0.0,0.0,0.0,0.0,0.0,0.0,0.0,0.0,0.0,0.0,0.0,0.0,0.0,0.0,0.0,0.0,0.0,0.0,0.0,6.832,6.9195,7.2657,7.4144,7.327,6.8568,6.5587,0.0,0.0,0.0,0.0,0.0,0.0,0.0,0.0,0.0,0.0,0.0,0.0,0.0,0.0,0.0,0.0,0.0,0.0,0.0,0.0,0.0,0.0,0.0,0.0,0.0,0.0,0.0,0.0,0.0,0.0,0.0,0.0,0.0,0.0,0.0,0.0,0.0,0.0,0.0,0.0,0.0,0.0,0.0,0.0,0.0,0.0,0.0,0.0,0.0,0.0,0.0,0.0,0.0,0.0,0.0,0.0,0.0,0.0,0.0,0.0,0.0,0.0,0.0,0.0,0.0,0.0,0.0,0.0,0.0,0.0,0.0,0.0,0.0,0.0,0.0,0.0,0.0,0.0,0.0,0.0,0.0,0.0,0.0,0.0,0.0,0.0,0.0,0.0,0.0,0.0,0.0,0.0,0.0,0.0,0.0,0.0,0.0,0.0,0.0,0.0,0.0,0.0,0.0,0.0,0.0,0.0,0.0,0.0,0.0,6.7071,6.9504,7.0008,6.8466,6.4832,6.2768,0.0,0.0,0.0,0.0,0.0,0.0,0.0,0.0,0.0,0.0,0.0,0.0,0.0,0.0,0.0,0.0,0.0,0.0,0.0,0.0,0.0,0.0,0.0,0.0,0.0,0.0,0.0,0.0,0.0,0.0,0.0,0.0,0.0,0.0,0.0,0.0,0.0,0.0,0.0,0.0,0.0,0.0,0.0,0.0,0.0,0.0,0.0,0.0,0.0,0.0,0.0,0.0,0.0,0.0,0.0,0.0,0.0,0.0,0.0,0.0,0.0,0.0,0.0,0.0,0.0,0.0,0.0,0.0,0.0,0.0,0.0,0.0,0.0,0.0,0.0,0.0,0.0,0.0,0.0,0.0,0.0,0.0,0.0,0.0,0.0,0.0,0.0,0.0,0.0,0.0,0.0,0.0,0.0,0.0,0.0,0.0,0.0,0.0,0.0,0.0,0.0,0.0,0.0,0.0,0.0,0.0,0.0,0.0,0.0,6.7458,6.5366,6.4417,6.4477,6.1772,6.0037,0.0,0.0,0.0,0.0,0.0,0.0,0.0,0.0,0.0,0.0,0.0,0.0,0.0,0.0,0.0,0.0,0.0,0.0,0.0,0.0,0.0,0.0,0.0,0.0,0.0,0.0,0.0,0.0,0.0,0.0,0.0,0.0,0.0,0.0,0.0,0.0,0.0,0.0,0.0,0.0,0.0,0.0,0.0,0.0,0.0,0.0,0.0,0.0,0.0,0.0,0.0,0.0,0.0,0.0,0.0,0.0,0.0,0.0,0.0,0.0,0.0,0.0,0.0,0.0,0.0,0.0,0.0,0.0,0.0,0.0,0.0,0.0,0.0,0.0,0.0,0.0,0.0,0.0,0.0,0.0,0.0,0.0,0.0,0.0,0.0,0.0,0.0,0.0,0.0,0.0,0.0,0.0,0.0,0.0,0.0,0.0,0.0,0.0,0.0,0.0,0.0,0.0,0.0,0.0,0.0,0.0,0.0,0.0,0.0,6.3533,6.2693,6.2207,6.2325,5.9706,5.8172,5.7887,0.0,0.0,0.0,0.0,0.0,0.0,0.0,0.0,0.0,0.0,0.0,0.0,0.0,0.0,0.0,0.0,0.0,0.0,0.0,0.0,0.0,0.0,0.0,0.0,0.0,0.0,0.0,0.0,0.0,0.0,0.0,0.0,0.0,0.0,0.0,0.0,0.0,0.0,0.0,0.0,0.0,0.0,0.0,0.0,0.0,0.0,0.0,0.0,0.0,0.0,0.0,0.0,0.0,0.0,0.0,0.0,0.0,0.0,0.0,0.0,0.0,0.0,0.0,0.0,0.0,0.0,0.0,0.0,0.0,0.0,0.0,0.0,0.0,0.0,0.0,0.0,0.0,0.0,0.0,0.0,0.0,0.0,0.0,0.0,0.0,0.0,0.0,0.0,0.0,0.0,0.0,0.0,0.0,0.0,0.0,0.0,0.0,0.0,0.0,0.0,0.0,0.0,0.0,0.0,0.0,0.0,0.0,0.0,6.126,6.1194,6.1231,6.1201,5.8617,5.7221,0.0,0.0,0.0,0.0,0.0,0.0,0.0,0.0,0.0,0.0,0.0,0.0,0.0,0.0,0.0,0.0,0.0,0.0,0.0,0.0,0.0,0.0,0.0,0.0,0.0,0.0,0.0,0.0,0.0,0.0,0.0,0.0,0.0,0.0,0.0,0.0,0.0,0.0,0.0,0.0,0.0,0.0,0.0,0.0,0.0,0.0,0.0,0.0,0.0,0.0,0.0,0.0,0.0,0.0,0.0,0.0,0.0,0.0,0.0,0.0,0.0,0.0,0.0,0.0,0.0,0.0,0.0,0.0,0.0,0.0,0.0,0.0,0.0,0.0,0.0,0.0,0.0,0.0,0.0,0.0,0.0,0.0,0.0,0.0,0.0,0.0,0.0,0.0,0.0,0.0,0.0,0.0,0.0,0.0,0.0,0.0,0.0,0.0,0.0,0.0,0.0,0.0,0.0,0.0,0.0,0.0,0.0,0.0,6.1378,6.1231,6.1231,6.1305,6.1355,5.8687,5.7322,0.0,0.0,0.0,0.0,0.0,0.0,0.0,0.0,0.0,0.0,0.0,0.0,0.0,0.0,0.0,0.0,0.0,0.0,0.0,0.0,0.0,0.0,0.0,0.0,0.0,0.0,0.0,0.0,0.0,0.0,0.0,0.0,0.0,0.0,0.0,0.0,0.0,0.0,0.0,0.0,0.0,0.0,0.0,0.0,0.0,0.0,0.0,0.0,0.0,0.0,0.0,0.0,0.0,0.0,0.0,0.0,0.0,0.0,0.0,0.0,0.0,0.0,0.0,0.0,0.0,0.0,0.0,0.0,0.0,0.0,0.0,0.0,0.0,0.0,0.0,0.0,0.0,0.0,0.0,0.0,0.0,0.0,0.0,0.0,0.0,0.0,0.0,0.0,0.0,0.0,0.0,0.0,0.0,0.0,0.0,0.0,0.0,0.0,0.0,0.0,0.0,0.0,0.0,0.0,0.0,0.0,0.0,0.0,0.0,6.1634,0.0,6.1634,0.0,5.9867,5.8395,0.0,0.0,0.0,0.0,0.0,0.0,0.0,0.0,0.0,0.0,0.0,0.0,0.0,0.0,0.0,0.0,0.0,0.0,0.0,0.0,0.0,0.0,0.0,0.0,0.0,0.0,0.0,0.0,0.0,0.0,0.0,0.0,0.0,0.0,0.0,0.0,0.0,0.0,0.0,0.0,0.0,0.0,0.0,0.0,0.0,0.0,0.0,0.0,0.0,0.0,0.0,0.0,0.0,0.0,0.0,0.0,0.0,0.0,0.0,0.0,0.0,0.0,0.0,0.0,0.0,0.0,0.0,0.0,0.0,0.0,0.0,0.0,0.0,0.0,0.0,0.0,0.0,0.0,0.0,0.0,0.0,0.0,0.0,0.0,0.0,0.0,0.0,0.0,0.0,0.0,0.0,0.0,0.0,0.0,0.0,0.0,0.0,0.0,0.0,0.0,0.0,0.0,0.0,0.0,0.0,0.0,0.0,0.0,0.0,6.1814,6.1814,6.1814,6.1747,6.0441,5.9067,0.0,0.0,0.0,0.0,0.0,0.0,0.0,0.0,0.0,0.0,0.0,0.0,0.0,0.0,0.0,0.0,0.0,0.0,0.0,0.0,0.0,0.0,0.0,0.0,0.0,0.0,0.0,0.0,0.0,0.0,0.0,0.0,0.0,0.0,0.0,0.0,0.0,0.0,0.0,0.0,0.0,0.0,0.0,0.0,0.0,0.0,0.0,0.0,0.0,0.0,0.0,0.0,0.0,0.0,0.0,0.0,0.0,0.0,0.0,0.0,0.0,0.0,0.0,0.0,0.0,0.0,0.0,0.0,0.0,0.0,0.0,0.0,0.0,0.0,0.0,0.0,0.0,0.0,0.0,0.0,0.0,0.0,0.0,0.0,0.0,0.0,0.0,0.0,0.0,0.0,0.0,0.0,0.0,0.0,0.0,0.0,0.0,0.0,0.0,0.0,0.0,0.0,0.0,0.0,0.0,0.0,0.0,0.0,0.0,6.185,6.1814,6.1814,6.1747,6.0406,5.9169,0.0,0.0,0.0,0.0,0.0,0.0,0.0,0.0,0.0,0.0,0.0,0.0,0.0,0.0,0.0,0.0,0.0,0.0,0.0,0.0,0.0,0.0,0.0,0.0,0.0,0.0,0.0,0.0,0.0,0.0,0.0,0.0,0.0,0.0,0.0,0.0,0.0,0.0,0.0,0.0,0.0,0.0,0.0,0.0,0.0,0.0,0.0,0.0,0.0,0.0,0.0,0.0,0.0,0.0,0.0,0.0,0.0,0.0,0.0,0.0,0.0,0.0,0.0,0.0,0.0,0.0,0.0,0.0,0.0,0.0,0.0,0.0,0.0,0.0,0.0,0.0,0.0,0.0,0.0,0.0,0.0,0.0,0.0,0.0,0.0,0.0,0.0,0.0,0.0,0.0,0.0,0.0,0.0,0.0,0.0,0.0,0.0,0.0,0.0,0.0,0.0,0.0,0.0,0.0,0.0,0.0,0.0,0.0,0.0,0.0,6.1885,6.1814,6.1747,6.0511,5.9336,5.8294,0.0,0.0,0.0,0.0,0.0,0.0,0.0,0.0,0.0,0.0,0.0,0.0,0.0,0.0,0.0,0.0,0.0,0.0,0.0,0.0,0.0,0.0,0.0,0.0,0.0,0.0,0.0,0.0,0.0,0.0,0.0,0.0,0.0,0.0,0.0,0.0,0.0,0.0,0.0,0.0,0.0,0.0,0.0,0.0,0.0,0.0,0.0,0.0,0.0,0.0,0.0,0.0,0.0,0.0,0.0,0.0,0.0,0.0,0.0,0.0,0.0,0.0,0.0,0.0,0.0,0.0,0.0,0.0,0.0,0.0,0.0,0.0,0.0,0.0,0.0,0.0,0.0,0.0,0.0,0.0,0.0,0.0,0.0,0.0,0.0,0.0,0.0,0.0,0.0,0.0,0.0,0.0,0.0,0.0,0.0,0.0,0.0,0.0,0.0,0.0,0.0,0.0,0.0,0.0,0.0,0.0,0.0,0.0,0.0,0.0,6.1936,6.1361,6.0585,5.9427,0.0,0.0,0.0,0.0,0.0,0.0,0.0,0.0,0.0,0.0,0.0,0.0,0.0,0.0,0.0,0.0,0.0,0.0,0.0,0.0,0.0,0.0,0.0,0.0,0.0,0.0,0.0,0.0,0.0,0.0,0.0,0.0,0.0,0.0,0.0,0.0,0.0,0.0,0.0,0.0,0.0,0.0,0.0,0.0,0.0,0.0,0.0,0.0,0.0,0.0,0.0,0.0,0.0,0.0,0.0,0.0,0.0,0.0,0.0,0.0,0.0,0.0,0.0,0.0,0.0,0.0,0.0,0.0,0.0,0.0,0.0,0.0,0.0,0.0,0.0,0.0,0.0,0.0,0.0,0.0,0.0,0.0,0.0,0.0,0.0,0.0,0.0,0.0,0.0,0.0,0.0,0.0,0.0,0.0,0.0,0.0,0.0,0.0,0.0,0.0,0.0,0.0,0.0,0.0,0.0,0.0,0.0,0.0,0.0,0.0,0.0,6.2003,6.0675,6.0502,0.0,5.6889,0.0,0.0,0.0,0.0,0.0,0.0,0.0,0.0,0.0,0.0,0.0,0.0,0.0,0.0,0.0,0.0,0.0,0.0,0.0,0.0,0.0,0.0,0.0,0.0,0.0,0.0,0.0,0.0,0.0,0.0,0.0,0.0,0.0,0.0,0.0,0.0,0.0,0.0,0.0,0.0,0.0,0.0,0.0,0.0,0.0,0.0,0.0,0.0,0.0,0.0,0.0,0.0,0.0,0.0,0.0,0.0,0.0,0.0,0.0,0.0,0.0,0.0,0.0,0.0,0.0,0.0,0.0,0.0,0.0,0.0,0.0,0.0,0.0,0.0,0.0,0.0,0.0,0.0,0.0,0.0,0.0,0.0,0.0,0.0,0.0,0.0,0.0,0.0,0.0,0.0,0.0,0.0,0.0,0.0,0.0,0.0,0.0,0.0,0.0,0.0,0.0,0.0,0.0,0.0,0.0,0.0,0.0,0.0,0.0,0.0,0.0,0.0,5.97,5.8375,5.6665,0.0,0.0,0.0,0.0,0.0,0.0,0.0,0.0,0.0,0.0,0.0,0.0,0.0,0.0,0.0,0.0,0.0,0.0,0.0,0.0,0.0,0.0,0.0,0.0,0.0,0.0,0.0,0.0,0.0,0.0,0.0,0.0,0.0,0.0,0.0,0.0,0.0,0.0,0.0,0.0,0.0,0.0,0.0,0.0,0.0,0.0,0.0,0.0,0.0,0.0,0.0,0.0,0.0,0.0,0.0,0.0,0.0,0.0,0.0,0.0,0.0,0.0,0.0,0.0,0.0,0.0,0.0,0.0,0.0,0.0,0.0,0.0,0.0,0.0,0.0,0.0,0.0,0.0,0.0,0.0,0.0,0.0,0.0,0.0,0.0,0.0,0.0,0.0,0.0,0.0,0.0,0.0,0.0,0.0,0.0,0.0,0.0,0.0,0.0,0.0,0.0,0.0,0.0,0.0,0.0,0.0,0.0,0.0,0.0,0.0,6.12,6.0508,5.9129,5.7686,5.6184,0.0,0.0,0.0,0.0,0.0,0.0,0.0,0.0,0.0,0.0,0.0,0.0,0.0,0.0,0.0,0.0,0.0,0.0,0.0,0.0,0.0,0.0,0.0,0.0,0.0,0.0,0.0,0.0,0.0,0.0,0.0,0.0,0.0,0.0,0.0,0.0,0.0,0.0,0.0,0.0,0.0,0.0,0.0,0.0,0.0,0.0,0.0,0.0,0.0,0.0,0.0,0.0,0.0,0.0,0.0,0.0,0.0,0.0,0.0,0.0,0.0,0.0,0.0,0.0,0.0,0.0,0.0,0.0,0.0,0.0,0.0,0.0,0.0,0.0,0.0,0.0,0.0,0.0,0.0,0.0,0.0,0.0,0.0,0.0,0.0,0.0,0.0,0.0,0.0,0.0,0.0,0.0,0.0,0.0,0.0,0.0,0.0,0.0,0.0,0.0,0.0,0.0,0.0,0.0,0.0,0.0,0.0,0.0,0.0,0.0,0.0,0.0,0.0,0.0,5.5336,0.0,0.0,0.0,0.0,0.0,0.0,0.0,0.0,0.0,0.0,0.0,0.0,0.0,0.0,0.0,0.0,0.0,0.0,0.0,0.0,0.0,0.0,0.0,0.0,0.0,0.0,0.0,0.0,0.0,0.0,0.0,0.0,0.0,0.0,0.0,0.0,0.0,0.0,0.0,0.0,0.0,0.0,0.0,0.0,0.0,0.0,0.0,0.0,0.0,0.0,0.0,0.0,0.0,0.0,0.0,0.0,0.0,0.0,0.0,0.0,0.0,0.0,0.0,0.0,0.0,0.0,0.0,0.0,0.0,0.0,0.0,0.0,0.0,0.0,0.0,0.0,0.0,0.0,0.0,0.0,0.0,0.0,0.0,0.0,0.0,0.0,0.0,0.0,0.0,0.0,0.0,0.0,0.0,0.0,0.0,0.0,0.0,0.0,0.0,0.0,0.0,0.0,0.0,0.0,0.0,0.0,0.0,0.0,0.0,0.0,0.0,0.0,0.0,0.0,0.0,0.0,0.0,0.0,0.0,0.0,0.0,0.0,0.0,0.0,0.0,0.0,0.0,0.0,0.0,0.0,0.0,0.0,0.0,0.0,0.0,0.0,0.0,0.0,0.0,0.0,0.0,0.0,0.0,0.0,0.0,0.0,0.0,0.0,0.0,0.0,0.0,0.0,0.0,0.0,0.0,0.0,0.0,0.0,0.0,0.0,0.0,0.0,0.0,0.0,0.0,0.0,0.0,0.0,0.0,0.0,0.0,0.0,0.0,0.0,0.0,0.0,0.0,0.0,0.0,0.0,0.0,0.0,0.0,0.0,0.0,0.0,0.0,0.0,0.0,0.0,0.0,0.0,0.0,0.0,0.0,0.0,0.0,0.0,0.0,0.0,0.0,0.0,0.0,0.0,0.0,0.0,0.0,0.0,0.0,0.0,0.0,0.0,0.0,0.0,0.0,0.0,0.0,0.0,0.0,0.0,0.0,0.0,0.0,0.0,0.0,0.0,0.0,0.0,0.0,0.0,0.0,0.0,0.0,0.0,0.0,0.0,0.0,0.0,0.0,0.0,0.0,0.0,0.0,0.0,0.0,0.0,0.0,0.0,0.0,0.0,0.0,0.0,0.0,0.0,0.0,0.0,0.0,0.0,0.0,0.0,0.0,0.0,0.0,0.0,0.0,0.0,0.0,0.0,0.0,0.0,0.0,0.0,0.0,0.0,0.0,0.0,0.0,0.0,0.0,0.0,0.0,0.0,0.0,0.0,0.0,0.0,0.0,0.0,0.0,0.0,0.0,0.0,0.0,0.0,0.0,0.0,0.0,0.0,0.0,0.0,0.0,0.0,0.0,0.0,0.0,0.0,0.0,0.0,0.0,0.0,0.0,0.0,0.0,0.0,0.0,0.0,0.0,0.0,0.0,0.0,0.0,0.0,0.0,0.0,0.0,0.0,0.0,0.0,0.0,0.0,0.0,0.0,0.0,0.0,0.0,0.0,0.0,0.0,0.0,0.0,0.0,0.0,0.0,0.0,0.0,0.0,0.0,0.0,0.0,0.0,0.0,0.0,0.0,0.0,0.0,0.0,0.0,0.0,0.0,0.0,0.0,0.0,0.0,0.0,0.0,0.0,0.0,0.0,0.0,0.0,0.0,0.0,0.0,0.0,0.0,0.0,0.0,0.0,0.0,0.0,0.0,0.0,0.0,0.0,0.0,0.0,0.0,0.0,0.0,0.0,0.0,0.0,0.0,0.0,0.0,0.0,0.0,0.0,0.0,0.0,0.0,0.0,0.0,0.0,0.0,0.0,0.0,0.0,0.0,0.0,0.0,0.0,0.0,0.0,0.0,0.0,0.0,0.0,0.0,0.0,0.0,0.0,0.0,0.0,0.0,0.0,0.0,0.0,0.0,0.0,0.0,0.0,0.0,0.0,0.0,0.0,0.0,0.0,0.0,0.0,0.0,0.0,0.0,0.0,0.0,0.0,0.0,0.0,0.0,0.0,0.0,0.0,0.0,0.0,0.0,0.0,0.0,0.0,0.0,0.0,0.0,0.0,0.0,0.0,0.0,0.0,0.0,0.0,0.0,0.0,0.0,0.0,0.0,0.0,0.0,0.0,0.0,0.0,0.0,0.0,0.0,0.0,0.0,0.0,0.0,0.0,0.0,0.0,0.0,0.0,0.0,0.0,0.0,0.0,0.0,0.0,0.0,0.0,0.0,0.0,0.0,0.0,0.0,0.0,0.0,0.0,0.0,0.0,0.0,0.0,0.0,0.0,0.0,0.0,0.0,0.0,0.0,0.0,0.0,0.0,0.0,0.0,0.0,0.0,0.0,0.0,0.0,0.0,0.0,0.0,0.0,0.0,0.0,0.0,0.0,0.0,0.0,0.0,0.0,0.0,0.0,0.0,0.0,0.0,0.0,0.0,0.0,0.0,0.0,0.0,0.0,0.0,0.0,0.0,0.0,0.0,0.0,0.0,0.0,0.0,0.0,0.0,0.0,0.0,0.0,0.0,0.0,0.0,0.0,0.0,0.0,0.0,0.0,0.0,0.0,0.0,0.0,0.0,0.0,0.0,0.0,0.0,0.0,0.0,0.0,0.0,0.0,0.0,0.0,0.0,0.0,0.0,0.0,0.0,0.0,0.0,0.0,0.0,0.0,0.0,0.0,0.0,0.0,0.0,0.0,0.0,0.0,0.0,0.0,0.0,0.0,0.0,0.0,0.0,0.0,0.0,0.0,0.0,0.0,0.0,0.0,0.0,0.0,0.0,0.0,0.0,0.0,0.0,0.0,0.0,0.0,0.0,0.0,0.0,0.0,0.0,0.0,0.0,0.0,0.0,0.0,0.0,0.0,0.0,0.0,0.0,0.0,0.0,0.0,0.0,0.0,0.0,0.0,0.0,0.0,0.0,0.0,0.0,0.0,0.0,0.0,0.0,0.0,0.0,0.0,0.0,0.0,0.0,0.0,0.0,0.0,0.0,0.0,0.0,0.0,0.0,0.0,0.0,0.0,0.0,0.0,0.0,0.0,0.0,0.0,0.0,0.0,0.0,0.0,0.0,0.0,0.0,0.0,0.0,0.0,0.0,0.0,0.0,0.0,0.0,0.0,0.0,0.0,0.0,0.0,0.0,0.0,0.0,0.0,0.0,0.0,0.0,0.0,0.0,0.0,0.0,0.0,0.0,0.0,0.0,0.0,0.0,0.0,0.0,0.0,0.0,0.0,0.0,0.0,0.0,0.0,0.0,0.0,0.0,0.0,0.0,0.0,0.0,0.0,0.0,0.0,0.0,0.0,0.0,0.0,0.0,0.0,0.0,0.0,0.0,0.0,0.0,0.0,0.0,0.0,0.0,0.0,0.0,0.0,0.0,0.0,0.0,0.0,0.0,0.0,0.0,0.0,0.0,0.0,0.0,0.0,0.0,0.0,0.0,0.0,0.0,0.0,0.0,0.0,0.0,0.0,0.0,0.0,0.0,0.0,0.0,0.0,0.0,0.0,0.0,0.0,0.0,0.0,0.0,0.0,0.0,0.0,0.0,0.0,0.0,0.0,0.0,0.0,0.0,0.0,0.0,0.0,0.0,0.0,0.0,0.0,0.0,0.0,0.0,0.0,0.0,0.0,0.0,0.0,0.0,0.0,0.0,0.0,0.0,0.0,0.0,0.0,0.0,0.0,0.0,0.0,0.0,0.0,0.0,0.0,0.0,0.0,0.0,0.0,0.0,0.0,0.0,0.0,0.0,0.0,0.0,0.0,0.0,0.0,0.0,0.0,0.0,0.0,0.0,0.0,0.0,0.0,0.0,0.0,0.0,0.0,0.0,0.0,0.0,0.0,0.0,0.0,0.0,0.0,0.0,0.0,0.0,0.0,0.0,0.0,0.0,0.0,0.0,0.0,0.0,0.0,0.0,0.0,0.0,0.0,0.0,0.0,0.0,0.0,0.0,0.0,0.0,0.0,0.0,0.0,0.0,0.0,0.0,0.0,0.0,0.0,0.0,0.0,0.0,0.0,0.0,0.0,0.0,0.0,0.0,0.0,0.0,0.0,0.0,0.0,0.0,0.0,0.0,0.0,0.0,0.0,0.0,0.0,0.0,0.0,0.0,0.0,0.0,0.0,0.0,0.0,0.0,0.0,0.0,0.0,0.0,0.0,0.0,0.0,0.0,0.0,0.0,0.0,0.0,0.0,0.0,0.0,0.0,0.0,0.0,0.0,0.0,0.0,0.0,0.0,0.0,0.0,0.0,0.0,0.0,0.0,0.0,0.0,0.0,0.0,0.0,0.0,0.0,0.0,0.0,0.0,0.0,0.0,0.0,0.0,0.0,0.0,0.0,0.0,0.0,0.0,0.0,0.0,0.0,0.0,0.0,0.0,0.0]}]]]